     2              OBSERVATION DATA    GPS                 RINEX VERSION / TYPE
teqc 1997Jul24 19970902 21:06:19UTC                         PGM / RUN BY / DATE
                                                            COMMENT
BIT 2 OF LLI FLAGS DATA COLLECTED UNDER A-S CONDITION       COMMENT
BIT 2 OF LLI FLAGS DATA COLLECTED UNDER A-S CONDITION       COMMENT
Original Marker Name: 55476.NIGU                            COMMENT
Campaign Name: Salt. Tr. Crust. Monit. May-Jun 1986         COMMENT
4-Character Station Name: NIGU                              COMMENT
6-Character Antenna Code: TI4100                            COMMENT
Vertical Measurement Point: PAE                             COMMENT
Vertical Offset to Rinex Ref. Point: 0.0000                 COMMENT
Radial Measurement Point: RRP                               COMMENT
Radial Offset to Rinex Ref. Point: 0.0000                   COMMENT
Antenna Height from Field Measurement: 1.3930 m             COMMENT
Original XYZ: -2477017.9019 -4712074.0870 3501879.4126      COMMENT
New XYZ position is based on association with SCEC monument COMMENT
E1D0D8E5+0011. Position of that monument is believed to be  COMMENT
valid to within 1 m horizontally; vertical accuracy         COMMENT
should be no worse than 3-times this value.                 COMMENT
                                                            COMMENT
Revised Rinex header created by UCSD GPS archive for        COMMENT
GSAC on 12-Apr-1999 (1999:102) 02:51:49 GMT                 COMMENT
For assistance contact dagnew@ucsd.edu or hjohnson@ucsd.edu COMMENT
                                                            COMMENT
NIGUEL A 1884 1981                                          MARKER NAME
5 NATIONAL GEODETIC SURVEY                                  OBSERVER / AGENCY
UT-18 TI 4100 1.0                                           REC # / TYPE / VERS
4014 TI 4100                                                ANT # / TYPE
 -2477021.0000 -4711974.0000  3501809.0000                  APPROX POSITION XYZ
        1.3930        0.0000        0.0000                  ANTENNA: DELTA H/E/N
     1     1     0                                          WAVELENGTH FACT L1/2
     4    P1    P2    L1    L2                              # / TYPES OF OBSERV
     6                                                      INTERVAL
  1986     6    18     2    40   59.000000                  TIME OF FIRST OBS
  1986     6    18     4    17    5.000000                  TIME OF LAST OBS
     0                                                      # OF SATELLITES
                                                            END OF HEADER
 86  6 18  2 40 59.0800000  0  4G12G13G 9G11
  20950063.288    20950065.877     9635903.013 8 -22296286.001 8
  20669231.855    20669234.337    33627349.373 9 -47701987.097 9
  21259290.187    21259294.147    67491672.484 9-105505234.166 8
  24403308.165    24403311.640    95067036.512 9 -84414344.547 8
 86  6 18  2 41  5.0800000  0  4G12G13G 9G11
  20948482.465    20948486.630     9627599.920 9 -22302755.940 8
  20670218.654    20670220.396    33632531.879 9 -47697948.770 9
  21262617.269    21262619.536    67509151.000 9-105491614.555 9
  24406401.760    24406405.187    95083295.290 8 -84401675.375 9
 86  6 18  2 41 11.0800000  0  4G12G13G 9G11
  20946907.165    20946911.014     9619319.761 9 -22309208.018 9
  20671206.932    20671208.629    33637725.380 9 -47693901.886 9
  21265946.655    21265948.868    67526648.582 9-105477980.061 8
  24409493.950    24409498.551    95099551.412 8 -84389008.252 8
 86  6 18  2 41 17.0800000  0  4G12G13G 9G11
  20945335.905    20945338.436     9611062.516 9 -22315642.230 8
  20672197.255    20672198.764    33642929.884 9 -47689846.430 9
  21269279.400    21269283.018    67544165.140 9-105464330.807 9
  24412587.352    24412592.437    95115804.974 9 -84376343.163 8
 86  6 18  2 41 23.0800000  0  4G12G13G 9G11
  20943769.135    20943772.294     9602828.209 9 -22322058.580 9
  20673189.663    20673191.499    33648145.350 9 -47685782.433 9
  21272617.273    21272619.875    67561700.768 9-105450666.689 9
  24415681.427    24415683.915    95132055.896 8 -84363680.104 9
 86  6 18  2 41 29.0800000  0  4G12G13G 9G11
  20942206.570    20942208.331     9594616.896 9 -22328457.014 8
  20674184.524    20674186.625    33653371.830 9 -47681709.839 9
  21275957.433    21275959.354    67579255.405 9-105436987.749 8
  24418772.794    24418775.239    95148304.222 8 -84351019.087 9
 86  6 18  2 41 35.0800000  0  4G12G13G 9G11
  20940647.614    20940651.216     9586428.536 9 -22334837.553 9
  20675180.440    20675183.077    33658609.295 9 -47677628.697 9
  21279302.255    21279304.144    67596829.039 9-105423294.012 9
  24421862.855    24421866.696    95164549.936 8 -84338360.069 9
 86  6 18  2 41 41.0800000  0  4G12G13G 9G11
  20939094.412    20939097.013     9578263.187 9 -22341200.160 8
  20676179.538    20676181.580    33663857.689 9 -47673539.033 8
  21282649.464    21282652.124    67614421.622 9-105409585.495 8
  24424954.472    24424957.874    95180793.108 8 -84325703.061 8
 86  6 18  2 41 47.0800000  0  4G12G13G 9G11
  20937545.152    20937548.475     9570120.877 9 -22347544.818 8
  20677180.208    20677182.026    33669116.969 9 -47669440.888 9
  21286001.450    21286003.599    67632033.161 9-105395862.235 9
  24428045.214    24428048.826    95197033.683 9 -84313048.069 8
 86  6 18  2 41 53.0800000  0  4G12G13G 9G11
  20935999.159    20936003.023     9562001.635 9 -22353871.502 8
  20678182.671    20678185.014    33674387.155 9 -47665334.255 9
  21289357.267    21289359.180    67649663.640 9-105382124.194 8
  24431135.608    24431138.581    95213271.556 9 -84300395.179 9
 86  6 18  2 41 59.0800000  0  4G12G13G 9G11
  20934458.405    20934463.441     9553905.433 9 -22360180.223 9
  20679188.148    20679190.170    33679668.296 9 -47661219.082 9
  21292715.914    21292716.655    67667312.988 9-105368371.460 9
  24434224.703    24434228.893    95229506.767 9 -84287744.357 8
 86  6 18  2 42  5.0800000  0  4G12G13G 9G11
  20932922.539    20932926.232     9545832.376 9 -22366470.921 8
  20680195.288    20680197.312    33684960.271 9 -47657095.465 9
  21296077.287    21296079.858    67684981.189 9-105354604.043 9
  24437314.533    24437317.548    95245739.302 8 -84275095.630 8
 86  6 18  2 42 11.0800000  0  4G12G13G 9G11
  20931390.283    20931394.193     9537782.436 9 -22372743.604 8
  20681203.904    20681206.678    33690263.116 9 -47652963.382 9
  21299443.489    21299444.823    67702668.262 9-105340821.902 8
  24440402.712    24440405.679    95261969.211 9 -84262448.957 9
 86  6 18  2 42 17.0800000  0  4G12G13G 9G11
  20929863.811    20929866.799     9529755.615 9 -22378998.266 8
  20682214.822    20682216.188    33695576.749 9 -47648822.886 9
  21302812.159    21302814.208    67720374.187 9-105327025.081 8
  24443490.508    24443493.996    95278196.525 9 -84249804.292 8
 86  6 18  2 42 23.0800000  0  4G12G13G 9G11
  20928341.657    20928343.316     9521751.913 9 -22385234.905 9
  20683227.794    20683230.979    33700901.235 9 -47644673.929 9
  21306186.121    21306187.973    67738098.983 9-105313213.559 9
  24446577.487    24446580.088    95294421.181 8 -84237161.701 9
 86  6 18  2 42 29.0800000  0  4G12G13G 9G11
  20926822.448    20926826.109     9513771.325 9 -22391453.543 9
  20684243.827    20684245.672    33706236.569 9 -47640516.537 9
  21309562.594    21309563.220    67755842.513 9-105299387.447 8
  24449664.057    24449667.089    95310643.170 9 -84224521.195 8
 86  6 18  2 42 35.0800000  0  4G12G13G 9G11
  20925308.968    20925311.585     9505813.899 9 -22397654.131 9
  20685260.615    20685263.956    33711582.787 9 -47636350.662 8
  21312942.031    21312943.783    67773604.856 9-105285546.648 9
  24452750.920    24452754.255    95326862.469 9 -84211882.779 9
 86  6 18  2 42 41.0800000  0  4G12G13G 9G11
  20923798.717    20923801.892     9497879.637 9 -22403836.682 9
  20686280.433    20686281.797    33716939.779 9 -47632176.370 8
  21316326.089    21316326.837    67791385.953 9-105271691.255 8
  24455836.569    24455840.036    95343079.039 9 -84199246.471 8
 86  6 18  2 42 47.0800000  0  4G12G13G 9G11
  20922293.420    20922295.267     9489968.568 9 -22410001.142 9
  20687301.572    20687303.069    33722307.601 9 -47627993.651 8
  21319712.547    21319715.253    67809185.817 9-105257821.234 8
  24458921.281    24458926.109    95359292.970 9 -84186612.258 9
 86  6 18  2 42 53.0800000  0  4G12G13G 9G11
  20920792.327    20920794.101     9482080.664 9 -22416147.556 9
  20688325.634    20688327.108    33727686.190 9 -47623802.545 9
  21323103.386    21323105.164    67827004.326 9-105243936.697 8
  24462007.280    24462010.747    95375504.234 8 -84173980.099 8
 86  6 18  2 42 59.0800000  0  4G12G13G 9G11
  20919295.701    20919297.991     9474215.982 9 -22422275.875 9
  20689350.904    20689352.897    33733075.500 9 -47619603.077 9
  21326497.425    21326500.083    67844841.563 9-105230037.547 9
  24465091.728    24465095.389    95391712.781 9 -84161350.056 8
 86  6 18  2 43  5.0800000  0  4G12G13G 9G11
  20917803.280    20917805.901     9466374.504 9 -22428386.114 9
  20690378.069    20690380.355    33738475.494 9 -47615395.293 9
  21329895.324    21329897.823    67862697.519 9-105216123.834 8
  24468173.440    24468178.868    95407918.622 9 -84148722.142 9
 86  6 18  2 43 11.0800000  0  4G12G13G 9G11
  20916315.499    20916318.702     9458556.262 9 -22434478.257 8
  20691408.880    20691410.351    33743886.183 9 -47611179.166 8
  21333296.797    21333298.837    67880572.004 8-105202195.673 8
  24471257.451    24471262.420    95424121.700 8 -84136096.372 9
 86  6 18  2 43 17.0800000  0  4G12G13G 9G11
  20914832.523    20914834.827     9450761.299 9 -22440552.252 8
  20692439.602    20692441.966    33749307.629 8 -47606954.666 8
  21336701.007    21336703.132    67898465.188 9-105188252.926 8
  24474340.809    24474344.678    95440322.150 9 -84123472.655 9
 86  6 18  2 43 23.0800000  0  4G12G13G 9G11
  20913352.666    20913356.197     9442989.612 9 -22446608.103 9
  20693473.826    20693474.926    33754739.732 9 -47602721.861 9
  21340109.624    21340113.154    67916377.008 9-105174295.679 8
  24477423.326    24477427.358    95456519.815 8 -84110851.086 8
 86  6 18  2 43 29.0800000  0  4G12G13G 9G11
  20911878.620    20911881.541     9435241.209 9 -22452645.825 8
  20694509.321    20694512.178    33760182.505 9 -47598480.737 9
  21343520.896    21343524.008    67934307.419 9-105160323.931 8
  24480504.117    24480508.278    95472714.716 8 -84098231.675 8
 86  6 18  2 43 35.0800000  0  4G12G13G 9G11
  20910407.663    20910411.027     9427516.134 9 -22458665.353 8
  20695546.375    20695548.033    33765635.861 9 -47594231.360 8
  21346937.264    21346940.184    67952256.267 9-105146337.825 8
  24483585.930    24483590.892    95488906.900 9 -84085614.409 9
 86  6 18  2 43 41.0800000  0  4G12G13G 9G11
  20908942.318    20908945.223     9419814.423 9 -22464666.682 9
  20696586.813    20696588.393    33771099.865 9 -47589973.680 9
  21350356.188    21350358.140    67970223.705 9-105132337.225 8
  24486666.490    24486671.053    95505096.327 9 -84072999.259 9
 86  6 18  2 43 47.0800000  0  4G12G13G 9G11
  20907481.665    20907484.597     9412136.018 8 -22470649.856 8
  20697627.819    20697630.483    33776574.456 9 -47585707.773 9
  21353779.131    21353780.258    67988209.667 9-105118322.204 9
  24489747.143    24489751.715    95521283.011 9 -84060386.260 8
 86  6 18  2 43 53.0800000  0  4G12G13G 9G11
  20906025.046    20906027.807     9404480.924 9 -22476614.866 8
  20698671.300    20698674.498    33782059.627 8 -47581433.614 9
  21357205.744    21357207.111    68006214.094 9-105104292.777 8
  24492827.026    24492831.496    95537466.970 8 -84047775.389 9
 86  6 18  2 43 59.0800000  0  4G12G13G 9G11
  20904571.260    20904575.814     9396849.222 9 -22482561.643 8
  20699716.979    20699720.205    33787555.406 9 -47577151.190 9
  21360635.327    21360637.160    68024236.987 9-105090248.953 8
  24495906.378    24495910.033    95553648.171 9 -84035166.651 9
 86  6 18  2 44  5.0800000  0  4G12G13G 9G11
  20903124.663    20903127.106     9389240.920 9 -22488490.183 8
  20700765.823    20700768.685    33793061.724 9 -47572860.542 9
  21364068.989    21364069.168    68042278.357 9-105076190.753 7
  24498984.649    24498989.270    95569826.589 9 -84022560.102 8
 86  6 18  2 44 11.0800000  0  4G12G13G 9G11
  20901681.838    20901684.670     9381656.053 9 -22494400.467 9
  20701814.772    20701817.921    33798578.641 9 -47568561.648 8
  21367504.512    21367506.718    68060338.201 9-105062118.155 8
  24502061.970    24502067.049    95586002.208 9 -84009955.715 8
 86  6 18  2 44 17.0800000  0  4G12G13G 9G11
  20900242.445    20900245.824     9374094.683 9 -22500292.446 9
  20702867.956    20702870.677    33804106.107 9 -47564254.533 9
  21370945.746    21370945.032    68078416.310 9-105048031.311 8
  24505140.271    24505145.021    95602175.061 9 -83997353.492 8
 86  6 18  2 44 23.0800000  0  4G12G13G 9G11
  20898807.437    20898811.153     9366556.760 9 -22506166.145 8
  20703920.752    20703924.213    33809644.120 9 -47559939.197 9
  21374389.758    21374389.739    68096512.859 8-105033930.095 8
  24508217.562    24508221.869    95618345.125 9 -83984753.445 8
 86  6 18  2 44 29.0800000  0  4G12G13G 9G11
  20897378.061    20897381.352     9359042.326 9 -22512021.537 9
  20704976.319    20704979.884    33815192.638 9 -47555615.673 9
  21377836.684    21377837.699    68114627.818 8-105019814.544 8
  24511293.717    24511298.826    95634512.413 9 -83972155.556 9
 86  6 18  2 44 35.0800000  0  4G12G13G 9G11
  20895952.667    20895956.216     9351551.377 8 -22517858.641 8
  20706035.436    20706038.069    33820751.622 9 -47551284.001 9
  21381287.705    21381288.563    68132761.076 9-105005684.741 9
  24514370.566    24514374.608    95650676.894 8 -83959559.855 8
 86  6 18  2 44 41.0800000  0  4G12G13G 9G11
  20894531.992    20894534.640     9344083.919 9 -22523677.443 8
  20707094.971    20707097.338    33826321.064 9 -47546944.174 9
  21384740.188    21384741.617    68150912.652 9-104991540.661 8
  24517446.715    24517449.789    95666838.556 9 -83946966.361 9
 86  6 18  2 44 47.0800000  0  4G12G13G 9G11
  20893115.441    20893118.061     9336639.916 9 -22529477.952 8
  20708156.576    20708159.951    33831900.944 9 -47542596.213 9
  21388198.574    21388199.415    68169082.468 9-104977382.370 7
  24520521.623    24520524.362    95682997.361 9 -83934375.077 8
 86  6 18  2 44 53.0800000  0  4G12G13G 9G11
  20891702.667    20891706.358     9329219.416 9 -22535260.160 8
  20709220.131    20709223.917    33837491.309 9 -47538240.089 9
  21391659.818    21391660.249    68187270.563 9-104963209.814 8
  24523595.847    24523598.676    95699153.344 9 -83921786.006 9
 86  6 18  2 44 59.0800000  0  4G12G13G 9G11
  20890294.842    20890297.849     9321822.377 9 -22541024.088 9
  20710286.617    20710288.521    33843092.058 9 -47533875.862 9
  21395124.862    21395125.414    68205476.929 9-104949023.047 9
  24526669.468    24526673.478    95715306.483 8 -83909199.137 9
 86  6 18  2 45  5.0800000  0  4G12G13G 9G11
  20888892.170    20888895.378     9314448.869 9 -22546769.673 9
  20711354.611    20711355.942    33848703.277 9 -47529503.480 8
  21398591.439    21398593.520    68223701.560 9-104934822.049 8
  24529742.779    24529746.842    95731456.773 9 -83896614.501 9
 86  6 18  2 45 11.0800000  0  4G12G13G 9G11
  20887494.390    20887496.180     9307099.011 9 -22552496.838 8
  20712423.965    20712425.693    33854324.941 9 -47525122.963 9
  21402064.290    21402066.264    68241944.336 9-104920606.909 8
  24532815.872    24532819.113    95747604.213 8 -83884032.078 8
 86  6 18  2 45 17.0800000  0  4G12G13G 9G11
  20886100.161    20886101.965     9299772.714 9 -22558205.633 8
  20713495.609    20713498.322    33859956.977 9 -47520734.360 9
  21405539.516    21405539.769    68260205.252 9-104906377.626 8
  24535887.175    24535891.984    95763748.829 8 -83871451.861 9
 86  6 18  2 45 23.0800000  0  4G12G13G 9G11
  20884711.283    20884712.944     9292469.983 9 -22563896.073 8
  20714569.712    20714572.100    33865599.425 9 -47516337.657 9
  21409017.766    21409018.339    68278484.309 9-104892134.205 9
  24538958.779    24538963.602    95779890.553 9 -83858873.894 9
 86  6 18  2 45 29.0800000  0  4G12G13G 9G11
  20883326.067    20883327.640     9285190.895 9 -22569568.079 9
  20715645.040    20715647.538    33871252.233 9 -47511932.858 9
  21412499.011    21412500.515    68296781.509 9-104877876.659 9
  24542031.178    24542034.704    95796029.456 9 -83846298.125 9
 86  6 18  2 45 35.0800000  0  4G12G13G 9G11
  20881944.859    20881947.121     9277935.443 9 -22575221.675 9
  20716723.407    20716725.020    33876915.343 9 -47507520.038 9
  21415984.336    21415985.587    68315096.860 8-104863604.962 8
  24545100.685    24545105.358    95812165.517 9 -83833724.566 9
 86  6 18  2 45 41.0800000  0  4G12G13G 9G11
  20880568.973    20880570.490     9270703.613 9 -22580856.866 8
  20717803.014    20717804.829    33882588.813 9 -47503099.158 9
  21419473.203    21419474.551    68333430.323 9-104849319.158 9
  24548170.079    24548175.815    95828298.709 8 -83821153.250 8
 86  6 18  2 45 47.0800000  0  4G12G13G 9G11
  20879197.555    20879199.484     9263495.486 9 -22586473.582 9
  20718884.290    20718885.491    33888272.644 9 -47498670.191 9
  21422964.824    21422966.905    68351781.841 9-104835019.290 8
  24551240.839    24551244.757    95844429.076 8 -83808584.140 8
 86  6 18  2 45 53.0800000  0  4G12G13G 9G11
  20877829.107    20877831.713     9256311.055 9 -22592071.848 9
  20719967.589    20719969.449    33893966.791 9 -47494233.193 9
  21426460.618    21426462.588    68370151.355 9-104820705.395 9
  24554308.549    24554314.016    95860556.541 9 -83796017.274 9
 86  6 18  2 45 59.0800000  0  4G12G13G 9G11
  20876467.819    20876469.850     9249150.232 9 -22597651.702 8
  20721052.817    20721055.624    33899671.212 9 -47489788.192 9
  21429959.717    21429961.146    68388538.863 9-104806377.462 8
  24557378.252    24557381.050    95876681.110 9 -83783452.682 8
 86  6 18  2 46  5.0800000  0  4G12G13G 9G11
  20875109.219    20875111.750     9242013.107 9 -22603213.098 9
  20722140.982    20722141.458    33905385.913 9 -47485335.176 8
  21433461.828    21433463.635    68406944.438 9-104792035.470 8
  24560445.334    24560449.301    95892802.752 9 -83770890.362 9
 86  6 18  2 46 11.0800000  0  4G12G13G 9G11
  20873754.796    20873758.045     9234899.751 9 -22608755.972 8
  20723230.484    20723231.823    33911110.846 9 -47480874.184 9
  21436967.695    21436970.623    68425368.032 9-104777679.433 9
  24563513.802    24563516.730    95908921.519 9 -83758330.278 8
 86  6 18  2 46 17.0800000  0  4G12G13G 9G11
  20872404.725    20872409.233     9227810.143 9 -22614280.338 8
  20724322.007    20724323.279    33916845.990 9 -47476405.227 8
  21440476.830    21440479.512    68443809.504 8-104763309.456 8
  24566580.744    24566584.579    95925037.373 9 -83745772.469 8
 86  6 18  2 46 23.0800000  0  4G12G13G 9G11
  20871060.319    20871063.426     9220744.163 9 -22619786.294 9
  20725415.173    20725416.501    33922591.364 9 -47471928.321 9
  21443989.464    21443992.036    68462268.872 8-104748925.540 8
  24569646.392    24569649.784    95941150.270 9 -83733216.960 8
 86  6 18  2 46 29.0800000  0  4G12G13G 9G11
  20869721.007    20869724.313     9213701.939 9 -22625273.740 8
  20726509.615    20726511.747    33928346.846 9 -47467443.527 9
  21447505.487    21447508.456    68480746.177 9-104734527.649 7
  24572711.145    24572715.621    95957260.268 9 -83720663.714 8
 86  6 18  2 46 35.0800000  0  4G12G13G 9G11
  20868385.417    20868388.453     9206683.483 9 -22630742.662 8
  20727606.378    20727608.931    33934112.569 9 -47462950.759 9
  21451025.402    21451027.149    68499241.362 9-104720115.805 8
  24575776.947    24575779.765    95973367.321 9 -83708112.765 9
 86  6 18  2 46 41.0800000  0  4G12G13G 9G11
  20867054.347    20867057.727     9199688.812 9 -22636193.053 9
  20728705.371    20728707.476    33939888.495 9 -47458450.037 8
  21454549.085    21454550.740    68517754.426 9-104705690.043 8
  24578840.889    24578843.775    95989471.435 8 -83695564.086 8
 86  6 18  2 46 47.0800000  0  4G12G13G 9G11
  20865728.372    20865731.079     9192717.952 9 -22641624.892 9
  20729806.758    20729809.472    33945674.612 9 -47453941.367 9
  21458074.527    21458078.174    68536285.342 9-104691250.389 7
  24581905.567    24581908.648    96005572.623 9 -83683017.712 8
 86  6 18  2 46 53.0800000  0  4G12G13G 9G11
  20864406.975    20864408.924     9185770.861 9 -22647038.212 9
  20730909.416    20730911.926    33951470.863 9 -47449424.810 8
  21461604.134    21461607.291    68554834.011 9-104676796.891 8
  24584968.421    24584972.103    96021670.886 9 -83670473.605 9
 86  6 18  2 46 59.0800000  0  4G12G13G 9G11
  20863088.815    20863091.335     9178847.599 9 -22652432.958 9
  20732015.249    20732016.780    33957277.182 9 -47444900.399 9
  21465137.573    21465139.287    68573400.496 9-104662329.500 8
  24588030.996    24588034.978    96037766.218 9 -83657931.787 8
 86  6 18  2 47  5.0800000  0  4G12G13G 9G11
  20861775.832    20861778.209     9171948.193 9 -22657809.120 9
  20733121.310    20733123.232    33963093.639 9 -47440368.100 9
  21468674.907    21468675.213    68591984.783 9-104647848.241 7
  24591092.109    24591095.819    96053858.584 9 -83645392.281 8
 86  6 18  2 47 11.0800000  0  4G12G13G 9G11
  20860467.542    20860470.704     9165072.629 9 -22663166.712 8
  20734231.072    20734232.631    33968920.182 9 -47435827.934 9
  21472214.877    21472215.280    68610586.778 9-104633353.173 9
  24594154.438    24594159.487    96069947.987 8 -83632855.073 8
 86  6 18  2 47 17.0800000  0  4G12G13G 9G11
  20859163.001    20859166.326     9158220.946 9 -22668505.664 8
  20735340.950    20735343.691    33974756.788 9 -47431279.932 8
  21475757.623    21475759.356    68629206.450 9-104618844.354 8
  24597215.479    24597218.959    96086034.432 9 -83620320.174 8
 86  6 18  2 47 23.0800000  0  4G12G13G 9G11
  20857863.871    20857867.161     9151393.146 9 -22673826.039 9
  20736453.461    20736455.650    33980603.394 9 -47426724.132 9
  21479303.880    21479306.296    68647843.876 8-104604321.681 8
  24600276.888    24600280.550    96102117.870 8 -83607787.619 8
 86  6 18  2 47 29.0800000  0  4G12G13G 9G11
  20856570.122    20856571.680     9144589.279 9 -22679127.755 8
  20737568.223    20737570.835    33986460.030 9 -47422160.521 9
  21482853.749    21482856.601    68666499.038 9-104589785.197 9
  24603336.304    24603340.607    96118198.316 9 -83595257.402 9
 86  6 18  2 47 35.0800000  0  4G12G13G 9G11
  20855280.176    20855281.336     9137809.337 9 -22684410.820 9
  20738685.219    20738687.893    33992326.684 9 -47417589.112 9
  21486407.259    21486409.721    68685171.796 9-104575234.995 9
  24606395.384    24606400.519    96134275.787 9 -83582729.495 8
 86  6 18  2 47 41.0800000  0  4G12G13G 9G11
  20853993.181    20853995.557     9131053.428 9 -22689675.158 8
  20739803.323    20739804.541    33998203.409 9 -47413009.835 9
  21489963.653    21489965.412    68703862.207 9-104560671.044 9
  24609453.952    24609458.805    96150350.247 8 -83570203.950 9
 86  6 18  2 47 47.0800000  0  4G12G13G 9G11
  20852713.053    20852715.368     9124321.450 9 -22694920.857 8
  20740923.270    20740924.464    34004090.195 9 -47408422.730 9
  21493523.112    21493525.827    68722570.198 9-104546093.389 8
  24612512.597    24612517.405    96166421.729 9 -83557680.717 8
 86  6 18  2 47 53.0800000  0  4G12G13G 9G11
  20851436.733    20851438.490     9117613.443 9 -22700147.874 8
  20742045.720    20742047.491    34009986.969 9 -47403827.832 8
  21497086.028    21497088.923    68741295.750 9-104531502.060 9
  24615570.839    24615574.665    96182490.163 9 -83545159.853 9
 86  6 18  2 47 59.0800000  0  4G12G13G 9G11
  20850164.873    20850166.760     9110929.367 9 -22705356.227 8
  20743169.918    20743171.457    34015893.700 9 -47399225.189 9
  21500654.251    21500655.426    68760038.852 9-104516897.047 9
  24618627.303    24618632.352    96198555.563 9 -83532641.345 9
 86  6 18  2 48  5.0800000  0  4G12G13G 9G11
  20848897.192    20848899.753     9104269.255 9 -22710545.936 8
  20744295.328    20744297.721    34021810.409 9 -47394614.768 8
  21504224.289    21504226.176    68778799.603 9-104502278.281 8
  24621684.083    24621689.366    96214617.988 9 -83520125.187 8
 86  6 18  2 48 11.0800000  0  4G12G13G 9G11
  20847634.723    20847637.699     9097633.155 9 -22715716.924 8
  20745423.327    20745425.163    34027737.076 9 -47389996.578 8
  21507797.145    21507799.513    68797577.803 9-104487645.923 8
  24624740.062    24624743.844    96230677.420 9 -83507611.334 9
 86  6 18  2 48 17.0800000  0  4G12G13G 9G11
  20846376.428    20846377.888     9091021.038 9 -22720869.215 9
  20746553.402    20746555.287    34033673.659 9 -47385370.667 8
  21511373.699    21511375.318    68816373.555 9-104472999.880 8
  24627795.808    24627799.568    96246733.803 9 -83495099.864 8
 86  6 18  2 48 23.0800000  0  4G12G13G 9G11
  20845122.314    20845124.947     9084432.936 9 -22726002.804 9
  20747683.942    20747685.786    34039620.107 8 -47380737.062 9
  21514954.222    21514956.284    68835186.762 9-104458340.236 9
  24630851.888    24630855.846    96262787.160 9 -83482590.760 9
 86  6 18  2 48 29.0800000  0  4G12G13G 9G11
  20843873.638    20843875.899     9077868.845 9 -22731117.671 9
  20748817.517    20748820.612    34045576.461 9 -47376095.741 9
  21518537.403    21518539.763    68854017.388 9-104443667.035 8
  24633904.939    24633909.553    96278837.462 9 -83470084.013 8
 86  6 18  2 48 35.0800000  0  3G12G13G 9
  20842627.621    20842630.612     9071328.870 9 -22736213.767 9
  20749952.463    20749955.609    34051542.725 9 -47371446.708 9
  21522124.489    21522126.734    68872865.548 8-104428980.162 9
 86  6 18  2 48 41.0800000  0  3G12G13G 9
  20841388.534    20841391.625     9064812.894 9 -22741291.141 9
  20751088.950    20751092.012    34057518.784 9 -47366790.026 9
  21525713.965    21525716.246    68891730.995 9-104414279.819 8
 86  6 18  2 48 47.0800000  0  3G12G13G 9
  20840152.534    20840155.467     9058320.988 9 -22746349.766 8
  20752228.401    20752231.040    34063504.601 9 -47362125.754 8
  21529306.736    21529309.868    68910613.773 9-104399565.962 9
 86  6 18  2 48 53.0800000  0  3G12G13G 9
  20838922.145    20838925.163     9051853.296 9 -22751389.536 8
  20753368.827    20753372.010    34069500.427 9 -47357453.674 9
  21532903.629    21532906.077    68929514.090 9-104384838.454 9
 86  6 18  2 48 59.0800000  0  3G12G13G 9
  20837696.275    20837699.209     9045409.707 9 -22756410.518 9
  20754511.478    20754515.658    34075506.109 9 -47352773.920 9
  21536503.195    21536506.349    68948431.687 8-104370097.469 9
 86  6 18  2 49  5.0800000  0  3G12G13G 9
  20836474.930    20836477.403     9038990.114 9 -22761412.796 9
  20755656.955    20755660.095    34081521.438 9 -47348086.656 9
  21540106.612    21540110.292    68967366.340 8-104355343.210 7
 86  6 18  2 49 11.0800000  0  3G12G13G 9
  20835258.249    20835260.654     9032594.801 9 -22766396.164 8
  20756803.847    20756805.992    34087546.675 9 -47343391.660 9
  21543713.285    21543715.486    68986318.481 8-104340575.301 8
 86  6 18  2 49 17.0800000  0  3G12G13G 9
  20834045.460    20834049.048     9026223.697 9 -22771360.663 9
  20757952.380    20757955.007    34093581.779 8 -47338688.981 9
  21547322.989    21547326.332    69005287.970 9-104325793.881 8
 86  6 18  2 49 23.0800000  0  3G12G13G 9
  20832837.276    20832840.668     9019876.606 9 -22776306.456 9
  20759103.103    20759105.989    34099626.471 9 -47333978.827 9
  21550935.494    21550938.193    69024274.537 9-104310999.158 9
 86  6 18  2 49 29.0800000  0  3G12G13G 9
  20831634.820    20831637.335     9013553.662 9 -22781233.426 9
  20760254.840    20760257.405    34105680.932 9 -47329261.073 9
  21554552.343    21554554.767    69043278.312 9-104296191.032 9
 86  6 18  2 49 35.0800000  0  3G12G13G 9
  20830435.708    20830439.429     9007255.057 9 -22786141.430 9
  20761409.115    20761411.274    34111745.248 9 -47324535.612 8
  21558172.012    21558175.010    69062299.388 9-104281369.411 8
 86  6 18  2 49 41.0800000  0  3G12G13G 9
  20829241.523    20829245.902     9000980.612 9 -22791030.610 9
  20762565.631    20762567.252    34117819.190 9 -47319802.673 8
  21561793.936    21561797.137    69081337.606 9-104266534.453 9
 86  6 18  2 49 47.0800000  0  3G12G13G 9
  20828051.999    20828056.077     8994730.293 9 -22795900.988 9
  20763723.872    20763725.639    34123902.674 9 -47315062.294 9
  21565420.909    21565424.201    69100392.903 9-104251686.175 9
 86  6 18  2 49 53.0800000  0  3G12G13G 9
  20826866.538    20826870.530     8988504.412 9 -22800752.325 9
  20764882.645    20764884.430    34129995.962 9 -47310314.271 8
  21569050.019    21569051.867    69119465.424 9-104236824.463 9
 86  6 18  2 49 59.0800000  0  3G12G13G 9
  20825687.492    20825690.913     8982302.803 9 -22805584.749 8
  20766044.586    20766046.753    34136099.017 9 -47305558.645 9
  21572682.589    21572684.703    69138555.076 9-104221949.423 9
 86  6 18  2 50  5.0800000  0  3G12G13G 9
  20824512.049    20824514.283     8976125.222 9 -22810398.449 8
  20767207.026    20767209.015    34142211.579 9 -47300795.607 9
  21576318.237    21576321.395    69157661.638 9-104207061.196 8
 86  6 18  2 50 11.0800000  0  3G12G13G 9
  20823341.301    20823343.260     8969972.019 9 -22815193.155 9
  20768372.561    20768373.931    34148333.746 9 -47296025.094 9
  21579958.057    21579961.217    69176785.318 9-104192159.644 8
 86  6 18  2 50 17.0800000  0  3G12G13G 9
  20822174.816    20822177.605     8963843.224 9 -22819968.844 9
  20769538.966    20769541.397    34154465.579 9 -47291247.028 8
  21583600.505    21583604.447    69195926.255 9-104177244.628 8
 86  6 18  2 50 23.0800000  0  3G12G13G 9
  20821013.628    20821015.225     8957738.579 9 -22824725.707 8
  20770707.473    20770709.583    34160606.924 9 -47286461.561 9
  21587246.058    21587247.973    69215083.983 9-104162316.527 9
 86  6 18  2 50 29.0800000  0  3G12G13G 9
  20819856.041    20819857.800     8951658.264 9 -22829463.610 8
  20771878.489    20771880.418    34166757.838 9 -47281668.645 9
  21590894.626    21590896.130    69234258.636 9-104147375.245 8
 86  6 18  2 50 35.0800000  0  3G12G13G 9
  20818703.894    20818705.667     8945602.496 9 -22834182.391 9
  20773050.720    20773051.732    34172918.582 9 -47276868.062 9
  21594545.989    21594549.983    69253450.380 9-104132420.639 9
 86  6 18  2 50 41.0800000  0  3G12G13G 9
  20817556.240    20817558.027     8939571.008 9 -22838882.253 8
  20774224.740    20774226.525    34179088.836 9 -47272060.072 9
  21598202.121    21598205.116    69272659.007 8-104117452.893 8
 86  6 18  2 50 47.0800000  0  3G12G13G 9
  20816413.167    20816414.826     8933563.701 9 -22843563.275 8
  20775400.819    20775402.479    34185268.510 9 -47267244.735 8
  21601860.962    21601863.519    69291884.408 9-104102472.069 9
 86  6 18  2 50 53.0800000  0  3G12G13G 9
  20815274.011    20815276.313     8927580.897 9 -22848225.201 8
  20776577.564    20776579.934    34191457.873 9 -47262421.853 9
  21605521.680    21605525.115    69311126.781 8-104087478.016 8
 86  6 18  2 50 59.0800000  0  3G12G13G 9
  20814140.409    20814143.228     8921622.595 9 -22852868.025 9
  20777758.037    20777760.184    34197656.842 9 -47257591.478 9
  21609186.232    21609189.081    69330386.151 9-104072470.721 9
 86  6 18  2 51  5.0800000  0  3G12G13G 9
  20813010.841    20813014.018     8915688.610 9 -22857491.914 9
  20778939.425    20778940.178    34203865.152 9 -47252753.831 8
  21612854.785    21612857.219    69349662.291 9-104057450.351 9
 86  6 18  2 51 11.0800000  0  3G12G13G 9
  20811886.884    20811888.817     8909779.006 9 -22862096.794 8
  20780123.081    20780125.212    34210082.954 9 -47247908.799 9
  21616526.644    21616529.873    69368955.236 9-104042416.897 8
 86  6 18  2 51 17.0800000  0  3G12G13G 9
  20810766.989    20810769.050     8903893.861 9 -22866682.617 8
  20781307.316    20781308.807    34216310.392 9 -47243056.235 9
  21620201.265    21620203.930    69388265.078 9-104027370.276 9
 86  6 18  2 51 23.0800000  0  3G12G13G 9
  20809651.676    20809653.479     8898033.042 9 -22871249.498 9
  20782494.478    20782495.742    34222547.267 9 -47238196.343 8
  21623879.214    21623882.462    69407591.622 9-104012310.625 8
 86  6 18  2 51 29.0800000  0  3G12G13G 9
  20808540.024    20808543.571     8892196.528 9 -22875797.426 9
  20783682.750    20783685.175    34228793.487 9 -47233329.160 8
  21627560.139    21627563.062    69426934.808 9-103997238.024 8
 86  6 18  2 51 35.0800000  0  3G12G13G 9
  20807434.381    20807437.555     8886384.613 9 -22880326.193 9
  20784873.637    20784874.359    34235049.169 9 -47228454.599 8
  21631243.707    21631246.676    69446294.804 9-103982152.314 9
 86  6 18  2 51 41.0800000  0  3G12G13G 9
  20806333.204    20806336.451     8880597.184 9 -22884835.871 8
  20786064.916    20786068.072    34241314.218 9 -47223572.743 9
  21634931.281    21634934.309    69465671.553 9-103967053.551 9
 86  6 18  2 51 47.0800000  0  3G12G13G 9
  20805236.031    20805239.823     8874834.156 9 -22889326.544 9
  20787259.345    20787260.985    34247588.520 9 -47218683.678 8
  21638621.132    21638624.437    69485064.867 9-103951941.877 8
 86  6 18  2 51 53.0800000  0  3G12G13G 9
  20804144.182    20804148.518     8869095.635 9 -22893798.122 9
  20788455.174    20788457.443    34253872.213 9 -47213787.291 8
  21642315.816    21642317.579    69504474.876 9-103936817.210 8
 86  6 18  2 51 59.0800000  0  3G12G13G 9
  20803056.916    20803061.378     8863381.760 9 -22898250.488 8
  20789652.732    20789654.558    34260165.441 9 -47208883.477 9
  21646012.510    21646015.324    69523901.566 9-103921679.518 9
 86  6 18  2 52  5.0800000  0  3G12G13G 9
  20801974.254    20801978.059     8857692.251 9 -22902683.880 9
  20790851.684    20790854.284    34266467.993 9 -47203972.391 9
  21649711.557    21649714.131    69543344.751 8-103906528.997 8
 86  6 18  2 52 11.0800000  0  3G12G13G 9
  20800896.340    20800899.804     8852027.220 9 -22907098.195 9
  20792053.084    20792055.470    34272779.910 9 -47199054.025 9
  21653415.202    21653419.139    69562804.425 9-103891365.614 9
 86  6 18  2 52 17.0800000  0  3G12G13G 9
  20799822.751    20799827.718     8846386.844 8 -22911493.288 8
  20793255.831    20793258.622    34279101.198 9 -47194128.339 9
  21657121.541    21657124.237    69582280.778 9-103876189.242 8
 86  6 18  2 52 23.0800000  0  3G12G13G 9
  20798755.030    20798758.372     8840771.004 9 -22915869.278 9
  20794460.894    20794463.686    34285431.738 9 -47189195.457 9
  21660830.947    21660833.140    69601773.678 9-103860999.976 9
 86  6 18  2 52 29.0800000  0  3G12G13G 9
  20797690.628    20797694.275     8835179.643 9 -22920226.180 9
  20795666.465    20795669.543    34291771.454 9 -47184255.407 9
  21664543.394    21664545.544    69621282.946 9-103845797.955 8
 86  6 18  2 52 35.0800000  0  3G12G13G 9
  20796630.889    20796635.496     8829613.015 9 -22924563.818 9
  20796875.169    20796877.283    34298120.534 9 -47179308.074 9
  21668259.142    21668260.709    69640808.782 8-103830583.016 8
 86  6 18  2 52 41.0800000  0  3G12G13G 9
  20795577.473    20795580.189     8824071.079 9 -22928882.209 9
  20798084.912    20798087.348    34304478.960 9 -47174353.443 9
  21671978.136    21671979.502    69660351.226 9-103815355.141 8
 86  6 18  2 52 47.0800000  0  3G12G13G 9
  20794526.952    20794530.597     8818553.585 9 -22933181.561 9
  20799296.958    20799298.934    34310846.499 9 -47169391.746 9
  21675699.945    21675702.394    69679909.967 9-103800114.562 8
 86  6 18  2 52 53.0800000  0  3G12G13G 9
  20793480.748    20793484.597     8813060.690 9 -22937461.735 8
  20800510.913    20800512.088    34317223.196 9 -47164422.876 9
  21679424.840    21679426.166    69699485.120 9-103784861.202 8
 86  6 18  2 52 59.0800000  0  3G12G13G 9
  20792440.930    20792443.993     8807592.618 8 -22941722.568 9
  20801725.622    20801728.194    34323609.284 9 -47159446.701 9
  21683152.753    21683155.410    69719076.817 9-103769594.954 9
 86  6 18  2 53  5.0800000  0  3G12G13G 9
  20791406.321    20791408.781     8802149.140 9 -22945964.242 9
  20802942.011    20802945.098    34330004.550 9 -47154463.371 9
  21686884.139    21686886.674    69738684.850 9-103754315.985 8
 86  6 18  2 53 11.0800000  0  3G12G13G 9
  20790373.395    20790377.046     8796730.213 9 -22950186.791 9
  20804160.637    20804164.128    34336408.905 9 -47149472.972 8
  21690618.165    21690620.956    69758309.120 9-103739024.349 8
 86  6 18  2 53 17.0800000  0  3G12G13G 9
  20789347.629    20789350.679     8791336.041 9 -22954390.031 9
  20805382.168    20805383.811    34342822.500 9 -47144475.365 9
  21694355.350    21694358.150    69777949.824 9-103723719.904 8
 86  6 18  2 53 23.0800000  0  3G12G13G 9
  20788326.321    20788328.200     8785966.646 9 -22958573.973 9
  20806604.150    20806606.154    34349245.301 9 -47139470.570 9
  21698096.060    21698098.045    69797606.881 8-103708402.733 8
 86  6 18  2 53 29.0800000  0  3G12G13G 9
  20787308.483    20787310.515     8780621.836 9 -22962738.759 9
  20807827.777    20807830.464    34355677.128 9 -47134458.757 9
  21701840.190    21701841.594    69817280.052 8-103693072.986 7
 86  6 18  2 53 35.0800000  0  3G12G13G 9
  20786295.651    20786299.212     8775301.732 9 -22966884.290 8
  20809053.331    20809055.300    34362118.104 9 -47129439.817 8
  21705586.871    21705588.365    69836969.409 9-103677730.631 8
 86  6 18  2 53 41.0800000  0  3G12G13G 9
  20785289.200    20785290.445     8770006.483 8 -22971010.460 9
  20810280.076    20810283.780    34368568.344 9 -47124413.664 9
  21709336.992    21709339.062    69856675.126 8-103662375.525 9
 86  6 18  2 53 47.0800000  0  3G12G13G 9
  20784285.439    20784287.842     8764735.927 8 -22975117.384 8
  20811510.034    20811511.811    34375027.567 9 -47119380.490 9
  21713089.365    21713091.761    69876396.950 8-103647007.890 9
 86  6 18  2 53 53.0800000  0  3G12G13G 9
  20783287.548    20783289.718     8759489.986 9 -22979205.129 9
  20812740.490    20812743.368    34381495.720 9 -47114340.371 8
  21716844.955    21716848.469    69896134.863 9-103631627.698 9
 86  6 18  2 53 59.0800000  0  3G12G13G 9
  20782293.714    20782296.933     8754268.901 8 -22983273.514 9
  20813972.952    20813975.794    34387973.150 9 -47109293.026 9
  21720604.689    21720607.109    69915889.111 9-103616234.787 8
 86  6 18  2 54  5.0800000  0  3G12G13G 9
  20781306.584    20781307.884     8749072.530 8 -22987322.630 9
  20815207.472    20815210.586    34394459.626 9 -47104238.621 8
  21724367.877    21724368.354    69935659.562 9-103600829.238 8
 86  6 18  2 54 11.0800000  0  3G12G13G 9
  20780321.108    20780324.270     8743900.813 9 -22991352.544 9
  20816444.066    20816445.965    34400954.941 9 -47099177.338 9
  21728132.120    21728134.150    69955445.924 9-103585411.292 8
 86  6 18  2 54 17.0800000  0  3G12G13G 9
  20779341.957    20779344.922     8738753.950 9 -22995363.086 8
  20817681.868    20817683.802    34407459.250 9 -47094109.042 8
  21731900.308    21731901.811    69975248.352 9-103569980.825 8
 86  6 18  2 54 23.0800000  0  3G12G13G 9
  20778367.046    20778369.793     8733632.063 9 -22999354.162 9
  20818921.139    20818922.663    34413972.695 9 -47089033.627 9
  21735671.875    21735673.862    69995066.953 8-103554537.766 8
 86  6 18  2 54 29.0800000  0  3G12G13G 9
  20777396.712    20777399.059     8728534.854 9 -23003326.008 8
  20820162.254    20820164.594    34420495.013 9 -47083951.302 9
  21739446.138    21739448.845    70014901.438 9-103539082.335 8
 86  6 18  2 54 35.0800000  0  3G12G13G 9
  20776432.615    20776433.591     8723462.395 9 -23007278.591 9
  20821404.548    20821407.762    34427026.329 9 -47078861.961 9
  21743223.736    21743226.563    70034751.946 9-103523614.415 9
 86  6 18  2 54 41.0800000  0  3G12G13G 9
  20775470.669    20775473.488     8718414.950 9 -23011211.668 9
  20822648.870    20822652.184    34433566.753 9 -47073765.528 7
  21747004.218    21747006.760    70054618.612 9-103508133.899 9
 86  6 18  2 54 47.0800000  0  3G12G13G 9
  20774515.700    20774518.762     8713392.323 9 -23015125.396 8
  20823895.811    20823897.557    34440116.160 9 -47068662.098 8
  21750788.103    21750789.750    70074501.139 9-103492641.022 8
 86  6 18  2 54 53.0800000  0  3G12G13G 9
  20773564.910    20773567.102     8708394.410 9 -23019019.870 8
  20825143.927    20825146.126    34446674.395 9 -47063551.774 8
  21754573.046    21754576.431    70094399.499 9-103477135.801 9
 86  6 18  2 54 59.0800000  0  3G12G13G 9
  20772618.705    20772620.488     8703421.494 9 -23022894.879 9
  20826393.291    20826395.109    34453241.657 9 -47058434.427 9
  21758363.790    21758365.374    70114313.888 9-103461618.105 8
 86  6 18  2 55  5.0800000  0  3G12G13G 9
  20771676.643    20771679.148     8698473.572 9 -23026750.418 8
  20827645.986    20827647.587    34459817.799 9 -47053310.160 8
  21762156.120    21762159.147    70134244.179 8-103446088.008 9
 86  6 18  2 55 11.0800000  0  3G12G13G 9
  20770740.024    20770742.222     8693550.420 9 -23030586.631 8
  20828897.959    20828900.873    34466402.675 9 -47048179.082 8
  21765951.560    21765955.518    70154190.214 9-103430545.656 9
 86  6 18  2 55 17.0800000  0  3G12G13G 9
  20769807.920    20769811.942     8688652.140 9 -23034403.475 9
  20830152.932    20830155.059    34472996.417 9 -47043041.115 9
  21769750.193    21769752.720    70174152.144 8-103414990.914 8
 86  6 18  2 55 23.0800000  0  3G12G13G 9
  20768880.686    20768884.048     8683778.859 9 -23038200.843 8
  20831409.818    20831412.368    34479599.099 9 -47037896.162 8
  21773552.317    21773553.700    70194130.032 8-103399423.723 8
 86  6 18  2 55 29.0800000  0  3G12G13G 9
  20767958.347    20767962.007     8678930.458 9 -23041978.802 8
  20832667.610    20832669.976    34486210.631 9 -47032744.318 8
  21777355.980    21777358.044    70214123.665 9-103383844.282 7
 86  6 18  2 55 35.0800000  0  3G12G13G 9
  20767040.840    20767044.132     8674106.971 9 -23045737.381 8
  20833927.246    20833929.968    34492830.938 9 -47027585.629 9
  21781164.277    21781167.300    70234132.909 8-103368252.661 9
 86  6 18  2 55 41.0800000  0  3G12G13G 9
  20766126.826    20766130.148     8669308.482 9 -23049476.455 9
  20835189.462    20835190.925    34499460.181 9 -47022419.990 9
  21784973.263    21784977.798    70254157.967 8-103352648.723 8
 86  6 18  2 55 47.0800000  0  3G12G13G 9
  20765218.278    20765221.400     8664534.928 9 -23053196.115 9
  20836452.598    20836454.453    34506098.175 9 -47017247.525 9
  21788788.122    21788790.500    70274198.807 8-103337032.500 9
 86  6 18  2 55 53.0800000  0  3G12G13G 9
  20764314.112    20764318.290     8659786.152 9 -23056896.451 9
  20837716.945    20837719.153    34512744.727 9 -47012068.397 8
  21792604.358    21792607.967    70294255.103 8-103321404.222 8
 86  6 18  2 55 59.0800000  0  3G12G13G 9
  20763415.322    20763419.286     8655062.414 9 -23060577.296 9
  20838984.160    20838986.059    34519400.117 9 -47006882.382 9
  21796424.112    21796428.263    70314327.113 8-103305763.705 8
 86  6 18  2 56  5.0800000  0  3G12G13G 9
  20762521.229    20762524.116     8650363.798 9 -23064238.556 9
  20840251.640    20840253.658    34526064.386 9 -47001689.450 9
  21800246.465    21800249.820    70334414.997 9-103290110.799 8
 86  6 18  2 56 11.0800000  0  3G12G13G 9
  20761631.282    20761635.004     8645690.095 9 -23067880.405 9
  20841521.646    20841524.330    34532737.316 9 -46996489.777 9
  21804071.410    21804076.029    70354518.396 8-103274445.822 7
 86  6 18  2 56 17.0800000  0  3G12G13G 9
  20760746.974    20760750.894     8641041.363 9 -23071502.786 9
  20842792.772    20842794.903    34539418.854 9 -46991283.374 8
  21807900.338    21807904.086    70374637.320 9-103258768.746 8
 86  6 18  2 56 23.0800000  0  3G12G13G 9
  20759867.246    20759870.379     8636417.798 8 -23075105.567 9
  20844065.997    20844068.535    34546109.242 9 -46986070.087 9
  21811732.731    21811735.847    70394771.872 9-103243079.496 8
 86  6 18  2 56 29.0800000  0  3G12G13G 9
  20758992.125    20758994.358     8631819.290 9 -23078688.823 9
  20845341.091    20845342.629    34552808.345 9 -46980850.011 9
  21815567.658    21815570.683    70414921.915 9-103227378.164 8
 86  6 18  2 56 35.0800000  0  3G12G13G 9
  20758121.668    20758124.915     8627245.679 9 -23082252.673 8
  20846617.187    20846619.402    34559516.044 9 -46975623.234 9
  21819404.833    21819406.296    70435087.349 9-103211664.840 8
 86  6 18  2 56 41.0800000  0  3G12G13G 9
  20757255.962    20757260.055     8622697.188 8 -23085796.958 9
  20847895.668    20847897.183    34566232.457 9 -46970389.664 9
  21823243.576    21823246.213    70455268.352 9-103195939.395 8
 86  6 18  2 56 47.0800000  0  3G12G13G 9
  20756394.977    20756398.399     8618173.847 9 -23089321.631 9
  20849175.761    20849176.322    34572957.545 9 -46965149.334 9
  21827087.420    21827090.675    70475464.925 9-103180201.801 8
 86  6 18  2 56 53.0800000  0  3G12G13G 9
  20755539.576    20755542.298     8613675.477 8 -23092826.853 8
  20850455.969    20850457.956    34579691.139 9 -46959902.389 9
  21830934.023    21830936.997    70495676.801 9-103164452.289 8
 86  6 18  2 56 59.0800000  0  3G12G13G 9
  20754689.097    20754691.184     8609202.165 8 -23096312.551 9
  20851738.373    20851741.177    34586433.380 9 -46954648.683 9
  21834783.788    21834786.297    70515904.136 9-103148690.731 9
 86  6 18  2 57  5.0800000  0  3G12G13G 9
  20753842.396    20753844.840     8604754.166 9 -23099778.532 8
  20853023.941    20853025.731    34593184.395 9 -46949388.161 9
  21838635.886    21838637.283    70536147.048 9-103132917.032 9
 86  6 18  2 57 11.0800000  0  3G12G13G 9
  20753000.900    20753003.059     8600331.223 9 -23103224.964 8
  20854310.142    20854312.764    34599943.930 9 -46944120.990 9
  21842490.330    21842493.386    70556405.225 9-103117131.444 8
 86  6 18  2 57 17.0800000  0  3G12G13G 9
  20752163.838    20752165.728     8595933.247 9 -23106651.968 9
  20855597.143    20855600.107    34606711.894 9 -46938847.246 8
  21846348.566    21846351.008    70576678.674 9-103101333.967 9
 86  6 18  2 57 23.0800000  0  3G12G13G 9
  20751332.104    20751333.736     8591560.531 9 -23110059.290 9
  20856887.495    20856889.579    34613488.576 9 -46933566.722 9
  21850209.707    21850210.878    70596967.531 8-103085524.459 8
 86  6 18  2 57 29.0800000  0  3G12G13G 9
  20750505.179    20750506.976     8587213.007 9 -23113446.960 8
  20858179.094    20858181.441    34620273.834 9 -46928279.515 9
  21854072.859    21854074.874    70617271.732 9-103069702.998 8
 86  6 18  2 57 35.0800000  0  3G12G13G 9
  20749682.142    20749684.100     8582890.561 9 -23116815.107 9
  20859471.084    20859473.046    34627067.451 9 -46922985.782 9
  21857938.983    21857942.099    70637590.981 9-103053869.817 8
 86  6 18  2 57 41.0800000  0  3G12G13G 9
  20748863.973    20748866.103     8578593.192 9 -23120163.707 9
  20860765.779    20860768.557    34633869.665 9 -46917685.354 8
  21861809.572    21861812.365    70657925.550 8-103038024.711 8
 86  6 18  2 57 47.0800000  0  3G12G13G 9
  20748050.038    20748053.529     8574321.133 8 -23123492.584 9
  20862062.280    20862064.935    34640680.536 9 -46912378.181 9
  21865682.078    21865684.197    70678275.498 9-103022167.614 9
 86  6 18  2 57 53.0800000  0  3G12G13G 9
  20747241.566    20747244.473     8570074.250 9 -23126801.846 9
  20863358.814    20863362.188    34647499.777 9 -46907064.480 9
  21869558.057    21869559.544    70698640.549 9-103006298.740 8
 86  6 18  2 57 59.0800000  0  3G12G13G 9
  20746438.564    20746442.699     8565852.472 8 -23130091.547 8
  20864657.822    20864660.184    34654327.430 9 -46901744.247 9
  21873437.336    21873438.147    70719020.699 9-102990418.106 8
 86  6 18  2 58  5.0800000  0  3G12G13G 9
  20745640.540    20745643.131     8561656.005 8 -23133361.522 9
  20865959.717    20865962.378    34661163.757 9 -46896417.227 9
  21877317.722    21877318.588    70739416.191 9-102974525.515 8
 86  6 18  2 58 11.0800000  0  3G12G13G 9
  20744847.414    20744850.632     8557484.733 9 -23136611.862 8
  20867262.111    20867265.052    34668008.582 9 -46891083.598 8
  21881201.650    21881201.731    70759826.814 8-102958621.136 9
 86  6 18  2 58 17.0800000  0  3G12G13G 9
  20744056.829    20744061.268     8553338.509 8 -23139842.684 9
  20868565.850    20868569.181    34674861.686 9 -46885743.525 9
  21885088.444    21885089.521    70780252.373 9-102942705.109 9
 86  6 18  2 58 23.0800000  0  3G12G13G 9
  20743273.317    20743276.437     8549217.607 8 -23143053.780 8
  20869871.966    20869874.400    34681723.225 9 -46880396.862 9
  21888978.037    21888979.635    70800693.077 9-102926777.297 9
 86  6 18  2 58 29.0800000  0  3G12G13G 9
  20742494.553    20742497.642     8545121.979 9 -23146245.184 9
  20871179.459    20871180.650    34688593.209 9 -46875043.642 8
  21892871.430    21892872.537    70821148.921 9-102910837.682 9
 86  6 18  2 58 35.0800000  0  3G12G13G 9
  20741720.139    20741722.416     8541051.497 9 -23149416.987 9
  20872488.358    20872490.475    34695471.432 9 -46869683.983 9
  21896766.496    21896768.848    70841619.643 9-102894886.470 8
 86  6 18  2 58 41.0800000  0  3G12G13G 9
  20740950.482    20740954.416     8537006.290 8 -23152569.099 8
  20873798.037    20873801.964    34702358.015 9 -46864317.813 9
  21900664.823    21900666.329    70862105.326 9-102878923.609 9
 86  6 18  2 58 47.0800000  0  3G12G13G 9
  20740185.479    20740188.586     8532986.494 8 -23155701.403 8
  20875110.025    20875113.961    34709253.076 9 -46858945.034 9
  21904565.820    21904568.617    70882606.114 9-102862948.975 8
 86  6 18  2 58 53.0800000  0  3G12G13G 9
  20739425.179    20739428.108     8528991.980 9 -23158814.022 9
  20876424.544    20876426.902    34716156.489 9 -46853565.755 9
  21908470.335    21908471.557    70903121.797 9-102846962.732 9
 86  6 18  2 58 59.0800000  0  3G12G13G 9
  20738669.193    20738672.458     8525022.617 9 -23161907.036 9
  20877739.015    20877741.207    34723068.115 9 -46848180.076 8
  21912376.967    21912377.843    70923652.298 9-102830964.940 8
 86  6 18  2 59  5.0800000  0  3G12G13G 9
  20737919.078    20737922.226     8521078.579 9 -23164980.305 9
  20879056.542    20879059.015    34729988.129 9 -46842787.848 9
  21916285.907    21916287.559    70944197.802 9-102814955.454 8
 86  6 18  2 59 11.0800000  0  3G12G13G 9
  20737173.940    20737176.448     8517159.942 9 -23168033.787 9
  20880374.663    20880377.071    34736916.545 9 -46837389.087 8
  21920199.058    21920200.699    70964758.208 9-102798934.367 8
 86  6 18  2 59 17.0800000  0  3G12G13G 9
  20736433.872    20736435.733     8513266.501 9 -23171067.636 9
  20881694.728    20881697.748    34743853.081 9 -46831983.995 9
  21924114.575    21924116.433    70985333.343 9-102782901.796 8
 86  6 18  2 59 23.0800000  0  3G12G13G 9
  20735697.923    20735700.083     8509398.403 9 -23174081.744 9
  20883015.833    20883018.504    34750797.863 9 -46826572.476 9
  21928031.996    21928034.106    71005923.303 9-102766857.673 9
 86  6 18  2 59 29.0800000  0  3G12G13G 9
  20734966.407    20734969.113     8505555.737 9 -23177076.017 8
  20884339.711    20884341.530    34757751.035 9 -46821154.418 9
  21931953.322    21931955.586    71026528.285 9-102750801.863 9
 86  6 18  2 59 35.0800000  0  3G12G13G 9
  20734239.357    20734241.778     8501738.394 9 -23180050.566 8
  20885664.699    20885666.542    34764712.364 9 -46815730.009 9
  21935877.574    21935878.899    71047147.959 9-102734734.589 8
 86  6 18  2 59 41.0800000  0  3G12G13G 9
  20733517.917    20733520.351     8497946.331 9 -23183005.427 8
  20886991.312    20886992.775    34771681.883 9 -46810299.208 9
  21939802.992    21939804.630    71067782.229 9-102718655.947 9
 86  6 18  2 59 47.0800000  0  3G12G13G 9
  20732801.658    20732801.829     8494179.772 9 -23185940.412 9
  20888319.221    20888320.531    34778659.680 9 -46804861.963 9
  21943732.602    21943734.307    71088431.377 9-102702565.702 9
 86  6 18  2 59 53.0800000  0  3G12G13G 9
  20732088.515    20732091.319     8490438.563 9 -23188855.642 7
  20889648.450    20889650.629    34785645.632 9 -46799418.370 9
  21947664.805    21947667.486    71109095.256 9-102686463.982 9
 86  6 18  2 59 59.0800000  0  3G12G13G 9
  20731381.929    20731384.132     8486722.592 9 -23191751.203 9
  20890978.454    20890981.472    34792639.587 9 -46793968.530 8
  21951598.902    21951602.297    71129773.671 9-102670350.927 9
 86  6 18  3  0  5.0800000  0  3G12G13G 9
  20730679.094    20730682.886     8483032.001 9 -23194626.990 9
  20892311.149    20892313.356    34799641.741 9 -46788512.310 9
  21955538.178    21955539.590    71150466.764 9-102654226.458 9
 86  6 18  3  0 11.0800000  0  3G12G13G 9
  20729982.326    20729983.921     8479366.773 9 -23197483.012 8
  20893646.013    20893647.458    34806652.050 9 -46783049.734 9
  21959477.264    21959480.090    71171174.439 9-102638090.614 9
 86  6 18  3  0 17.0800000  0  3G12G13G 9
  20729289.016    20729291.715     8475726.964 6 -23200319.228 5
  20894981.255    20894983.798    34813670.553 6 -46777580.766 6
  21963420.356    21963423.286    71191896.706 6-102621943.383 6
 86  6 18  3  0 23.0800000  0  3G12G13G 9
  20728601.923    20728604.041     8472112.603 8 -23203135.606 9
  20896318.856    20896320.551    34820697.184 9 -46772105.477 9
  21967366.320    21967369.928    71212633.538 9-102605784.814 8
 86  6 18  3  0 29.0800000  0  4G12G13G 9G 7
  20727918.098    20727921.167     8468523.733 9 -23205932.129 8
  20897657.483    20897659.491    34827731.935 9 -46766623.851 9
  21971316.277    21971318.378    71233384.951 9-102589614.894 7
                  26221827.553    -6948036.466 9
 86  6 18  3  0 35.0800000  0  4G12G13G 9G 7
  20727239.580    20727243.500     8464960.275 6 -23208708.847 6
  20898997.408    20898999.241    34834774.815 7 -46761135.892 8
  21975267.242    21975269.240    71254150.876 9-102573433.659 6
                  26218063.799    -6967882.762 9
 86  6 18  3  0 41.0800000  0  4G12G13G 9G 7
  20726566.565    20726569.433     8461422.256 9 -23211465.755 9
  20900339.668    20900341.470    34841825.736 9 -46755641.675 9
  21979222.281    21979223.199    71274931.256 9-102557241.147 8
                  26214285.065    -6987709.809 9
 86  6 18  3  0 47.0800000  0  4G12G13G 9G 7
  20725897.917    20725901.136     8457909.710 9 -23214202.810 9
  20901682.944    20901684.840    34848884.716 9 -46750141.159 9
  21983179.469    21983182.022    71295726.107 8-102541037.379 8
                  26210510.918    -7007513.401 9
 86  6 18  3  0 53.0800000  0  4G12G13G 9G 7
  20725234.596    20725238.496     8454422.617 9 -23216920.008 9
  20903027.315    20903029.583    34855951.804 9 -46744634.344 8
  21987139.350    21987141.695    71316535.437 9-102524822.317 8
                  26206748.408    -7027295.800 9
 86  6 18  3  0 59.0800000  0  4G12G13G 9G 7
  20724576.463    20724580.144     8450960.976 9 -23219617.412 8
  20904373.073    20904375.685    34863026.880 9 -46739121.299 9
  21991101.375    21991105.381    71337359.198 9-102508596.008 8
                  26203017.104    -7047060.992 8
 86  6 18  3  1  5.0800000  0  4G12G13G 9G 7
  20723923.318    20723925.329     8447524.815 9 -23222294.923 8
  20905721.621    20905724.012    34870110.056 9 -46733601.938 9
  21995067.864    21995069.393    71358197.442 9-102492358.419 8
  26199256.898    26199258.684    -7066814.261 9   9140966.321 9
 86  6 18  3  1 11.0800000  0  4G12G13G 9G 7
  20723274.396    20723276.988     8444114.204 9 -23224952.545 8
  20907070.928    20907072.544    34877201.281 9 -46728076.303 9
  21999035.097    21999038.244    71379050.063 9-102476109.627 9
  26195500.969    26195503.057    -7086558.192 9   9125581.407 8
 86  6 18  3  1 17.0800000  0  4G12G13G 9G 7
  20722630.622    20722632.692     8440729.076 9 -23227590.297 8
  20908421.601    20908423.094    34884300.424 9 -46722544.508 9
  22003005.981    22003008.775    71399916.981 9-102459849.688 8
  26191745.607    26191748.297    -7106295.192 9   9110201.425 9
 86  6 18  3  1 23.0800000  0  4G12G13G 9G 7
  20721990.216    20721993.735     8437369.533 9 -23230208.129 9
  20909774.128    20909777.178    34891407.530 9 -46717006.509 9
  22006979.205    22006982.677    71420798.208 9-102443578.609 9
  26187990.529    26187992.881    -7126026.424 9   9094826.441 8
 86  6 18  3  1 29.0800000  0  4G12G13G 9G 7
  20721356.241    20721359.531     8434035.497 8 -23232806.075 8
  20911127.306    20911130.423    34898522.602 9 -46711462.292 9
  22010956.385    22010958.656    71441693.747 9-102427296.367 9
  26184236.718    26184240.853    -7145750.361 9   9079457.154 8
 86  6 18  3  1 35.0800000  0  4G12G13G 9G 7
  20720727.098    20720729.018     8430726.965 9 -23235384.166 8
  20912483.386    20912485.563    34905645.652 9 -46705911.867 8
  22014934.810    22014937.821    71462603.609 9-102411002.972 9
                  26180486.206    -7165461.159 9
 86  6 18  3  1 41.0800000  0  4G12G13G 9G 7
  20720101.308    20720104.284     8427443.947 9 -23237942.350 9
  20913839.921    20913843.048    34912776.570 9 -46700355.308 9
  22018917.370    22018918.638    71483527.658 9-102394698.511 8
  26176739.000    26176746.873    -7185151.739 9   9117425.282 8
 86  6 18  3  1 47.0800000  0  4G12G13G 9G 7
  20719481.622    20719484.481     8424186.485 9 -23240480.633 9
  20915198.921    20915201.341    34919915.386 9 -46694792.591 9
  22022900.843    22022903.936    71504465.911 9-102378382.999 8
  26172997.375    26173000.695    -7204818.501 9   9102100.524 8
 86  6 18  3  1 53.0800000  0  4G12G13G 9G 7
  20718866.907    20718870.222     8420954.590 9 -23242998.992 9
  20916558.655    20916561.115    34927062.128 9 -46689223.707 9
  22026888.789    22026890.317    71525418.439 9-102362056.355 9
  26169257.582    26169261.074    -7224464.295 9   9086792.614 9
 86  6 18  3  1 59.0800000  0  4G12G13G 9G 7
  20718256.191    20718259.357     8417748.296 9 -23245497.402 9
  20917920.049    20917922.533    34934216.813 9 -46683648.626 9
  22030878.555    22030879.972    71546385.103 9-102345718.693 8
  26165522.713    26165527.236    -7244093.355 9   9071497.240 9
 86  6 18  3  2  5.0800000  0  4G12G13G 9G 7
  20717650.741    20717655.249     8414567.545 9 -23247975.909 9
  20919282.907    20919285.658    34941379.435 9 -46678067.364 9
  22034870.759    22034875.029    71567365.951 9-102329369.984 7
  26161790.016    26161792.736    -7263710.132 9   9056211.441 9
 86  6 18  3  2 11.0800000  0  4G12G13G 9G 7
  20717050.605    20717053.394     8411412.357 9 -23250434.503 9
  20920647.711    20920649.108    34948549.857 9 -46672480.021 9
  22038865.905    22038868.483    71588360.894 9-102313010.298 9
  26158058.182    26158062.675    -7283317.679 9   9040932.842 9
 86  6 18  3  2 17.0800000  0  4G12G13G 9G 7
  20716454.868    20716457.791     8408282.752 9 -23252873.152 8
  20922013.938    20922016.861    34955728.130 9 -46666886.555 9
  22042863.854    22042866.495    71609369.911 9-102296639.630 8
  26154328.316    26154331.692    -7302918.215 9   9025659.695 9
 86  6 18  3  2 23.0800000  0  4G12G13G 9G 7
  20715863.726    20715868.060     8405178.710 8 -23255291.890 9
  20923381.769    20923383.396    34962914.230 9 -46661287.001 8
  22046864.534    22046866.544    71630392.973 9-102280258.027 9
  26150600.202    26150603.764    -7322512.723 9   9010391.252 8
 86  6 18  3  2 29.0800000  0  4G12G13G 9G 7
  20715278.832    20715281.097     8402100.280 8 -23257690.660 9
  20924750.372    20924753.457    34970108.147 9 -46655681.353 9
  22050867.991    22050869.119    71651430.080 9-102263865.482 8
  26146871.971    26146876.791    -7342099.296 9   8995128.990 9
 86  6 18  3  2 35.0800000  0  4G12G13G 9G 7
  20714696.755    20714700.207     8399047.458 9 -23260069.485 9
  20926121.052    20926122.797    34977309.906 9 -46650069.600 9
  22054873.579    22054875.834    71672481.215 9-102247462.004 8
                  26143147.716    -7361671.743 8
 86  6 18  3  2 41.0800000  0  4G12G13G 9G 7
  20714120.990    20714123.859     8396020.263 9 -23262428.331 9
  20927493.196    20927495.047    34984519.422 9 -46644451.801 8
  22058882.436    22058884.113    71693546.366 8-102231047.598 8
  26139427.066    26139431.863    -7381222.912 9   9033600.584 9
 86  6 18  3  2 47.0800000  0  4G12G13G 9G 7
  20713549.959    20713553.624     8393018.736 9 -23264767.183 9
  20928866.814    20928868.848    34991736.736 9 -46638827.918 8
  22062894.060    22062895.951    71714625.490 8-102214622.303 8
  26135711.547    26135716.053    -7400750.101 9   9018384.571 9
 86  6 18  3  2 53.0800000  0  4G12G13G 9G 7
  20712983.605    20712985.279     8390042.775 9 -23267086.113 7
  20930240.867    20930243.702    34998961.820 9 -46633197.982 9
  22066907.451    22066908.821    71735718.537 9-102198186.155 9
  26131999.197    26132004.249    -7420256.381 9   9003184.376 9
 86  6 18  3  2 59.0800000  0  4G12G13G 9G 7
  20712422.672    20712424.724     8387092.465 9 -23269385.048 8
  20931617.829    20931619.281    35006194.616 9 -46627562.041 9
  22070923.878    22070925.829    71756825.521 9-102181739.174 8
  26128290.598    26128295.136    -7439746.144 9   8987997.547 9
 86  6 18  3  3  5.0800000  0  4G12G13G 9G 7
  20711866.907    20711868.978     8384167.787 9 -23271664.026 8
  20932995.366    20932998.393    35013435.122 9 -46621920.089 9
  22074942.564    22074945.425    71777946.383 9-102165281.363 9
  26124584.919    26124588.998    -7459223.819 9   8972820.146 9
 86  6 18  3  3 11.0800000  0  4G12G13G 9G 7
  20711314.989    20711315.578     8381268.805 9 -23273922.962 8
  20934375.039    20934376.505    35020683.392 9 -46616272.084 8
  22078965.552    22078967.390    71799081.124 9-102148812.754 8
  26120879.581    26120883.945    -7478692.009 8   8957650.123 9
 86  6 18  3  3 17.0800000  0  4G12G13G 9G 7
  20710768.244    20710769.298     8378395.475 8 -23276161.925 8
  20935755.997    20935757.621    35027939.358 9 -46610618.086 9
  22082988.982    22082992.165    71820229.659 9-102132333.377 8
  26117176.191    26117180.354    -7498153.131 9   8942485.618 9
 86  6 18  3  3 23.0800000  0  4G12G13G 9G 7
  20710226.898    20710228.214     8375547.776 9 -23278380.907 8
  20937137.406    20937140.452    35035202.979 9 -46604958.118 8
  22087016.299    22087018.526    71841392.061 9-102115843.194 9
  26113474.574    26113479.054    -7517607.913 9   8927326.042 9
 86  6 18  3  3 29.0800000  0  4G12G13G 9G 7
  20709689.490    20709692.114     8372725.737 9 -23280579.886 8
  20938521.576    20938522.701    35042474.190 9 -46599292.243 9
  22091046.505    22091048.305    71862568.289 9-102099342.237 9
  26109773.533    26109778.082    -7537054.096 9   8912173.166 9
 86  6 18  3  3 35.0800000  0  4G12G13G 9G 7
  20709156.599    20709158.527     8369929.395 9 -23282758.858 8
  20939907.107    20939907.850    35049753.132 9 -46593620.342 9
  22095078.149    22095080.845    71883758.307 9-102082830.535 9
                  26106081.031                     8897032.125 8
 86  6 18  3  3 41.0800000  0  4G12G13G 9G 7
  20708629.645    20708630.836     8367158.761 9 -23284917.791 8
  20941292.789    20941294.594    35057039.683 9 -46587942.510 9
  22099114.187    22099115.887    71904962.016 9-102066308.176 9
  26102382.260    26102387.590    -7592633.627 9   8881908.221 9
 86  6 18  3  3 47.0800000  0  4G12G13G 9G 7
  20708106.963    20708110.008     8364413.803 9 -23287056.727 8
  20942680.888    20942682.398    35064333.955 9 -46582258.657 9
  22103150.536    22103154.256    71926179.370 9-102049775.188 9
  26098694.056    26098698.649    -7612018.596 9   8866803.058 9
 86  6 18  3  3 53.0800000  0  4G12G13G 9G 7
  20707589.276    20707591.153     8361694.542 9 -23289175.631 9
  20944070.426    20944073.260    35071635.915 9 -46576568.822 9
  22107191.271    22107193.525    71947410.470 9-102033231.484 8
  26095008.551    26095013.803    -7631383.283 9   8851714.085 9
 86  6 18  3  3 59.0800000  0  4G12G13G 9G 7
  20707076.983    20707078.949     8359000.956 8 -23291274.515 8
  20945461.673    20945463.418    35078945.470 9 -46570873.072 9
  22111233.732    22111236.140    71968655.268 9-102016677.102 9
  26091327.798    26091331.531    -7650731.123 9   8836637.847 9
 86  6 18  3  4  5.0800000  0  4G12G13G 9G 7
  20706568.900    20706572.643     8356333.083 9 -23293353.380 9
  20946853.836    20946855.279    35086262.588 9 -46565171.417 9
  22115279.533    22115280.214    71989913.737 9-102000112.062 9
  26087647.674    26087652.210    -7670066.861 9   8821571.029 9
 86  6 18  3  4 11.0800000  0  4G12G13G 9G 7
  20706066.353    20706069.319     8353691.025 9 -23295412.120 8
  20948247.050    20948249.532    35093587.245 9 -46559463.894 9
  22119327.489    22119329.223    72011185.777 9-101983536.441 8
  26083970.495    26083974.548    -7689393.308 9   8806511.474 9
 86  6 18  3  4 17.0800000  0  4G12G13G 9G 7
  20705568.217    20705572.258     8351074.750 9 -23297450.783 8
  20949643.312    20949644.938    35100919.538 9 -46553750.414 9
  22123377.073    22123379.091    72032471.400 9-101966950.245 8
  26080294.181    26080298.746    -7708712.526 9   8791457.527 9
 86  6 18  3  4 23.0800000  0  4G12G13G 9G 7
  20705075.176    20705078.771     8348484.241 8 -23299469.368 8
  20951039.031    20951041.061    35108259.441 9 -46548031.010 8
  22127430.569    22127433.532    72053770.563 8-101950353.491 8
  26076619.138    26076623.228    -7728025.078 9   8776408.792 9
 86  6 18  3  4 29.0800000  0  4G12G13G 9G 7
  20704587.469    20704590.245     8345919.418 9 -23301467.930 9
  20952437.584    20952439.306    35115606.833 9 -46542305.766 9
  22131486.938    22131489.036    72075083.224 9-101933746.237 8
  26072945.553    26072949.799    -7747328.110 9   8761367.460 9
 86  6 18  3  4 35.0800000  0  4G12G13G 9G 7
  20704103.835    20704107.095     8343380.401 9 -23303446.388 9
  20953837.437    20953838.368    35122961.757 9 -46536574.667 9
  22135544.523    22135547.474    72096409.474 9-101917128.396 8
                  26069279.982                     8746338.846 8
 86  6 18  3  4 41.0800000  0  4G12G13G 9G 7
  20703625.278    20703629.256     8340867.167 9 -23305404.754 8
  20955238.182    20955240.355    35130324.156 9 -46530837.732 9
  22139605.700    22139607.975    72117749.193 9-101900500.060 8
  26065610.475    26065612.993    -7802817.973 9   8731327.839 9
 86  6 18  3  4 47.0800000  0  4G12G13G 9G 7
  20703152.020    20703155.771     8338379.694 8 -23307343.051 8
  20956640.692    20956643.213    35137694.144 9 -46525094.887 9
  22143669.139    22143669.857    72139102.400 9-101883861.192 8
  26061948.266    26061952.331    -7822057.965 9   8716335.638 9
 86  6 18  3  4 53.0800000  0  4G12G13G 9G 7
  20702683.693    20702687.860     8335917.975 9 -23309261.275 8
  20958044.283    20958046.268    35145071.668 9 -46519346.158 9
  22147735.773    22147735.830    72160469.020 9-101867211.870 8
  26058290.981    26058296.020    -7841277.225 9   8701359.593 8
 86  6 18  3  4 59.0800000  0  4G12G13G 9G 7
  20702220.529    20702224.796     8333482.021 8 -23311159.423 9
  20959449.496    20959451.243    35152456.594 9 -46513591.678 8
  22151803.494    22151804.261    72181849.056 9-101850552.093 7
  26054636.414    26054641.279    -7860480.586 9   8686395.936 9
 86  6 18  3  5  5.0800000  0  4G12G13G 9G 7
  20701760.750    20701765.412     8331071.840 9 -23313037.487 8
  20960856.248    20960858.144    35159848.946 9 -46507831.413 9
  22155874.778    22155876.468    72203242.430 9-101833881.926 9
  26050985.022    26050989.401    -7879671.989 9   8671441.597 9
 86  6 18  3  5 11.0800000  0  4G12G13G 9G 7
  20701306.969    20701312.477     8328687.444 9 -23314895.453 9
  20962264.024    20962266.424    35167248.710 9 -46502065.354 9
  22159948.357    22159949.889    72224649.163 9-101817201.373 7
  26047334.461    26047338.298    -7898853.994 9   8656494.587 9
 86  6 18  3  5 17.0800000  0  4G12G13G 9G 7
  20700858.931    20700863.491     8326328.924 8 -23316733.273 8
  20963673.992    20963676.265    35174655.866 9 -46496293.545 9
  22164024.060    22164025.266    72246069.206 9-101800510.441 8
  26043685.733    26043689.825    -7918028.585 9   8641553.347 9
 86  6 18  3  5 23.0800000  0  4G12G13G 9G 7
  20700414.480    20700418.733     8323996.249 9 -23318550.937 9
  20965084.766    20965087.119    35182070.372 9 -46490516.010 8
  22168103.532    22168105.972    72267502.506 9-101783809.164 8
  26040038.605    26040043.157    -7937196.113 8   8626617.617 8
 86  6 18  3  5 29.0800000  0  4G12G13G 9G 7
  20699976.716    20699980.211     8321689.406 9 -23320348.475 9
  20966497.451    20966499.765    35189492.260 9 -46484732.719 9
  22172184.679    22172185.645    72288949.203 9-101767097.451 8
  26036393.654    26036396.344    -7956353.465 9   8611689.808 9
 86  6 18  3  5 35.0800000  0  4G12G13G 9G 7
  20699541.803    20699545.398     8319408.366 9 -23322125.910 9
  20967911.890    20967912.326    35196921.556 9 -46478943.652 9
  22176268.834    22176268.222    72310409.113 9-101750375.432 7
                  26032754.826                     8596775.608 8
 86  6 18  3  5 41.0800000  0  4G12G13G 9G 7
  20699112.822    20699116.555     8317153.119 9 -23323883.253 8
  20969325.925    20969327.406    35204358.317 9 -46473148.772 9
  22180353.825    22180354.281    72331882.139 9-101733643.220 8
  26029114.942    26029116.231    -8011696.829 9   8581879.663 8
 86  6 18  3  5 47.0800000  0  4G12G13G 9G 7
  20698688.214    20698692.137     8314923.725 8 -23325620.440 8
  20970743.642    20970745.447    35211802.468 9 -46467348.139 8
  22184442.433    22184442.628    72353368.373 9-101716900.694 8
  26025480.220    26025483.469    -8030789.142 9   8567002.543 8
 86  6 18  3  5 53.0800000  0  4G12G13G 9G 7
  20698268.779    20698272.982     8312720.188 8 -23327337.472 9
  20972161.562    20972162.965    35219253.917 9 -46461541.809 9
  22188533.697    22188534.016    72374867.854 8-101700147.850 8
  26021851.210    26021854.571    -8049861.049 9   8552141.319 8
 86  6 18  3  5 59.0800000  0  4G12G13G 9G 7
  20697854.790    20697858.559     8310542.463 9 -23329034.405 9
  20973582.000    20973581.943    35226712.665 9 -46455729.799 9
  22192627.602    22192629.677    72396380.543 8-101683384.714 8
  26018225.617    26018228.794    -8068917.042 9   8537292.505 8
 86  6 18  3  6  5.0800000  0  4G12G13G 9G 7
  20697444.921    20697448.911     8308390.629 9 -23330711.159 8
  20975001.851    20975003.069    35234178.776 9 -46449912.046 9
  22196724.216    22196725.449    72417906.456 9-101666611.274 8
  26014600.928    26014603.646    -8087961.218 9   8522452.873 9
 86  6 18  3  6 11.0800000  0  4G12G13G 9G 7
  20697041.415    20697043.740     8306264.652 9 -23332367.768 8
  20976424.134    20976426.133    35241652.216 9 -46444088.586 8
  22200823.659    22200824.236    72439445.394 9-101649827.677 8
  26010979.301    26010981.589    -8106995.911 9   8507620.651 9
 86  6 18  3  6 17.0800000  0  4G12G13G 9G 7
  20696640.765    20696644.228     8304164.577 9 -23334004.195 8
  20977847.242    20977848.765    35249132.989 9 -46438259.419 8
  22204924.833    22204925.584    72460997.378 9-101633033.946 7
  26007358.791    26007360.449    -8126023.217 9   8492794.182 9
 86  6 18  3  6 23.0800000  0  4G12G13G 9G 7
  20696245.921    20696250.024     8302090.324 8 -23335620.492 8
  20979272.559    20979274.632    35256621.079 9 -46432424.536 8
  22209028.035    22209028.047    72482562.418 9-101616230.012 8
  26003738.679    26003741.767    -8145043.164 9   8477973.442 9
 86  6 18  3  6 29.0800000  0  4G12G13G 9G 7
  20695856.429    20695859.616     8300042.060 9 -23337216.547 8
  20980698.664    20980700.480    35264116.404 9 -46426584.020 9
  22213132.999    22213133.994    72504140.539 9-101599415.893 8
                  26000124.662                     8463161.430 9
 86  6 18  3  6 35.0800000  0  4G12G13G 9G 7
  20695471.013    20695474.960     8298019.718 9 -23338792.382 8
  20982126.499    20982128.388    35271618.967 9 -46420737.871 8
  22217242.612    22217241.701    72525731.553 9-101582591.730 9
  25996532.368    25996510.332    -8200277.292 9   8448363.579 9
 86  6 18  3  6 41.0800000  0  4G12G13G 9G 7
  20695092.212    20695095.057     8296023.236 8 -23340348.089 8
  20983555.529    20983556.774    35279128.761 9 -46414886.091 9
  22221353.198    22221354.786    72547335.522 9-101565757.457 7
  25992898.464    25992900.840    -8219243.923 9   8433584.538 9
 86  6 18  3  6 47.0800000  0  4G12G13G 9G 7
  20694717.001    20694720.526     8294052.693 8 -23341883.576 8
  20984985.548    20984987.445    35286645.786 9 -46409028.669 9
  22225466.740    22225467.598    72568952.510 9-101548913.056 7
  25989293.465    25989295.123    -8238186.244 9   8418824.300 8
 86  6 18  3  6 53.0800000  0  4G12G13G 9G 7
  20694347.921    20694350.458     8292108.054 9 -23343398.877 9
  20986417.454    20986419.335    35294169.941 9 -46403165.690 9
  22229582.814    22229584.235    72590582.401 9-101532058.603 9
  25985693.943    25985696.136    -8257108.164 9   8404079.943 9
 86  6 18  3  6 59.0800000  0  4G12G13G 9G 7
  20693981.938    20693985.318     8290189.353 8 -23344893.976 8
  20987849.797    20987851.092    35301701.204 9 -46397297.174 9
  22233701.935    22233704.384    72612225.270 9-101515194.028 9
  25982095.567    25982097.774    -8276014.329 9   8389347.865 9
 86  6 18  3  7  5.0800000  0  4G12G13G 9G 7
  20693621.084    20693625.288     8288296.584 8 -23346368.864 9
  20989285.002    20989286.819    35309239.633 9 -46391423.078 9
  22237822.595    22237824.384    72633880.983 9-101498319.459 8
  25978499.883    25978502.358    -8294908.561 9   8374625.086 9
 86  6 18  3  7 11.0800000  0  4G12G13G 9G 7
  20693267.001    20693270.161     8286429.737 9 -23347823.549 8
  20990720.106    20990722.905    35316785.236 9 -46385543.387 9
  22241944.841    22241947.441    72655549.559 9-101481434.869 7
  25974907.133    25974909.088    -8313793.268 9   8359909.746 8
 86  6 18  3  7 17.0800000  0  4G12G13G 9G 7
  20692916.070    20692918.993     8284588.866 8 -23349257.996 8
  20992157.716    20992160.716    35324337.909 9 -46379658.193 9
  22246070.689    22246072.868    72677230.927 9-101464540.316 8
  25971314.324    25971316.855    -8332670.429 9   8345200.260 9
 86  6 18  3  7 23.0800000  0  4G12G13G 9G 7
  20692571.006    20692575.124     8282773.878 8 -23350672.281 9
  20993595.873    20993598.896    35331897.733 9 -46373767.417 8
  22250199.674    22250201.080    72698925.041 9-101447635.799 8
  25967723.147    25967725.736    -8351539.796 9   8330496.861 8
 86  6 18  3  7 29.0800000  0  4G12G13G 9G 7
  20692230.026    20692234.355     8280984.783 9 -23352066.389 9
  20995036.553    20995038.792    35339464.765 9 -46367871.025 9
  22254330.178    22254332.219    72720631.905 9-101430721.360 9
                  25964137.651                     8315802.823 8
 86  6 18  3  7 35.0800000  0  4G12G13G 9G 7
  20691895.068    20691899.003     8279221.643 8 -23353440.268 8
  20996477.522    20996480.338    35347038.959 9 -46361969.061 9
  22258463.840    22258464.931    72742351.486 9-101413797.001 8
  25960552.182    25960552.239    -8406623.620 9   8301123.663 9
 86  6 18  3  7 41.0800000  0  4G12G13G 9G 7
  20691563.626    20691568.919     8277484.381 9 -23354793.981 9
  20997920.765    20997922.934    35354620.230 9 -46356061.572 8
  22262599.362    22262601.500    72764083.771 9-101396862.755 9
  25956970.463    25956971.449    -8425437.296 9   8286463.884 9
 86  6 18  3  7 47.0800000  0  4G12G13G 9G 7
  20691238.653    20691242.620     8275773.075 9 -23356127.454 9
  20999364.040    20999366.840    35362208.711 9 -46350148.475 8
  22266735.851    22266739.061    72785828.788 8-101379918.598 9
  25953394.768    25953396.556    -8444226.596 9   8271822.872 9
 86  6 18  3  7 53.0800000  0  4G12G13G 9G 7
  20690917.554    20690921.752     8274087.786 9 -23357440.684 8
  21000809.925    21000812.111    35369804.219 9 -46344229.890 9
  22270876.091    22270880.117    72807586.501 8-101362964.565 9
  25949823.552    25949826.327    -8462995.283 9   8257197.534 7
 86  6 18  3  7 59.0800000  0  4G12G13G 9G 7
  20690601.991    20690606.079     8272428.457 9 -23358733.658 8
  21002256.837    21002259.484    35377406.735 9 -46338305.854 9
  22275019.511    22275023.081    72829356.798 9-101346000.697 8
  25946254.295    25946256.614    -8481748.974 9   8242584.264 9
 86  6 18  3  8  5.0800000  0  4G12G13G 9G 7
  20690291.613    20690295.564     8270795.151 9 -23360006.374 8
  21003704.025    21003706.990    35385016.268 9 -46332376.337 8
  22279166.138    22279167.652    72851139.698 9-101329027.019 9
  25942687.914    25942689.874    -8500490.771 9   8227980.274 8
 86  6 18  3  8 11.0800000  0  4G12G13G 9G 7
  20689987.264    20689989.782     8269187.797 9 -23361258.855 8
  21005154.162    21005155.779    35392632.861 9 -46326441.337 9
  22283314.417    22283314.342    72872935.160 9-101312043.527 8
  25939122.678    25939124.854    -8519222.942 9   8213383.772 8
 86  6 18  3  8 17.0800000  0  4G12G13G 9G 7
  20689686.624    20689689.420     8267606.441 9 -23362491.076 9
  21006604.472    21006606.922    35400256.495 9 -46320500.841 9
  22287462.127    22287464.133    72894743.269 9-101295050.188 9
  25935559.891    25935561.723    -8537947.307 9   8198793.357 9
 86  6 18  3  8 23.0800000  0  4G12G13G 9G 7
  20689389.835    20689392.658     8266051.130 9 -23363703.011 9
  21008057.333    21008059.396    35407887.151 9 -46314554.870 9
  22291614.661    22291616.969    72916563.904 9-101278047.094 8
  25931998.621    25931999.963    -8556663.434 9   8184209.359 9
 86  6 18  3  8 29.0800000  0  4G12G13G 9G 7
  20689099.456    20689101.954     8264521.898 9 -23364894.623 9
  21009510.232    21009512.170    35415524.808 9 -46308603.447 8
  22295769.564    22295772.478    72938396.991 9-101261034.306 9
                  25928440.863                     8169635.539 9
 86  6 18  3  8 35.0800000  0  4G12G13G 9G 7
  20688813.481    20688815.729     8263018.596 9 -23366066.017 8
  21010964.817    21010966.514    35423169.396 9 -46302646.625 8
  22299924.992    22299929.500    72960242.585 9-101244011.781 9
  25924885.893    25924885.922    -8611594.967 9   8155077.461 9
 86  6 18  3  8 41.0800000  0  4G12G13G 9G 7
  20688531.721    20688533.581     8261541.232 9 -23367217.220 8
  21012421.316    21012422.755    35430820.905 9 -46296684.415 9
  22304085.415    22304088.791    72982100.652 9-101226979.535 8
  25921334.125    25921335.612    -8630252.649 9   8140538.933 9
 86  6 18  3  8 47.0800000  0  4G12G13G 9G 7
  20688255.619    20688257.485     8260089.882 9 -23368348.134 8
  21013877.841    21013880.698    35438479.329 9 -46290716.804 9
  22308248.436    22308250.466    73003971.115 9-101209937.627 9
  25917788.448    25917789.994    -8648886.358 9   8126019.169 9
 86  6 18  3  8 53.0800000  0  4G12G13G 9G 7
  20687983.940    20687987.530     8258664.594 9 -23369458.761 8
  21015336.949    21015338.730    35446144.742 9 -46284743.757 9
  22312414.188    22312414.224    73025854.047 9-101192885.985 9
  25914246.611    25914247.954    -8667500.604 9   8111514.944 9
 86  6 18  3  8 59.0800000  0  4G12G13G 9G 7
  20687717.413    20687719.631     8257265.351 9 -23370549.086 9
  21016796.847    21016799.193    35453817.071 9 -46278765.313 9
  22316579.686    22316580.538    73047749.375 9-101175824.683 8
  25910706.886    25910708.718    -8686099.029 9   8097022.671 9
 86  6 18  3  9  5.0800000  0  4G12G13G 9G 7
  20687456.520    20687458.367     8255892.091 9 -23371619.143 8
  21018257.499    21018260.786    35461496.292 9 -46272781.505 9
  22320746.452    22320748.973    73069657.023 8-101158753.788 8
  25907170.099    25907172.689    -8704685.584 9   8082539.642 8
 86  6 18  3  9 11.0800000  0  4G12G13G 9G 7
  20687198.963    20687202.055     8254544.881 8 -23372668.917 9
  21019720.057    21019722.821    35469182.436 9 -46266792.299 9
  22324918.009    22324919.941    73091576.985 9-101141673.300 8
  25903634.698    25903637.232    -8723262.440 9   8068064.170 9
 86  6 18  3  9 17.0800000  0  4G12G13G 9G 7
  20686947.791    20686950.252     8253223.688 9 -23373698.419 8
  21021184.508    21021187.070    35476875.372 9 -46260797.796 8
  22329091.778    22329094.798    73113509.219 9-101124583.259 9
  25900101.746    25900103.116    -8741831.361 9   8053594.884 9
 86  6 18  3  9 23.0800000  0  4G12G13G 9G 7
  20686702.021    20686703.811     8251928.501 9 -23374707.650 9
  21022649.406    21022650.878    35484575.199 9 -46254797.935 9
  22333267.858    22333269.756    73135453.752 9-101107483.627 9
  25896569.319    25896571.380    -8760391.282 8   8039132.601 9
 86  6 18  3  9 29.0800000  0  4G12G13G 9G 7
  20686460.584    20686462.466     8250659.402 9 -23375696.566 9
  21024116.120    21024118.509    35492281.871 9 -46248792.735 8
  22337447.765    22337450.140    73157410.531 9-101090374.434 8
                  25893043.078                     8024681.167 9
 86  6 18  3  9 35.0800000  0  4G12G13G 9G 7
  20686223.975    20686226.138     8249416.371 9 -23376665.164 9
  21025583.999    21025586.855    35499995.410 9 -46242782.179 8
  22341629.184    22341630.692    73179379.528 9-101073255.739 9
  25889515.902    25889517.809    -8815161.640 9   8010246.231 9
 86  6 18  3  9 41.0800000  0  4G12G13G 9G 7
  20685992.477    20685995.007     8248199.408 9 -23377613.446 8
  21027053.696    21027054.690    35507715.812 9 -46236766.280 9
  22345811.071    22345812.942    73201360.710 9-101056127.545 9
  25885995.559    25885996.228    -8833660.994 9   7995831.146 9
 86  6 18  3  9 47.0800000  0  4G12G13G 9G 7
  20685765.365    20685768.119     8247008.525 8 -23378541.412 8
  21028524.054    21028526.351    35515443.063 9 -46230745.047 9
  22349993.584    22349998.256    73223354.127 8-101038989.830 8
  25882479.549    25882481.836    -8852135.810 9   7981434.798 9
 86  6 18  3  9 53.0800000  0  4G12G13G 9G 7
  20685544.501    20685546.097     8245843.728 9 -23379449.033 9
  21029995.578    21029996.964    35523177.067 9 -46224718.545 8
  22354180.829    22354185.318    73245359.643 9-101021842.704 8
  25878967.157    25878969.331    -8870591.406 9   7967053.821 8
 86  6 18  3  9 59.0800000  0  4G12G13G 9G 7
  20685328.244    20685330.036     8244705.023 9 -23380336.340 9
  21031468.533    21031470.603    35530917.897 9 -46218686.724 9
  22358371.305    22358374.649    73267377.276 9-101004686.105 9
  25875458.384    25875460.745    -8889031.802 9   7952684.687 9
 86  6 18  3 10  5.0800000  0  4G12G13G 9G 7
  20685116.039    20685118.994     8243592.442 9 -23381203.289 9
  21032944.218    21032944.457    35538665.500 9 -46212649.624 9
  22362565.393    22362565.988    73289407.015 9-100987520.055 8
  25871951.103    25871954.653    -8907460.352 9   7938324.773 9
 86  6 18  3 10 11.0800000  0  4G12G13G 9G 7
  20684908.625    20684911.529     8242505.916 9 -23382049.933 8
  21034418.510    21034420.717    35546419.797 9 -46206607.315 8
  22366759.607    22366761.462    73311448.850 8-100970344.598 9
  25868446.480    25868449.243    -8925879.338 9   7923972.325 8
 86  6 18  3 10 17.0800000  0  4G12G13G 9G 7
  20684707.025    20684710.577     8241445.446 9 -23382876.269 8
  21035895.892    21035898.034    35554180.784 9 -46200559.793 7
  22370956.077    22370958.410    73333502.671 9-100953159.794 9
  25864943.532    25864945.322    -8944290.027 9   7909626.335 9
 86  6 18  3 10 23.0800000  0  4G12G13G 9G 7
  20684509.860    20684513.157     8240411.062 9 -23383682.294 9
  21037373.723    21037375.850    35561948.545 9 -46194506.986 9
  22375155.602    22375158.370    73355568.475 9-100935965.658 9
  25861441.301    25861443.462    -8962691.326 9   7895287.662 9
 86  6 18  3 10 29.0800000  0  4G12G13G 9G 7
  20684318.759    20684322.313     8239402.739 8 -23384467.989 8
  21038852.866    21038855.865    35569722.991 9 -46188448.985 8
  22379354.629    22379360.367    73377646.306 9-100918762.176 8
                  25857945.206                     7880960.590 8
 86  6 18  3 10 35.0800000  0  4G12G13G 9G 7
  20684131.485    20684134.755     8238420.509 9 -23385233.357 8
  21040333.294    21040335.034    35577504.177 9 -46182385.715 9
  22383556.577    22383562.410    73399736.150 9-100901549.345 9
  25854446.797    25854449.313    -9017301.309 9   7866650.554 9
 86  6 18  3 10 41.0800000  0  4G12G13G 9G 7
  20683949.897    20683952.715     8237464.304 9 -23385978.452 9
  21041815.847    21041817.967    35585292.116 9 -46176317.182 8
  22387763.473    22387768.036    73421837.923 9-100884327.206 9
  25850958.189    25850960.277    -9035639.838 9   7852360.776 8
 86  6 18  3 10 47.0800000  0  4G12G13G 9G 7
  20683772.647    20683775.774     8236534.194 9 -23386703.215 9
  21043298.081    21043301.021    35593086.785 9 -46170243.421 9
  22391973.622    22391975.493    73443951.567 9-100867095.783 8
  25847472.112    25847475.075    -9053954.415 9   7838089.687 8
 86  6 18  3 10 53.0800000  0  4G12G13G 9G 7
  20683600.597    20683603.424     8235630.181 9 -23387407.633 9
  21044783.186    21044786.246    35600888.087 9 -46164164.481 9
  22396184.321    22396185.872    73466077.100 9-100849855.083 9
  25843991.431    25843993.730    -9072249.317 9   7823833.931 9
 86  6 18  3 10 59.0800000  0  4G12G13G 9G 7
  20683433.556    20683435.902     8234752.304 7 -23388091.690 9
  21046269.349    21046271.539    35608696.002 9 -46158080.393 8
  22400396.833    22400397.918    73488214.460 9-100832605.179 8
  25840512.807    25840515.369    -9090529.400 9   7809589.708 9
 86  6 18  3 11  5.0800000  0  4G12G13G 9G 7
  20683271.154    20683273.957     8233900.659 9 -23388755.319 8
  21047756.367    21047759.065    35616510.549 9 -46151991.125 8
  22404611.419    22404613.349    73510363.689 8-100815346.031 9
  25837037.034    25837038.350    -9108797.678 9   7795354.690 9
 86  6 18  3 11 11.0800000  0  4G12G13G 9G 7
  20683115.127    20683116.795     8233075.172 8 -23389398.541 9
  21049245.197    21049247.177    35624331.659 9 -46145896.759 9
  22408826.432    22408831.670    73532524.711 8-100798077.716 8
  25833561.660    25833564.479    -9127056.048 9   7781127.392 9
 86  6 18  3 11 17.0800000  0  4G12G13G 9G 7
  20682961.720    20682964.937     8232275.821 8 -23390021.421 8
  21050735.046    21050736.672    35632159.350 9 -46139797.255 8
  22413044.289    22413051.038    73554697.482 8-100780800.261 8
  25830088.833    25830092.327    -9145305.874 9   7766906.747 9
 86  6 18  3 11 23.0800000  0  4G12G13G 9G 7
  20682814.785    20682817.184     8231502.612 9 -23390623.913 9
  21052226.000    21052227.627    35639993.707 9 -46133692.561 8
  22417267.384    22417273.108    73576882.070 8-100763513.609 9
  25826617.868    25826621.546    -9163545.763 9   7752693.863 9
 86  6 18  3 11 29.0800000  0  4G12G13G 9G 7
  20682671.947    20682675.466     8230755.509 9 -23391206.082 8
  21053717.601    21053719.374    35647834.641 9 -46127582.736 9
  22421492.754    22421497.702    73599078.398 9-100746217.770 9
                  25823152.599                     7738493.220 9
 86  6 18  3 11 35.0800000  0  4G12G13G 9G 7
  20682535.543    20682537.863     8230034.595 9 -23391767.825 8
  21055211.456    21055212.452    35655682.046 9 -46121467.879 9
  22425719.626    22425721.953    73621286.351 8-100728912.861 9
  25819686.387    25819689.992    -9217994.753 9   7724310.394 9
 86  6 18  3 11 41.0800000  0  4G12G13G 9G 7
  20682403.453    20682405.080     8229339.808 9 -23392309.217 8
  21056705.259    21056707.641    35663535.986 9 -46115347.922 9
  22429947.478    22429949.107    73643505.974 9-100711598.845 8
  25816227.952    25816231.572    -9236169.867 9   7710147.960 8
 86  6 18  3 11 47.0800000  0  4G12G13G 9G 7
  20682274.797    20682277.949     8228671.158 8 -23392830.249 8
  21058200.717    21058202.436    35671396.515 9 -46109222.830 9
  22434176.032    22434179.122    73665737.274 8-100694275.758 8
  25812773.840    25812776.390    -9254321.627 9   7696004.120 9
 86  6 18  3 11 53.0800000  0  4G12G13G 9G 7
  20682154.661    20682155.327     8228028.598 8 -23393330.940 8
  21059699.021    21059700.265    35679263.580 9 -46103092.650 9
  22438407.438    22438412.289    73687980.291 9-100676943.542 8
  25809323.367    25809327.159    -9272453.464 9   7681875.429 9
 86  6 18  3 11 59.0800000  0  4G12G13G 9G 7
  20682036.966    20682038.658     8227412.218 8 -23393811.233 9
  21061196.133    21061198.827    35687137.196 9 -46096957.362 9
  22442643.366    22442648.765    73710234.875 9-100659602.311 9
  25805876.225    25805879.244    -9290570.318 9   7667758.403 9
 86  6 18  3 12  5.0800000  0  4G12G13G 9G 7
  20681925.387    20681926.069     8226822.071 9 -23394271.084 8
  21062696.108    21062697.690    35695017.298 9 -46090817.020 8
  22446881.851    22446886.119    73732501.004 9-100642252.096 9
  25802431.073    25802433.650    -9308675.171 9   7653650.737 9
 86  6 18  3 12 11.0800000  0  4G12G13G 9G 7
  20681816.167    20681818.754     8226258.124 9 -23394710.513 7
  21064196.971    21064198.942    35702903.931 9 -46084671.590 8
  22451120.857    22451125.721    73754778.640 9-100624892.904 9
  25798987.123    25798989.456    -9326770.332 9   7639550.621 8
 86  6 18  3 12 17.0800000  0  4G12G13G 9G 7
  20681714.400    20681716.338     8225720.333 9 -23395129.577 8
  21065699.143    21065699.295    35710797.142 9 -46078521.028 9
  22455363.755    22455367.611    73777067.802 9-100607524.738 9
  25795545.218    25795548.206    -9344856.641 9   7625457.398 9
 86  6 18  3 12 23.0800000  0  4G12G13G 9G 7
  20681617.433    20681619.384     8225208.648 9 -23395528.289 9
  21067202.548    21067202.985    35718696.838 9 -46072365.415 9
  22459606.933    22459611.260    73799368.564 9-100590147.515 9
  25792105.663    25792108.623    -9362932.403 9   7611372.397 9
 86  6 18  3 12 29.0800000  0  4G12G13G 9G 7
  20681525.012    20681526.514     8224723.171 9 -23395906.573 8
  21068706.079    21068708.140    35726603.021 9 -46066204.747 8
  22463851.007    22463856.013    73821680.727 8-100572761.421 8
                  25788671.969                     7597300.477 9
 86  6 18  3 12 35.0800000  0  4G12G13G 9G 7
  20681436.491    20681439.659     8224263.830 8 -23396264.505 9
  21070212.735    21070214.131    35734515.697 9 -46060039.020 9
  22468098.185    22468103.655    73844004.336 9-100555366.413 9
  25785237.354    25785237.495    -9417216.620 9   7583247.070 8
 86  6 18  3 12 41.0800000  0  4G12G13G 9G 7
  20681354.806    20681356.478     8223830.638 8 -23396602.063 8
  21071718.461    21071721.227    35742434.893 9 -46053868.216 9
  22472348.187    22472352.359    73866339.356 9-100537962.490 8
  25781811.013    25781812.875    -9435225.343 9   7569214.280 9
 86  6 18  3 12 47.0800000  0  4G12G13G 9G 7
  20681277.250    20681280.015     8223423.635 9 -23396919.189 8
  21073227.145    21073229.543    35750360.432 9 -46047692.467 9
  22476602.167    22476606.133    73888685.865 9-100520549.624 8
  25778387.627    25778390.574    -9453210.369 9   7555199.990 9
 86  6 18  3 12 53.0800000  0  4G12G13G 9G 7
  20681205.663    20681208.038     8223042.752 9 -23397215.983 8
  21074736.402    21074738.513    35758292.270 9 -46041511.816 9
  22480858.294    22480861.973    73911043.630 9-100503127.980 9
  25774968.686    25774971.250    -9471176.221 9   7541200.623 9
 86  6 18  3 12 59.0800000  0  4G12G13G 9G 7
  20681137.502    20681140.378     8222688.087 8 -23397492.346 8
  21076246.944    21076249.376    35766230.424 9 -46035326.229 9
  22485115.565    22485118.441    73933412.610 9-100485697.613 9
  25771552.798    25771554.671    -9489127.206 9   7527212.860 9
 86  6 18  3 13  5.0800000  0  4G12G13G 9G 7
  20681075.290    20681078.863     8222359.659 9 -23397748.257 9
  21077758.888    21077761.137    35774174.924 9 -46029135.710 8
  22489373.983    22489377.395    73955792.948 9-100468258.386 9
  25768138.997    25768142.448    -9507066.146 9   7513234.471 9
 86  6 18  3 13 11.0800000  0  4G12G13G 9G 7
  20681017.902    20681021.147     8222057.394 8 -23397983.790 9
  21079271.878    21079274.508    35782125.770 9 -46022940.240 9
  22493634.154    22493639.182    73978184.870 9-100450810.158 8
  25764727.828    25764729.704    -9524995.310 9   7499263.690 9
 86  6 18  3 13 17.0800000  0  4G12G13G 9G 7
  20680964.741    20680967.386     8221781.283 9 -23398198.946 8
  21080786.643    21080788.405    35790082.874 8 -46016739.895 9
  22497897.734    22497901.965    74000587.760 9-100433353.371 9
  25761317.276    25761320.826    -9542915.584 9   7485299.861 8
 86  6 18  3 13 23.0800000  0  4G12G13G 9G 7
  20680916.732    20680921.272     8221531.367 9 -23398393.695 8
  21082301.000    21082303.642    35798046.321 9 -46010534.611 8
  22502162.172    22502166.813    74023001.751 8-100415887.929 8
  25757909.128    25757911.403    -9560824.642 9   7471344.746 9
 86  6 18  3 13 29.0800000  0  4G12G13G 9G 7
  20680875.149    20680878.454     8221307.721 8 -23398567.958 9
  21083818.239    21083820.124    35806016.144 9 -46004324.361 9
  22506429.173    22506433.339    74045427.269 8-100398413.514 8
                  25754507.304                     7457403.581 8
 86  6 18  3 13 35.0800000  0  4G12G13G 9G 7
  20680837.765    20680841.173     8221110.219 9 -23398721.846 8
  21085335.254    21085337.637    35813992.181 9 -45998109.260 8
  22510699.755    22510701.411    74067863.779 9-100380930.502 7
  25751105.536    25751107.383    -9614936.080 9   7443481.454 9
 86  6 18  3 13 41.0800000  0  4G12G13G 9G 7
  20680805.983    20680807.710     8220938.979 9 -23398855.288 8
  21086854.291    21086856.426    35821974.470 9 -45991889.296 9
  22514971.977    22514972.784    74090311.370 9-100363438.855 8
  25747709.478    25747713.010    -9632776.116 9   7429580.129 9
 86  6 18  3 13 47.0800000  0  4G12G13G 9G 7
  20680777.969    20680780.091     8220793.956 9 -23398968.293 8
  21088374.156    21088378.187    35829963.073 8 -45985664.415 9
  22519245.538    22519247.363    74112770.168 9-100345938.476 8
  25744319.460    25744322.196    -9650591.970 9   7415697.265 8
 86  6 18  3 13 53.0800000  0  4G12G13G 9G 7
  20680754.743    20680757.713     8220675.190 8 -23399060.838 8
  21089895.432    21089899.134    35837958.084 9 -45979434.539 9
  22523521.513    22523524.695    74135240.159 9-100328429.393 8
  25740932.889    25740934.952    -9668389.218 9   7401829.297 9
 86  6 18  3 13 59.0800000  0  4G12G13G 9G 7
  20680737.478    20680740.383     8220582.498 9 -23399133.068 9
  21091418.903    21091421.750    35845959.292 9 -45973199.828 9
  22527798.301    22527802.967    74157721.094 9-100310911.811 9
  25737549.068    25737550.941    -9686171.895 9   7387972.672 9
 86  6 18  3 14  5.0800000  0  4G12G13G 9G 7
  20680724.445    20680726.764     8220516.084 9 -23399184.819 8
  21092943.240    21092944.787    35853966.822 9 -45966960.186 8
  22532078.616    22532083.659    74180213.088 9-100293385.606 9
  25734167.717    25734169.451    -9703942.441 9   7374125.506 9
 86  6 18  3 14 11.0800000  0  4G12G13G 9G 7
  20680717.396    20680719.095     8220475.803 8 -23399216.208 8
  21094467.098    21094470.112    35861980.451 9 -45960715.789 9
  22536360.292    22536365.672    74202716.010 9-100275850.887 9
  25730787.146    25730789.905    -9721703.207 9   7360285.955 9
 86  6 18  3 14 17.0800000  0  4G12G13G 9G 7
  20680712.981    20680716.284     8220461.887 8 -23399227.036 8
  21095993.717    21095997.094    35870000.443 9 -45954466.453 8
  22540645.590    22540649.776    74225230.113 9-100258307.442 8
  25727410.263    25727411.392    -9739454.474 8   7346453.803 9
 86  6 18  3 14 23.0800000  0  4G12G13G 9G 7
  20680715.140    20680719.405     8220474.143 9 -23399217.495 8
  21097520.915    21097523.938    35878026.580 9 -45948212.312 9
  22544932.300    22544933.714    74247755.136 9-100240755.470 8
  25724034.080    25724036.513    -9757193.840 9   7332630.936 9
 86  6 18  3 14 29.0800000  0  4G12G13G 9G 7
  20680723.112    20680726.341     8220512.491 9 -23399187.599 8
  21099049.524    21099051.668    35886058.803 9 -45941953.442 9
  22549221.376    22549222.151    74270290.953 9-100223195.081 8
                  25720664.723                     7318822.443 8
 86  6 18  3 14 35.0800000  0  4G12G13G 9G 7
  20680734.993    20680738.388     8220577.210 9 -23399137.169 8
  21100579.269    21100581.194    35894097.310 9 -45935689.665 9
  22553511.882    22553512.029    74292837.824 8-100205626.049 8
  25717295.282    25717296.263    -9811141.892 9   7305033.642 8
 86  6 18  3 14 41.0800000  0  4G12G13G 9G 7
  20680753.063    20680755.395     8220668.257 9 -23399066.231 9
  21102109.323    21102111.786    35902142.025 9 -45929421.055 9
  22557803.247    22557804.747    74315395.586 8-100188048.560 8
  25713931.503    25713934.466    -9828810.751 9   7291265.721 8
 86  6 18  3 14 47.0800000  0  4G12G13G 9G 7
  20680775.688    20680778.408     8220785.554 9 -23398974.830 8
  21103642.132    21103643.777    35910192.932 9 -45923147.606 9
  22562096.921    22562101.825    74337964.248 8-100170462.615 8
  25710574.439    25710576.872    -9846456.534 9   7277516.156 9
 86  6 18  3 14 53.0800000  0  4G12G13G 9G 7
  20680803.325    20680805.391     8220929.026 9 -23398863.028 9
  21105175.868    21105177.271    35918249.968 9 -45916869.402 8
  22566394.550    22566399.258    74360543.700 9-100152868.262 8
  25707220.724    25707222.484    -9864083.063 9   7263781.210 9
 86  6 18  3 14 59.0800000  0  4G12G13G 9G 7
  20680835.504    20680837.298     8221098.781 8 -23398730.745 9
  21106709.901    21106712.349    35926313.106 9 -45910586.432 9
  22570693.747    22570697.344    74383133.943 9-100135265.492 8
  25703869.410    25703871.472    -9881694.838 8   7250057.758 8
 86  6 18  3 15  5.0800000  0  4G12G13G 9G 7
  20680872.753    20680874.711     8221294.770 9 -23398578.027 8
  21108244.798    21108248.512    35934382.340 9 -45904298.721 9
  22574994.237    22574999.197    74405735.006 9-100117654.294 8
  25700520.086    25700522.550    -9899294.366 9   7236343.855 9
 86  6 18  3 15 11.0800000  0  4G12G13G 9G 7
  20680915.186    20680917.638     8221517.021 8 -23398404.849 8
  21109781.891    21109784.567    35942457.692 9 -45898006.242 8
  22579297.609    22579300.575    74428346.796 9-100100034.699 8
  25697172.237    25697174.940    -9916883.872 9   7222637.755 9
 86  6 18  3 15 17.0800000  0  4G12G13G 9G 7
  20680961.911    20680964.420     8221765.503 9 -23398211.219 9
  21111319.749    21111322.206    35950539.108 9 -45891709.027 9
  22583602.943    22583604.488    74450969.359 8-100082406.708 8
  25693826.549    25693829.054    -9934463.851 9   7208939.081 8
 86  6 18  3 15 23.0800000  0  4G12G13G 9G 7
  20681014.483    20681016.589     8222040.239 8 -23397997.132 9
  21112858.927    21112861.746    35958626.617 9 -45885407.078 9
  22587909.402    22587910.840    74473602.644 9-100064770.381 9
                  25690486.155                     7195250.345 9
 86  6 18  3 15 29.0800000  0  4G12G13G 9G 7
  20681072.141    20681073.629     8222341.216 8 -23397762.621 8
  21114399.710    21114400.842    35966720.135 9 -45879100.427 9
  22592218.031    22592220.208    74496246.612 8-100047125.721 8
  25687161.799    25687147.146    -9988275.264 9   7181576.790 8
 86  6 18  3 15 35.0800000  0  4G12G13G 9G 7
  20681133.818    20681136.273     8222668.432 9 -23397507.641 8
  21115940.117    21115942.364    35974819.740 9 -45872789.062 9
  22596528.885    22596531.297    74518901.275 8-100029472.725 8
  25683811.173    25683812.560   -10005797.100 9   7167923.461 9
 86  6 18  3 15 41.0800000  0  4G12G13G 9G 7
  20681200.785    20681203.714     8223021.906 9 -23397232.209 8
  21117483.284    21117485.475    35982925.320 9 -45866473.015 8
  22600842.276    22600844.466    74541566.474 8-100011811.556 9
  25680481.769    25680484.331   -10023292.087 9   7154291.017 9
 86  6 18  3 15 47.0800000  0  4G12G13G 9G 7
  20681273.230    20681275.965     8223401.613 9 -23396936.335 9
  21119026.567    21119029.395    35991036.915 9 -45860152.287 8
  22605157.201    22605160.833    74564242.302 9 -99994142.067 9
  25677156.885    25677158.128   -10040763.036 9   7140676.897 8
 86  6 18  3 15 53.0800000  0  4G12G13G 9G 7
  20681349.854    20681352.967     8223807.614 9 -23396619.967 9
  21120571.553    21120574.067    35999154.540 9 -45853826.869 9
  22609475.130    22609478.472    74586928.690 9 -99976464.374 8
  25673835.892    25673836.564   -10058215.797 9   7127077.337 9
 86  6 18  3 15 59.0800000  0  4G12G13G 9G 7
  20681432.860    20681435.835     8224239.873 9 -23396283.146 9
  21122116.902    21122119.509    36007278.223 9 -45847496.735 9
  22613793.574    22613797.111    74609625.658 9 -99958778.441 8
  25670517.637    25670519.349   -10075653.788 9   7113489.308 9
 86  6 18  3 16  5.0800000  0  4G12G13G 9G 7
  20681519.344    20681522.512     8224698.388 9 -23395925.869 8
  21123664.362    21123666.913    36015407.945 9 -45841161.867 8
  22618114.448    22618117.887    74632332.987 9 -99941084.407 8
  25667201.108    25667203.283   -10093079.689 9   7099910.700 9
 86  6 18  3 16 11.0800000  0  4G12G13G 9G 7
  20681612.117    20681615.081     8225183.191 9 -23395548.089 9
  21125212.471    21125214.316    36023543.647 9 -45834822.371 9
  22622437.347    22622439.753    74655050.847 8 -99923382.152 8
  25663886.583    25663888.585   -10110495.428 9   7086339.996 9
 86  6 18  3 16 17.0800000  0  4G12G13G 9G 7
  20681709.101    20681712.383     8225694.286 9 -23395149.836 9
  21126761.982    21126764.051    36031685.282 9 -45828478.237 8
  22626761.712    22626763.207    74677779.262 8 -99905671.697 7
  25660574.221    25660576.295   -10127901.099 9   7072777.135 8
 86  6 18  3 16 23.0800000  0  4G12G13G 9G 7
  20681811.297    20681814.957     8226231.582 9 -23394731.163 9
  21128312.670    21128314.889    36039832.822 9 -45822129.505 9
  22631088.736    22631091.740    74700518.143 9 -99887953.081 9
  25657265.033    25657268.010   -10145293.357 9   7059224.732 9
 86  6 18  3 16 29.0800000  0  4G12G13G 9G 7
  20681920.308    20681921.908     8226795.128 8 -23394292.044 8
  21129863.004    21129865.681    36047986.406 9 -45815776.062 9
  22635418.608    22635421.700    74723267.479 8 -99870226.359 9
                  25653961.572                     7045688.330 8
 86  6 18  3 16 35.0800000  0  4G12G13G 9G 7
  20682031.478    20682034.097     8227384.831 8 -23393832.545 8
  21131416.133    21131418.236    36056145.910 9 -45809418.006 9
  22639750.023    22639751.993    74746027.113 9 -99852491.587 9
  25650657.638    25650659.553   -10198889.341 9   7032172.550 8
 86  6 18  3 16 41.0800000  0  4G12G13G 9G 7
  20682148.642    20682150.708     8228000.754 8 -23393352.585 9
  21132969.812    21132972.149    36064311.299 9 -45803055.360 9
  22644083.107    22644085.864    74768797.087 9 -99834748.746 8
  25647362.115    25647365.150   -10216207.619 9   7018677.792 9
 86  6 18  3 16 47.0800000  0  4G12G13G 9G 7
  20682271.108    20682273.500     8228643.053 8 -23392852.121 8
  21134525.927    21134527.254    36072482.611 9 -45796688.105 8
  22648418.004    22648421.795    74791577.371 8 -99816997.879 8
  25644070.846    25644074.236   -10233502.694 9   7005201.123 9
 86  6 18  3 16 53.0800000  0  4G12G13G 9G 7
  20682397.463    20682401.158     8229311.583 9 -23392331.175 9
  21136081.037    21136083.228    36080659.892 9 -45790316.206 8
  22652754.821    22652758.619    74814368.005 9 -99799238.931 9
  25640783.437    25640787.186   -10250779.174 9   6991738.925 9
 86  6 18  3 16 59.0800000  0  4G12G13G 9G 7
  20682530.464    20682532.725     8230006.399 8 -23391789.765 8
  21137638.362    21137640.892    36088843.041 9 -45783939.718 9
  22657093.578    22657097.126    74837169.007 9 -99781471.930 9
  25637499.178    25637502.427   -10268040.896 9   6978288.247 9
 86  6 18  3 17  5.0800000  0  4G12G13G 9G 7
  20682666.819    20682669.603     8230727.505 9 -23391227.868 9
  21139196.549    21139198.921    36097032.044 9 -45777558.682 9
  22661434.211    22661436.698    74859980.138 9 -99763697.023 8
  25634216.547    25634219.555   -10285290.437 9   6964847.056 9
 86  6 18  3 17 11.0800000  0  4G12G13G 9G 7
  20682808.815    20682811.637     8231474.845 9 -23390645.524 8
  21140756.389    21140757.989    36105226.859 9 -45771173.100 9
  22665776.485    22665779.767    74882801.549 9 -99745914.124 8
  25630936.054    25630939.860   -10302529.678 9   6951413.881 9
 86  6 18  3 17 17.0800000  0  4G12G13G 9G 7
  20682957.263    20682959.887     8232248.495 9 -23390042.694 8
  21142316.712    21142318.937    36113427.500 9 -45764783.006 9
  22670120.788    22670123.316    74905633.166 9 -99728123.279 8
  25627657.545    25627660.882   -10319758.614 9   6937988.736 8
 86  6 18  3 17 23.0800000  0  4G12G13G 9G 7
  20683108.850    20683111.062     8233048.398 8 -23389419.384 8
  21143878.869    21143880.436    36121633.937 9 -45758388.368 8
  22674468.362    22674471.599    74928474.927 9 -99710324.477 8
  25624382.170    25624385.364   -10336973.387 9   6924574.640 9
 86  6 18  3 17 29.0800000  0  4G12G13G 9G 7
  20683266.161    20683268.272     8233874.621 8 -23388775.564 8
  21145440.737    21145443.158    36129846.224 9 -45751989.188 9
  22678818.195    22678819.722    74951326.896 9 -99692517.716 9
                  25621113.239                     6911177.431 9
 86  6 18  3 17 35.0800000  0  4G12G13G 9G 7
  20683428.019    20683430.655     8234727.104 9 -23388111.302 8
  21147004.424    21147007.817    36138064.234 9 -45745585.540 9
  22683167.999    22683170.295    74974188.901 9 -99674703.164 9
  25617844.306    25617846.505   -10390390.997 9   6897801.311 9
 86  6 18  3 17 41.0800000  0  4G12G13G 9G 7
  20683595.420    20683597.580     8235605.897 8 -23387426.519 9
  21148570.199    21148572.113    36146288.046 9 -45739177.377 9
  22687519.636    22687522.825    74997060.990 9 -99656880.764 8
  25614582.311    25614585.183   -10407530.165 9   6884446.126 8
 86  6 18  3 17 47.0800000  0  4G12G13G 9G 7
  20683767.445    20683770.098     8236510.974 8 -23386721.262 9
  21150135.583    21150138.203    36154517.596 9 -45732764.734 8
  22691873.911    22691878.147    75019943.248 9 -99639050.472 7
  25611325.095    25611327.954   -10424646.809 9   6871108.870 9
 86  6 18  3 17 53.0800000  0  4G12G13G 9G 7
  20683945.505    20683947.217     8237442.374 8 -23385995.514 7
  21151703.069    21151704.353    36162752.893 9 -45726347.617 8
  22696230.253    22696233.882    75042835.502 8 -99621212.345 9
  25608071.759    25608073.180   -10441744.499 9   6857786.003 9
 86  6 18  3 17 59.0800000  0  4G12G13G 9G 7
  20684127.689    20684129.620     8238400.058 9 -23385249.271 9
  21153270.751    21153272.951    36170993.976 9 -45719925.992 9
  22700587.783    22700592.051    75065737.809 9 -99603366.391 8
  25604820.954    25604823.312   -10458827.404 9   6844474.655 8
 86  6 18  3 18  5.0800000  0  4G12G13G 9G 7
  20684313.778    20684317.367     8239384.002 8 -23384482.558 8
  21154840.395    21154842.534    36179240.767 9 -45713499.925 8
  22704948.348    22704951.883    75088650.229 9 -99585512.575 8
  25601572.753    25601574.926   -10475898.098 9   6831172.823 9
 86  6 18  3 18 11.0800000  0  4G12G13G 9G 7
  20684506.674    20684509.897     8240394.201 9 -23383695.385 8
  21156410.265    21156413.228    36187493.320 9 -45707069.372 9
  22709310.002    22709313.554    75111572.540 9 -99567651.034 8
  25598326.412    25598329.830   -10492958.262 9   6817879.184 9
 86  6 18  3 18 17.0800000  0  4G12G13G 9G 7
  20684703.156    20684707.067     8241430.680 8 -23382887.738 9
  21157982.861    21157984.251    36195751.672 9 -45700634.290 9
  22713674.971    22713676.220    75134504.768 9 -99549781.738 9
  25595081.802    25595084.390   -10510007.676 9   6804593.925 9
 86  6 18  3 18 23.0800000  0  4G12G13G 9G 7
  20684906.048    20684908.823     8242493.420 9 -23382059.633 8
  21159555.848    21159557.948    36204015.825 9 -45694194.692 9
  22718039.376    22718042.824    75157446.868 8 -99531904.783 9
                  25591841.967                     6791320.500 9
 86  6 18  3 18 29.0800000  0  4G12G13G 9G 7
  20685114.087    20685116.229     8243582.487 8 -23381211.015 8
  21161129.115    21161131.005    36212285.666 9 -45687750.658 9
  22722407.661    22722410.942    75180398.826 9 -99514020.122 8
  25588620.486    25588605.848   -10563293.069 9   6778064.410 8
 86  6 18  3 18 35.0800000  0  4G12G13G 9G 7
  20685326.631    20685328.275     8244697.782 9 -23380341.952 8
  21162703.776    21162706.061    36220561.080 9 -45681302.280 9
  22726775.799    22726781.014    75203360.696 9 -99496127.754 8
  25585370.411    25585373.718   -10580277.718 9   6764829.883 9
 86  6 18  3 18 41.0800000  0  4G12G13G 9G 7
  20685542.672    20685546.310     8245839.344 9 -23379452.418 8
  21164279.971    21164280.695    36228842.186 9 -45674849.468 9
  22731148.072    22731152.741    75226332.429 8 -99478227.735 9
  25582144.307    25582147.282   -10597235.136 9   6751616.300 9
 86  6 18  3 18 47.0800000  0  4G12G13G 9G 7
  20685765.335    20685767.808     8247007.198 9 -23378542.420 8
  21165856.386    21165858.598    36237128.980 9 -45668392.233 9
  22735520.472    22735525.299    75249313.907 8 -99460320.096 8
  25578921.845    25578924.194   -10614169.144 9   6738420.593 8
 86  6 18  3 18 53.0800000  0  4G12G13G 9G 7
  20685992.500    20685995.476     8248201.317 9 -23377611.945 9
  21167434.360    21167436.816    36245421.350 9 -45661930.642 9
  22739895.824    22739900.115    75272305.243 9 -99442404.807 9
  25575702.592    25575705.109   -10631085.446 9   6725239.057 8
 86  6 18  3 18 59.0800000  0  4G12G13G 9G 7
  20686224.214    20686228.247     8249421.661 9 -23376661.033 9
  21169013.130    21169015.780    36253719.314 9 -45655464.699 9
  22744274.197    22744276.278    75295306.192 9 -99424481.982 7
  25572486.872    25572488.289   -10647987.194 9   6712068.874 9
 86  6 18  3 19  5.0800000  0  4G12G13G 9G 7
  20686461.334    20686464.932     8250668.474 9 -23375689.493 8
  21170593.616    21170595.986    36262022.977 9 -45648994.308 9
  22748653.763    22748655.314    75318316.992 9 -99406551.474 8
  25569272.340    25569276.106   -10664876.455 9   6698908.418 9
 86  6 18  3 19 11.0800000  0  4G12G13G 9G 7
  20686703.920    20686707.590     8251941.515 9 -23374697.515 8
  21172174.990    21172177.579    36270332.203 9 -45642519.579 9
  22753034.309    22753034.111    75341337.513 8 -99388613.386 8
  25566060.844    25566062.775   -10681755.051 9   6685756.265 8
 86  6 18  3 19 17.0800000  0  4G12G13G 9G 7
  20686950.357    20686954.189     8253240.854 8 -23373685.049 8
  21173756.735    21173759.207    36278647.034 9 -45636040.496 9
  22757416.143    22757418.241    75364367.620 9 -99370667.836 8
  25562850.592    25562853.513   -10698622.387 9   6672612.890 9
 86  6 18  3 19 23.0800000  0  4G12G13G 9G 7
  20687202.174    20687207.161     8254566.386 7 -23372652.166 9
  21175340.032    21175341.778    36286967.374 9 -45629557.118 8
  22761799.415    22761803.035    75387407.330 9 -99352714.829 8
                  25559646.779                     6659481.859 9
 86  6 18  3 19 29.0800000  0  4G12G13G 9G 7
  20687460.332    20687463.602     8255918.330 9 -23371598.704 9
  21176924.389    21176926.386    36295293.379 9 -45623069.317 8
  22766185.456    22766190.039    75410456.766 9 -99334754.246 8
  25556349.542    25556444.913   -10751722.403 9   6646368.942 9
 86  6 18  3 19 35.0800000  0  4G12G13G 9G 7
  20687722.558    20687725.835     8257296.496 9 -23370524.809 8
  21178509.683    21178512.541    36303624.897 9 -45616577.228 9
  22770573.731    22770578.348    75433515.829 9 -99316786.161 8
  25553245.076    25553246.720   -10768522.828 9   6633277.898 9
 86  6 18  3 19 41.0800000  0  4G12G13G 9G 7
  20687990.606    20687993.480     8258700.843 9 -23369430.513 8
  21180096.623    21180099.234    36311961.827 9 -45610080.923 9
  22774964.211    22774968.167    75456584.315 8 -99298810.718 9
  25550052.725    25550055.202   -10785296.750 9   6620207.694 9
 86  6 18  3 19 47.0800000  0  4G12G13G 9G 7
  20688262.285    20688264.989     8260131.425 9 -23368315.779 7
  21181683.499    21181686.619    36320304.336 9 -45603580.253 9
  22779354.748    22779359.562    75479662.372 9 -99280827.830 8
  25546865.453    25546867.886   -10802047.510 9   6607155.159 9
 86  6 18  3 19 53.0800000  0  4G12G13G 9G 7
  20688540.382    20688543.310     8261588.397 8 -23367180.478 9
  21183272.590    21183275.119    36328652.498 9 -45597075.200 9
  22783749.254    22783752.637    75502749.911 8 -99262837.538 9
  25543681.386    25543682.601   -10818780.246 9   6594116.662 8
 86  6 18  3 19 59.0800000  0  4G12G13G 9G 7
  20688822.583    20688824.946     8263071.685 9 -23366024.672 9
  21184861.863    21184863.338    36337006.224 9 -45590565.802 9
  22788145.083    22788147.655    75525847.031 8 -99244839.791 9
  25540500.567    25540502.409   -10835498.246 9   6581089.659 8
 86  6 18  3 20  5.0800000  0  4G12G13G 9G 7
  20689109.143    20689111.476     8264581.280 9 -23364848.359 8
  21186453.382    21186455.615    36345365.445 9 -45584052.118 9
  22792540.937    22792544.268    75548953.581 8 -99226834.674 8
  25537320.404    25537323.483   -10852203.908 9   6568072.264 9
 86  6 18  3 20 11.0800000  0  4G12G13G 9G 7
  20689401.591    20689404.561     8266117.124 8 -23363651.596 8
  21188044.272    21188047.300    36353730.083 9 -45577534.215 9
  22796940.867    22796943.046    75572069.482 9 -99208822.271 8
  25534144.355    25534146.214   -10868898.730 9   6555063.322 9
 86  6 18  3 20 17.0800000  0  4G12G13G 9G 7
  20689698.547    20689701.601     8267679.217 8 -23362434.388 9
  21189637.578    21189639.332    36362100.178 9 -45571012.063 9
  22801341.179    22801344.302    75595194.827 8 -99190802.522 8
  25530968.799    25530972.061   -10885581.645 9   6542063.646 9
 86  6 18  3 20 23.0800000  0  4G12G13G 9G 7
  20690001.739    20690005.318     8269267.585 9 -23361196.700 9
  21191231.200    21191233.964    36370475.718 9 -45564485.665 9
  22805743.306    22805746.713    75618329.586 9 -99172775.439 8
                  25527800.458                     6529077.090 8
 86  6 18  3 20 29.0800000  0  4G12G13G 9G 7
  20690308.638    20690311.737     8270882.316 9 -23359938.471 9
  21192826.791    21192828.503    36378856.795 9 -45557954.957 9
  22810146.983    22810151.174    75641473.771 9 -99154741.024 9
  25524632.978    25524633.093   -10938497.211 9   6516109.326 9
 86  6 18  3 20 35.0800000  0  4G12G13G 9G 7
  20690620.636    20690622.949     8272523.269 8 -23358659.816 8
  21194422.343    21194423.638    36387243.287 9 -45551420.021 8
  22814553.842    22814557.231    75664627.191 9 -99136699.400 8
  25521469.317    25521472.762   -10955110.772 9   6503163.694 9
 86  6 18  3 20 41.0800000  0  4G12G13G 9G 7
  20690938.128    20690940.928     8274190.309 9 -23357360.819 8
  21196019.040    21196021.349    36395635.135 9 -45544880.911 9
  22818960.751    22818964.850    75687789.818 9 -99118650.610 8
  25518312.723    25518316.127   -10971697.106 9   6490238.887 9
 86  6 18  3 20 47.0800000  0  4G12G13G 9G 7
  20691259.484    20691262.909     8275883.759 9 -23356041.258 8
  21197616.829    21197618.846    36404032.440 9 -45538337.563 9
  22823371.598    22823374.274    75710961.825 9 -99100594.515 9
  25515160.850    25515164.498   -10988261.277 9   6477331.744 9
 86  6 18  3 20 53.0800000  0  4G12G13G 9G 7
  20691587.770    20691590.159     8277603.426 8 -23354701.248 9
  21199216.539    21199218.220    36412434.983 9 -45531790.121 9
  22827781.641    22827784.311    75734143.058 9 -99082531.205 8
  25512012.057    25512014.701   -11004807.527 9   6464438.576 8
 86  6 18  3 20 59.0800000  0  4G12G13G 9G 7
  20691920.520    20691922.351     8279349.511 9 -23353340.671 8
  21200816.265    21200818.412    36420843.058 9 -45525238.370 9
  22832195.339    22832197.552    75757333.511 9 -99064460.723 8
  25508865.824    25508870.117   -11021338.862 9   6451557.018 9
 86  6 18  3 21  5.0800000  0  4G12G13G 9G 7
  20692256.348    20692260.001     8281121.810 9 -23351959.655 9
  21202417.362    21202419.124    36429256.444 9 -45518682.487 9
  22836609.643    22836612.348    75780533.243 9 -99046383.009 8
  25505722.408    25505724.613   -11037857.719 9   6438685.193 9
 86  6 18  3 21 11.0800000  0  4G12G13G 9G 7
  20692599.932    20692601.968     8282920.399 8 -23350558.162 8
  21204019.127    21204021.509    36437675.095 9 -45512122.500 9
  22841025.889    22841027.634    75803742.115 8 -99028298.165 8
  25502581.297    25502583.889   -11054365.577 9   6425821.932 9
 86  6 18  3 21 17.0800000  0  4G12G13G 9G 7
  20692946.165    20692949.237     8284745.265 9 -23349136.182 9
  21205621.386    21205625.333    36446099.132 9 -45505558.308 9
  22845444.790    22845447.371    75826960.084 9 -99010206.232 8
  25499441.432    25499445.796   -11070861.103 9   6412968.276 9
 86  6 18  3 21 23.0800000  0  4G12G13G 9G 7
  20693298.654    20693301.364     8286596.417 9 -23347693.732 8
  21207226.138    21207227.936    36454528.513 9 -45498989.955 9
  22849864.635    22849867.406    75850187.045 9 -98992107.295 9
                  25496309.323                     6400128.351 8
 86  6 18  3 21 29.0800000  0  4G12G13G 9G 7
  20693656.637    20693658.611     8288473.832 9 -23346230.823 8
  21208831.000    21208833.027    36462963.287 9 -45492417.413 9
  22854287.366    22854289.392    75873423.252 9 -98974001.159 8
  25493171.862    25493178.929   -11123589.484 9   6387307.941 9
 86  6 18  3 21 35.0800000  0  4G12G13G 9G 7
  20694018.742    20694020.513     8290377.537 9 -23344747.410 9
  21210436.764    21210438.873    36471403.357 9 -45485840.723 9
  22858710.515    22858713.439    75896668.532 9 -98955887.958 8
  25490048.865    25490053.118   -11140013.675 9   6374509.802 9
 86  6 18  3 21 41.0800000  0  4G12G13G 9G 7
  20694386.479    20694386.745     8292307.508 9 -23343243.533 9
  21212043.972    21212046.434    36479848.739 9 -45479259.916 9
  22863135.827    22863138.729    75919922.919 9 -98937767.659 9
  25486929.578    25486933.026   -11156411.587 9   6361732.599 9
 86  6 18  3 21 47.0800000  0  4G12G13G 9G 7
  20694758.510    20694760.452     8294263.731 9 -23341719.201 7
  21213651.689    21213653.893    36488299.402 9 -45472674.980 9
  22867561.160    22867565.605    75943186.247 9 -98919640.412 8
  25483812.690    25483816.941   -11172786.638 9   6348972.833 9
 86  6 18  3 21 53.0800000  0  4G12G13G 9G 7
  20695134.016    20695137.403     8296246.187 9 -23340174.430 8
  21215261.566    21215263.669    36496755.401 9 -45466085.889 8
  22871990.332    22871993.491    75966458.509 9 -98901506.180 8
  25480700.341    25480704.062   -11189143.782 9   6336227.014 9
 86  6 18  3 21 59.0800000  0  4G12G13G 9G 7
  20695516.705    20695520.239     8298254.873 9 -23338609.226 8
  21216871.687    21216873.770    36505216.596 9 -45459492.749 9
  22876420.449    22876422.616    75989739.781 9 -98883364.932 8
  25477590.240    25477593.989   -11205486.164 9   6323492.694 9
 86  6 18  3 22  5.0800000  0  4G12G13G 9G 7
  20695903.503    20695907.133     8300289.854 9 -23337023.540 8
  21218482.087    21218484.504    36513683.055 9 -45452895.507 9
  22880852.839    22880854.166    76013029.991 9 -98865216.706 7
  25474483.343    25474486.836   -11221816.083 9   6310768.090 8
 86  6 18  3 22 11.0800000  0  4G12G13G 9G 7
  20696295.567    20696299.461     8302351.091 9 -23335417.376 8
  21220094.703    21220096.815    36522154.731 9 -45446294.200 9
  22885287.080    22885287.828    76036329.093 9 -98847061.531 7
  25471378.248    25471381.969   -11238134.695 9   6298052.297 9
 86  6 18  3 22 17.0800000  0  4G12G13G 9G 7
  20696694.389    20696697.434     8304438.602 8 -23333790.753 8
  21221707.921    21221709.253    36530631.660 9 -45439688.799 9
  22889721.250    22889724.029    76059637.012 9 -98828899.481 7
  25468274.741    25468278.705   -11254440.512 9   6285346.473 9
 86  6 18  3 22 23.0800000  0  4G12G13G 9G 7
  20697095.443    20697099.304     8306552.376 8 -23332143.656 9
  21223322.651    21223324.247    36539113.873 9 -45433079.274 9
  22894159.179    22894161.646    76082953.819 9 -98810730.553 9
                  25465178.605                     6272655.153 8
 86  6 18  3 22 29.0800000  0  4G12G13G 9G 7
  20697502.866    20697507.103     8308692.387 9 -23330476.117 8
  21224937.332    21224939.549    36547601.330 9 -45426465.673 9
  22898596.943    22898601.234    76106279.472 8 -98792554.727 8
  25462081.196    25462083.938   -11306974.189 9   6259983.878 9
 86  6 18  3 22 35.0800000  0  4G12G13G 9G 7
  20697915.036    20697918.736     8310858.628 9 -23328788.135 9
  21226553.416    21226555.486    36556093.972 9 -45419848.029 9
  22903036.799    22903041.731    76129613.923 9 -98774372.061 8
  25458992.372    25458995.164   -11323206.614 9   6247335.242 8
 86  6 18  3 22 41.0800000  0  4G12G13G 9G 7
  20698332.791    20698336.501     8313051.152 9 -23327079.671 8
  21228170.919    21228172.100    36564591.789 9 -45413226.348 9
  22907479.444    22907483.917    76152957.138 9 -98756182.562 8
  25455908.869    25455911.763   -11339412.435 9   6234707.351 8
 86  6 18  3 22 47.0800000  0  4G12G13G 9G 7
  20698755.644    20698758.965     8315269.863 9 -23325350.812 8
  21229788.295    21229790.413    36573094.828 9 -45406600.603 9
  22911923.765    22911926.056    76176309.086 9 -98737986.234 8
  25452829.476    25452831.103   -11355596.036 9   6222096.748 9
 86  6 18  3 22 53.0800000  0  4G12G13G 9G 7
  20699182.279    20699186.019     8317514.810 9 -23323601.510 9
  21231407.523    21231410.007    36581603.005 9 -45399970.853 9
  22916369.593    22916371.762    76199669.692 9 -98719783.154 7
  25449753.428    25449755.370   -11371761.796 9   6209500.067 9
 86  6 18  3 22 59.0800000  0  4G12G13G 9G 7
  20699615.046    20699618.386     8319785.991 9 -23321831.750 8
  21233027.524    21233029.447    36590116.317 9 -45393337.097 9
  22920815.782    22920818.417    76223039.023 9 -98701573.284 8
  25446679.857    25446682.043   -11387912.737 9   6196914.913 9
 86  6 18  3 23  5.0800000  0  4G12G13G 9G 7
  20700051.754    20700055.384     8322083.428 9 -23320041.544 8
  21234648.139    21234651.320    36598634.722 9 -45386699.385 9
  22925263.718    22925266.487    76246416.992 8 -98683356.679 8
  25443609.450    25443611.006   -11404051.091 9   6184339.587 9
 86  6 18  3 23 11.0800000  0  4G12G13G 9G 7
  20700495.053    20700497.731     8324407.060 9 -23318230.927 9
  21236270.022    21236272.391    36607158.254 9 -45380057.666 9
  22929714.533    22929716.359    76269803.645 9 -98665133.291 6
  25440539.798    25440541.914   -11420177.876 9   6171773.271 9
 86  6 18  3 23 17.0800000  0  4G12G13G 9G 7
  20700942.003    20700943.989     8326756.900 9 -23316399.883 8
  21237893.310    21237896.171    36615686.898 9 -45373411.970 8
  22934166.287    22934167.904    76293198.906 9 -98646903.214 7
  25437474.226    25437476.228   -11436291.239 9   6159217.415 9
 86  6 18  3 23 23.0800000  0  4G12G13G 9G 7
  20701395.101    20701396.133     8329133.021 9 -23314548.360 8
  21239516.477    21239519.297    36624220.680 9 -45366762.266 9
  22938619.888    22938623.002    76316602.706 8 -98628666.475 7
                  25434413.034                     6146676.608 8
 86  6 18  3 23 29.0800000  0  4G12G13G 9G 7
  20701851.785    20701853.148     8331535.365 9 -23312676.412 9
  21241142.439    21241144.493    36632759.648 9 -45360108.524 9
  22943074.199    22943078.558    76340015.068 8 -98610423.102 7
  25431352.409    25431355.939   -11488636.318 9   6134156.467 8
 86  6 18  3 23 35.0800000  0  4G12G13G 9G 7
  20702313.093    20702315.304     8333963.982 8 -23310783.975 8
  21242767.419    21242770.827    36641303.657 9 -45353450.854 9
  22947531.732    22947536.192    76363436.018 9 -98592173.032 8
  25428302.135    25428303.508   -11504674.507 9   6121659.165 9
 86  6 18  3 23 41.0800000  0  4G12G13G 9G 7
  20702780.231    20702783.350     8336418.866 9 -23308871.076 8
  21244394.559    21244396.916    36649852.672 9 -45346789.281 9
  22951991.971    22951994.668    76386865.478 9 -98573916.323 8
  25425254.490    25425256.508   -11520685.638 9   6109182.574 9
 86  6 18  3 23 47.0800000  0  4G12G13G 9G 7
  20703252.569    20703253.677     8338899.995 9 -23306937.733 9
  21246022.454    21246024.836    36658406.801 9 -45340123.714 9
  22956451.179    22956454.298    76410303.374 9 -98555653.031 8
  25422212.517    25422214.230   -11536675.251 9   6096723.146 9
 86  6 18  3 23 53.0800000  0  4G12G13G 9G 7
  20703729.519    20703730.716     8341407.349 9 -23304983.940 8
  21247650.985    21247653.719    36666965.939 9 -45333454.255 9
  22960913.479    22960915.440    76433749.803 8 -98537383.071 9
  25419172.914    25419175.246   -11552647.120 9   6084277.545 9
 86  6 18  3 23 59.0800000  0  4G12G13G 9G 7
  20704211.387    20704212.926     8343940.929 9 -23303009.730 9
  21249281.052    21249282.992    36675530.087 9 -45326780.892 9
  22965374.652    22965378.375    76457204.654 8 -98519106.574 8
  25416136.448    25416138.121   -11568604.073 9   6071843.558 8
 86  6 18  3 24  5.0800000  0  4G12G13G 9G 7
  20704698.243    20704700.579     8346500.706 9 -23301015.089 8
  21250911.613    21250913.287    36684099.325 9 -45320103.568 9
  22969839.983    22969842.878    76480667.837 7 -98500823.584 6
  25413102.024    25413103.428   -11584548.364 9   6059419.443 9
 86  6 18  3 24 11.0800000  0  4G12G13G 9G 7
  20705190.132    20705192.758     8349086.669 9 -23299000.071 8
  21252544.003    21252545.501    36692673.550 9 -45313422.346 8
  22974306.708    22974309.776    76504139.416 7 -98482534.045 8
  25410070.409    25410072.485   -11600480.871 9   6047004.506 9
 86  6 18  3 24 17.0800000  0  4G12G13G 9G 7
  20705687.458    20705689.465     8351698.800 8 -23296964.633 7
  21254175.301    21254177.552    36701252.801 9 -45306737.218 9
  22978774.540    22978778.051    76527619.412 9 -98464237.950 8
  25407041.712    25407043.457   -11616399.584 9   6034600.323 9
 86  6 18  3 24 23.0800000  0  4G12G13G 9G 7
  20706189.155    20706190.489     8354337.232 9 -23294908.714 8
  21255809.268    21255812.083    36709837.091 9 -45300048.157 9
  22983244.814    22983246.539    76551107.602 8 -98445935.449 8
                  25404017.320                     6022212.017 8
 86  6 18  3 24 29.0800000  0  4G12G13G 9G 7
  20706696.636    20706698.098     8357001.870 9 -23292832.377 8
  21257443.593    21257446.351    36718426.297 7 -45293355.268 9
  22987717.175    22987719.963    76574604.133 8 -98427626.466 8
  25400995.004    25400997.635   -11668550.546 9   6009844.926 9
 86  6 18  3 24 35.0800000  0  4G12G13G 9G 7
  20707208.219    20707210.610     8359692.674 9 -23290735.641 8
  21259079.477    21259081.718    36727020.488 9 -45286658.492 9
  22992190.381    22992192.260    76598108.895 8 -98409311.057 8
  25397980.775    25397982.921   -11684392.190 9   5997500.791 9
 86  6 18  3 24 41.0800000  0  4G12G13G 9G 7
  20707725.819    20707727.513     8362409.676 9 -23288618.499 8
  21260714.783    21260718.190    36735619.643 9 -45279957.854 9
  22996664.363    22996667.089    76621621.931 9 -98390989.214 9
  25394972.424    25394975.303   -11700207.866 9   5985177.275 9
 86  6 18  3 24 47.0800000  0  4G12G13G 9G 7
  20708246.832    20708249.970     8365152.925 9 -23286480.906 8
  21262352.192    21262355.417    36744223.710 9 -45273253.387 9
  23001139.315    23001143.238    76645143.206 8 -98372660.962 8
  25391966.421    25391967.909   -11716001.207 9   5972870.787 9
 86  6 18  3 24 53.0800000  0  4G12G13G 9G 7
  20708774.127    20708777.720     8367922.384 8 -23284322.886 8
  21263990.635    21263993.635    36752832.723 9 -45266545.054 9
  23005615.138    23005620.058    76668672.633 8 -98354326.363 9
  25388964.499    25388966.244   -11731776.867 9   5960578.063 9
 86  6 18  3 24 59.0800000  0  4G12G13G 9G 7
  20709307.352    20709309.799     8370717.969 8 -23282144.500 8
  21265629.783    21265632.740    36761446.669 9 -45259832.893 9
  23010095.747    23010099.281    76692210.231 9 -98335985.398 8
  25385964.662    25385967.208   -11747537.498 9   5948297.072 8
 86  6 18  3 25  5.0800000  0  4G12G13G 9G 7
  20709843.358    20709847.988     8373539.773 9 -23279945.693 8
  21267270.132    21267273.244    36770065.452 9 -45253116.956 9
  23014575.789    23014579.065    76715755.967 9 -98317638.090 7
  25382968.445    25382969.892   -11763285.304 9   5936026.053 9
 86  6 18  3 25 11.0800000  0  4G12G13G 9G 7
  20710386.535    20710389.311     8376387.819 8 -23277726.446 8
  21268910.824    21268914.074    36778689.156 9 -45246397.186 9
  23019059.769    23019060.985    76739309.774 9 -98299284.460 8
  25379974.460    25379975.375   -11779021.006 9   5923764.466 9
 86  6 18  3 25 17.0800000  0  4G12G13G 9G 7
  20710933.539    20710936.304     8379262.059 8 -23275486.781 9
  21270553.334    21270555.201    36787317.813 9 -45239673.552 9
  23023542.858    23023544.428    76762871.647 9 -98280924.541 8
  25376981.866    25376983.955   -11794742.088 9   5911514.273 8
 86  6 18  3 25 23.0800000  0  4G12G13G 9G 7
  20711484.598    20711488.347     8382162.484 9 -23273226.698 8
  21272195.642    21272199.228    36795951.376 9 -45232946.104 9
  23028028.644    23028029.518    76786441.655 9 -98262558.285 8
                  25373997.012                     5899280.628 8
 86  6 18  3 25 29.0800000  0  4G12G13G 9G 7
  20712042.567    20712044.762     8385089.015 9 -23270946.283 8
  21273839.805    21273842.724    36804589.760 9 -45226214.895 9
  23032515.014    23032517.332    76810019.697 8 -98244185.776 8
  25371013.276    25371015.552   -11846694.016 9   5887068.640 9
 86  6 18  3 25 35.0800000  0  4G12G13G 9G 7
  20712604.317    20712606.968     8388041.710 9 -23268645.492 8
  21275484.804    21275486.911    36813232.990 9 -45219479.906 9
  23037003.941    23037006.458    76833605.673 9 -98225807.090 9
  25368035.418    25368038.550   -11862336.468 9   5874879.706 9
 86  6 18  3 25 41.0800000  0  4G12G13G 9G 7
  20713170.454    20713172.814     8391020.631 9 -23266324.262 8
  21277130.895    21277132.973    36821880.989 9 -45212741.199 9
  23041492.423    23041495.967    76857199.591 9 -98207422.245 8
  25365064.401    25365066.791   -11877952.549 9   5862711.348 9
 86  6 18  3 25 47.0800000  0  4G12G13G 9G 7
  20713742.764    20713745.251     8394025.704 9 -23263982.637 8
  21278778.029    21278778.894    36830533.842 9 -45205998.720 9
  23045982.863    23045987.748    76880801.508 8 -98189031.157 9
  25362097.090    25362098.892   -11893546.890 9   5850559.914 9
 86  6 18  3 25 53.0800000  0  4G12G13G 9G 7
  20714319.592    20714321.726     8397056.896 8 -23261620.668 9
  21280425.288    21280425.863    36839191.514 9 -45199252.472 9
  23050476.043    23050480.090    76904411.413 9 -98170633.863 9
  25359132.784    25359134.083   -11909123.574 9   5838422.244 9
 86  6 18  3 25 59.0800000  0  4G12G13G 9G 7
  20714900.386    20714903.742     8400114.276 8 -23259238.297 9
  21282073.966    21282074.717    36847854.050 9 -45192502.444 9
  23054970.188    23054973.915    76928029.164 9 -98152230.435 9
  25356171.065    25356172.939   -11924685.364 9   5826296.182 8
 86  6 18  3 26  5.0800000  0  4G12G13G 9G 7
  20715487.509    20715490.742     8403197.896 9 -23256835.487 8
  21283723.550    21283724.486    36856521.358 9 -45185748.693 9
  23059467.936    23059469.961    76951654.783 8 -98133820.851 9
  25353212.482    25353214.431   -11940234.309 9   5814180.117 9
 86  6 18  3 26 11.0800000  0  4G12G13G 9G 7
  20716078.666    20716082.314     8406307.645 9 -23254412.292 8
  21285373.329    21285374.424    36865193.422 9 -45178991.245 9
  23063965.006    23063967.248    76975288.221 9 -98115405.173 8
  25350257.066    25350258.352   -11955770.871 9   5802073.720 9
 86  6 18  3 26 17.0800000  0  4G12G13G 9G 7
  20716675.433    20716679.284     8409443.567 8 -23251968.723 7
  21287024.080    21287025.755    36873870.199 9 -45172230.116 9
  23068463.960    23068466.059    76998929.511 9 -98096983.369 8
  25347302.531    25347304.792   -11971291.960 9   5789979.362 9
 86  6 18  3 26 23.0800000  0  4G12G13G 9G 7
  20717277.535    20717280.289     8412605.631 9 -23249504.773 8
  21288675.812    21288678.653    36882551.864 9 -45165465.178 9
  23072964.767    23072966.504    77022578.594 9 -98078555.511 9
                  25344355.426                     5777902.257 8
 86  6 18  3 26 29.0800000  0  4G12G13G 9G 7
  20717884.024    20717888.065     8415793.826 8 -23247020.465 8
  21290329.045    21290330.340    36891238.287 9 -45158696.536 8
  23077465.923    23077467.805    77046235.357 8 -98060121.662 9
  25341408.774    25341412.658   -12023042.001 9   5765847.263 9
 86  6 18  3 26 35.0800000  0  4G12G13G 9G 7
  20718495.975    20718498.475     8419008.138 9 -23244515.794 9
  21291982.622    21291984.355    36899929.438 9 -45151924.208 9
  23081966.991    23081971.450    77069899.913 9 -98041681.745 9
  25338470.785    25338472.759   -12038482.838 9   5753815.451 8
 86  6 18  3 26 41.0800000  0  4G12G13G 9G 7
  20719113.037    20719115.191     8422248.632 9 -23241990.736 9
  21293636.936    21293639.559    36908625.359 9 -45145148.167 9
  23086472.135    23086474.742    77093572.259 9 -98023235.779 9
  25335537.687    25335539.375   -12053896.766 9   5741804.197 9
 86  6 18  3 26 47.0800000  0  4G12G13G 9G 7
  20719734.689    20719737.066     8425515.291 9 -23239445.283 8
  21295292.712    21295295.189    36917325.981 9 -45138368.461 9
  23090978.418    23090981.875    77117252.205 9 -98004783.898 9
  25332607.981    25332610.338   -12069289.681 9   5729809.732 9
 86  6 18  3 26 53.0800000  0  4G12G13G 9G 7
  20720361.154    20720363.451     8428808.109 9 -23236879.464 8
  21296949.915    21296951.413    36926031.273 9 -45131585.110 9
  23095486.494    23095490.015    77140939.818 9 -97986326.018 9
  25329682.408    25329683.824   -12084665.025 9   5717828.946 9
 86  6 18  3 26 59.0800000  0  4G12G13G 9G 7
  20720992.721    20720995.239     8432127.049 8 -23234293.258 8
  21298606.913    21298608.736    36934741.188 9 -45124798.166 8
  23099995.966    23099999.229    77164635.088 9 -97967862.183 9
  25326759.443    25326761.346   -12100025.259 9   5705859.939 9
 86  6 18  3 27  5.0800000  0  4G12G13G 9G 7
  20721627.918    20721632.468     8435472.107 8 -23231686.732 8
  21300265.419    21300267.983    36943455.807 9 -45118007.551 9
  23104507.044    23104509.973    77188337.965 9 -97949392.415 9
  25323838.837    25323840.953   -12115372.514 9   5693901.027 9
 86  6 18  3 27 11.0800000  0  4G12G13G 9G 7
  20722270.523    20722273.493     8438843.291 9 -23229059.823 8
  21301924.888    21301927.082    36952175.146 9 -45111213.260 9
  23109019.406    23109021.799    77212048.371 9 -97930916.770 9
  25320920.364    25320923.225   -12130706.997 9   5681952.092 9
 86  6 18  3 27 17.0800000  0  4G12G13G 9G 7
  20722917.037    20722920.177     8442240.620 8 -23226412.546 8
  21303584.838    21303587.173    36960899.112 9 -45104415.358 9
  23113532.099    23113534.214    77235766.285 9 -97912435.276 8
  25318004.691    25318007.927   -12146025.607 9   5670015.513 9
 86  6 18  3 27 23.0800000  0  4G12G13G 9G 7
  20723568.036    20723572.279     8445664.044 9 -23223744.952 8
  21305246.294    21305248.351    36969627.772 9 -45097613.803 9
  23118046.901    23118048.306    77259491.829 9 -97893947.826 8
                  25315096.677                     5658096.928 9
 86  6 18  3 27 29.0800000  0  4G12G13G 9G 7
  20724224.611    20724227.695     8449113.532 9 -23221057.045 9
  21306908.064    21306910.052    36978361.087 9 -45090808.621 9
  23122563.191    23122564.521    77283224.845 9 -97875454.546 9
  25312189.281    25312193.101   -12197570.079 9   5646200.999 8
 86  6 18  3 27 35.0800000  0  4G12G13G 9G 7
  20724886.227    20724889.045     8452589.090 9 -23218348.803 9
  21308570.907    21308572.845    36987099.062 9 -45083999.811 9
  23127079.696    23127083.411    77306965.358 9 -97856955.457 9
  25309290.642    25309292.803   -12212806.698 9   5634328.315 9
 86  6 18  3 27 41.0800000  0  4G12G13G 9G 7
  20725553.027    20725555.190     8456090.789 9 -23215620.210 8
  21310234.514    21310237.126    36995841.655 9 -45077187.397 9
  23131597.992    23131601.996    77330713.366 9 -97838450.526 9
  25306395.333    25306397.535   -12228017.623 9   5622476.038 9
 86  6 18  3 27 47.0800000  0  4G12G13G 9G 7
  20726224.259    20726226.242     8459618.578 9 -23212871.290 8
  21311898.572    21311902.094    37004588.929 9 -45070371.335 9
  23136118.749    23136123.586    77354468.717 9 -97819939.873 8
  25303505.248    25303508.969   -12243206.672 9   5610640.421 9
 86  6 18  3 27 53.0800000  0  4G12G13G 9G 7
  20726900.422    20726902.901     8463172.460 9 -23210102.038 8
  21313564.027    21313566.490    37013340.782 9 -45063551.709 9
  23140642.000    23140644.799    77378231.400 9 -97801423.498 9
  25300617.898    25300621.088   -12258378.285 9   5598818.388 9
 86  6 18  3 27 59.0800000  0  4G12G13G 9G 7
  20727581.343    20727585.210     8466752.392 9 -23207312.480 8
  21315230.869    21315233.053    37022097.189 9 -45056728.537 9
  23145166.267    23145167.059    77402001.428 8 -97782901.396 8
  25297734.238    25297736.526   -12273534.814 9   5587008.114 9
 86  6 18  3 28  5.0800000  0  4G12G13G 9G 7
  20728267.620    20728271.248     8470358.397 9 -23204502.618 8
  21316897.432    21316900.696    37030858.173 9 -45049901.796 8
  23149691.502    23149692.431    77425778.827 9 -97764373.539 9
  25294852.882    25294855.113   -12288678.086 9   5575208.169 8
 86  6 18  3 28 11.0800000  0  4G12G13G 9G 7
  20728959.020    20728962.468     8473990.503 8 -23201672.399 8
  21318565.827    21318569.041    37039623.752 9 -45043071.470 9
  23154216.692    23154218.797    77449563.539 8 -97745839.998 8
  25291972.700    25291975.416   -12303808.229 9   5563418.457 8
 86  6 18  3 28 17.0800000  0  4G12G13G 9G 7
  20729655.947    20729658.040     8477648.684 9 -23198821.870 8
  21320234.959    21320237.536    37048393.907 9 -45036237.578 9
  23158743.611    23158746.694    77473355.576 9 -97727300.735 9
  25289096.779    25289099.613   -12318921.685 9   5551641.740 9
 86  6 18  3 28 23.0800000  0  4G12G13G 9G 7
  20730355.846    20730359.924     8481333.005 9 -23195950.977 9
  21321904.461    21321907.289    37057168.597 9 -45029400.157 9
  23163271.924    23163275.736    77497154.885 9 -97708755.840 8
                  25286229.162                     5539883.527 9
 86  6 18  3 28 29.0800000  0  4G12G13G 9G 7
  20731061.424    20731064.848     8485043.384 9 -23193059.772 8
  21323575.145    21323577.943    37065947.783 9 -45022559.233 9
  23167801.648    23167805.511    77520961.441 8 -97690205.288 8
  25283359.397    25283362.274   -12370262.454 9   5528148.429 9
 86  6 18  3 28 35.0800000  0  4G12G13G 9G 7
  20731772.709    20731776.372     8488779.870 8 -23190148.233 8
  21325246.652    21325250.161    37074731.433 9 -45015714.827 8
  23172333.846    23172338.221    77544775.121 8 -97671649.187 8
  25280499.906    25280502.268   -12385292.693 9   5516436.553 9
 86  6 18  3 28 41.0800000  0  4G12G13G 9G 7
  20732489.576    20732492.065     8492542.399 8 -23187216.384 8
  21326918.717    21326921.352    37083519.583 9 -45008866.916 9
  23176867.303    23176870.408    77568596.060 8 -97653087.424 7
  25277645.296    25277646.897   -12400296.910 9   5504744.958 8
 86  6 18  3 28 47.0800000  0  4G12G13G 9G 7
  20733209.475    20733213.621     8496330.966 8 -23184264.268 8
  21328592.128    21328595.337    37092312.271 9 -45002015.459 9
  23181400.198    23181404.023    77592424.077 8 -97634520.131 7
  25274793.559    25274796.220   -12415279.720 9   5493070.053 9
 86  6 18  3 28 53.0800000  0  4G12G13G 9G 7
  20733935.291    20733938.228     8500145.522 9 -23181291.870 7
  21330266.368    21330268.727    37101109.446 9 -44995160.525 9
  23185938.158    23185939.630    77616259.306 8 -97615947.206 7
  25271946.002    25271947.517   -12430245.054 9   5481408.766 9
 86  6 18  3 28 59.0800000  0  4G12G13G 9G 7
  20734666.192    20734669.818     8503986.107 9 -23178299.209 8
  21331940.257    21331942.889    37109911.071 9 -44988302.115 9
  23190474.700    23190476.593    77640101.704 9 -97597368.711 8
  25269100.662    25269103.108   -12445195.288 9   5469759.227 8
 86  6 18  3 29  5.0800000  0  4G12G13G 9G 7
  20735402.285    20735404.768     8507852.628 9 -23175286.331 9
  21333616.903    21333618.827    37118717.188 9 -44981440.190 9
  23195012.819    23195015.618    77663950.943 9 -97578784.875 8
  25266258.097    25266260.472   -12460132.218 9   5458120.065 9
 86  6 18  3 29 11.0800000  0  4G12G13G 9G 7
  20736143.121    20736144.797     8511745.255 9 -23172253.123 8
  21335293.145    21335296.322    37127527.779 9 -44974574.801 8
  23199552.833    23199554.712    77687807.362 8 -97560195.457 8
  25263418.568    25263419.468   -12475055.719 9   5446491.376 9
 86  6 18  3 29 17.0800000  0  4G12G13G 9G 7
  20736889.317    20736891.003     8515663.894 9 -23169199.635 8
  21336970.332    21336973.409    37136342.819 9 -44967705.939 9
  23204093.648    23204096.432    77711670.804 9 -97541600.578 9
                  25260583.775                     5434876.349 8
 86  6 18  3 29 23.0800000  0  4G12G13G 9G 7
  20737639.912    20737642.004     8519608.648 9 -23166125.808 8
  21338648.285    21338651.595    37145162.306 9 -44960833.612 9
  23208634.572    23208638.851    77735541.294 9 -97523000.225 9
  25257751.943    25257751.958   -12526240.305 9   5423280.470 8
 86  6 18  3 29 29.0800000  0  4G12G13G 9G 7
  20738395.118    20738397.722     8523579.355 9 -23163031.734 8
  21340327.447    21340329.739    37153986.176 9 -44953957.863 9
  23213178.278    23213183.684    77759418.655 8 -97504394.503 8
  25254923.617    25254926.093   -12541091.737 9   5411708.133 9
 86  6 18  3 29 35.0800000  0  4G12G13G 9G 7
  20739156.821    20739157.597     8527576.076 9 -23159917.418 8
  21342007.870    21342010.455    37162814.420 9 -44947078.717 9
  23217724.337    23217727.557    77783302.926 8 -97485783.393 8
  25252103.174    25252105.752   -12555913.231 9   5400158.921 8
 86  6 18  3 29 41.0800000  0  4G12G13G 9G 7
  20739920.969    20739924.852     8531598.782 9 -23156782.828 8
  21343689.079    21343691.549    37171647.081 9 -44940196.123 9
  23222271.417    23222273.232    77807194.094 8 -97467166.905 8
  25249288.158    25249290.791   -12570708.414 9   5388629.821 9
 86  6 18  3 29 47.0800000  0  4G12G13G 9G 7
  20740692.103    20740694.155     8535647.518 9 -23153627.985 8
  21345370.281    21345373.092    37180484.136 9 -44933310.099 8
  23226818.267    23226821.110    77831092.221 8 -97448544.972 7
  25246476.216    25246479.493   -12585482.826 9   5377117.297 9
 86  6 18  3 29 53.0800000  0  4G12G13G 9G 7
  20741467.698    20741469.826     8539722.216 9 -23150452.881 9
  21347052.362    21347055.647    37189325.578 9 -44926420.664 9
  23231367.579    23231369.986    77854997.205 9 -97429917.707 8
  25243668.194    25243670.369   -12600239.769 9   5365618.382 9
 86  6 18  3 29 59.0800000  0  4G12G13G 9G 7
  20742247.721    20742250.370     8543822.916 9 -23147257.534 9
  21348735.709    21348737.790    37198171.363 9 -44919527.840 9
  23235917.247    23235920.441    77878909.039 9 -97411285.096 7
  25240862.920    25240865.480   -12614981.565 9   5354131.278 8
 86  6 18  3 30  5.0800000  0  4G12G13G 9G 7
  20743033.545    20743035.450     8547949.628 9 -23144041.920 8
  21350420.479    21350422.856    37207021.570 9 -44912631.577 9
  23240469.116    23240471.424    77902827.613 9 -97392647.231 8
  25238060.981    25238063.116   -12629709.834 9   5342654.713 9
 86  6 18  3 30 11.0800000  0  4G12G13G 9G 7
  20743823.887    20743827.547     8552102.319 9 -23140806.057 9
  21352105.338    21352107.765    37215876.178 9 -44905731.882 9
  23245021.557    23245022.936    77926753.046 9 -97374004.036 8
  25235260.729    25235262.717   -12644424.243 9   5331188.946 9
 86  6 18  3 30 17.0800000  0  4G12G13G 9G 7
  20744617.691    20744621.603     8556280.983 8 -23137549.955 8
  21353790.682    21353793.994    37224735.154 9 -44898828.783 9
  23249577.028    23249578.107    77950685.226 8 -97355355.587 8
  25232463.912    25232466.360   -12659120.444 9   5319737.362 9
 86  6 18  3 30 23.0800000  0  4G12G13G 9G 7
  20745417.698    20745422.096     8560485.646 9 -23134273.602 8
  21355477.958    21355480.114    37233598.579 9 -44891922.215 9
  23254131.727    23254134.096    77974624.129 8 -97336701.898 8
                  25229674.781                     5308305.660 9
 86  6 18  3 30 29.0800000  0  4G12G13G 9G 7
  20746222.676    20746227.395     8564716.263 9 -23130977.013 8
  21357165.020    21357166.801    37242466.318 9 -44885012.285 8
  23258687.170    23258691.769    77998569.700 8 -97318043.027 9
  25226885.291    25226888.365   -12710047.377 9   5296897.709 9
 86  6 18  3 30 35.0800000  0  4G12G13G 9G 7
  20747032.752    20747037.459     8568972.862 9 -23127660.189 8
  21358853.818    21358855.995    37251338.448 9 -44878098.934 8
  23263247.337    23263249.669    78022521.952 8 -97299378.950 9
  25224105.642    25224108.403   -12724657.778 9   5285512.972 9
 86  6 18  3 30 41.0800000  0  4G12G13G 9G 7
  20747847.897    20747852.420     8573255.374 9 -23124323.162 9
  21360542.818    21360545.901    37260214.869 9 -44871182.243 9
  23267804.300    23267808.968    78046480.866 8 -97280709.690 8
  25221330.676    25221334.198   -12739242.623 9   5274148.165 8
 86  6 18  3 30 47.0800000  0  4G12G13G 9G 7
  20748668.926    20748672.132     8577563.864 8 -23120965.908 8
  21362232.654    21362235.325    37269095.475 9 -44864262.285 9
  23272365.873    23272370.337    78070446.380 8 -97262035.263 9
  25218559.086    25218561.848   -12753806.223 9   5262799.919 9
 86  6 18  3 30 53.0800000  0  4G12G13G 9G 7
  20749493.127    20749495.099     8581898.260 9 -23117588.453 8
  21363924.762    21363925.685    37277980.357 9 -44857339.000 9
  23276928.210    23276932.000    78094418.476 9 -97243355.719 9
  25215791.242    25215792.905   -12768352.164 9   5251465.436 8
 86  6 18  3 30 59.0800000  0  4G12G13G 9G 7
  20750323.216    20750326.474     8586258.537 9 -23114190.845 8
  21365615.842    21365617.940    37286869.496 9 -44850412.393 9
  23281491.179    23281493.667    78118397.210 8 -97224670.975 9
  25213026.537    25213028.054   -12782883.062 9   5240142.668 9
 86  6 18  3 31  5.0800000  0  4G12G13G 9G 7
  20751157.445    20751160.826     8590644.722 9 -23110773.034 9
  21367307.933    21367309.755    37295762.845 9 -44843482.509 9
  23286055.697    23286058.007    78142382.423 8 -97205981.174 8
  25210263.475    25210265.635   -12797400.420 9   5228830.442 9
 86  6 18  3 31 11.0800000  0  4G12G13G 9G 7
  20751997.910    20752000.575     8595056.854 8 -23107335.019 8
  21369001.404    21369002.915    37304660.378 9 -44836549.362 9
  23290620.450    23290622.467    78166374.125 8 -97187286.335 8
  25207503.791    25207505.250   -12811903.528 9   5217529.329 9
 86  6 18  3 31 17.0800000  0  4G12G13G 9G 7
  20752842.263    20752845.218     8599494.861 9 -23103876.835 8
  21370695.599    21370696.724    37313562.212 9 -44829612.872 9
  23295185.909    23295189.143    78190372.392 8 -97168586.381 8
                  25204750.300                     5206243.133 8
 86  6 18  3 31 23.0800000  0  4G12G13G 9G 7
  20753691.550    20753693.563     8603958.836 8 -23100398.411 9
  21372389.928    21372390.764    37322468.285 9 -44822673.063 9
  23299753.989    23299758.486    78214377.128 8 -97149881.412 8
  25201999.636    25201999.145   -12862665.359 9   5194977.275 9
 86  6 18  3 31 29.0800000  0  4G12G13G 9G 7
  20754545.359    20754548.468     8608448.744 8 -23096899.781 8
  21374085.439    21374086.787    37331378.579 9 -44815729.981 9
  23304323.607    23304327.063    78238388.233 8 -97131171.461 8
  25199251.382    25199252.609   -12877092.129 9   5183735.647 8
 86  6 18  3 31 35.0800000  0  4G12G13G 9G 7
  20755405.027    20755406.862     8612964.543 8 -23093380.978 8
  21375781.442    21375782.911    37340293.114 9 -44808783.593 9
  23308894.275    23308897.532    78262405.810 9 -97112456.472 8
  25196511.413    25196514.036   -12891489.185 9   5172517.161 8
 86  6 18  3 31 41.0800000  0  4G12G13G 9G 7
  20756269.036    20756272.170     8617506.165 9 -23089842.052 8
  21377478.477    21377480.695    37349211.770 9 -44801833.987 8
  23313465.988    23313469.582    78286429.788 9 -97093736.513 8
  25193777.545    25193778.202   -12905860.742 9   5161318.558 9
 86  6 18  3 31 47.0800000  0  4G12G13G 9G 7
  20757138.332    20757141.629     8622073.597 9 -23086283.004 8
  21379176.514    21379178.818    37358134.608 9 -44794881.124 8
  23318039.149    23318042.325    78310460.142 9 -97075011.560 9
  25191046.179    25191047.720   -12920211.310 9   5150136.304 8
 86  6 18  3 31 53.0800000  0  4G12G13G 9G 7
  20758012.010    20758014.823     8626666.913 8 -23082703.806 9
  21380875.288    21380877.434    37367061.637 9 -44787924.997 9
  23322613.206    23322617.568    78334496.704 8 -97056281.776 9
  25188318.358    25188320.107   -12934544.317 9   5138967.739 8
 86  6 18  3 31 59.0800000  0  4G12G13G 9G 7
  20758892.198    20758893.233     8631286.187 9 -23079104.371 8
  21382574.891    21382576.828    37375992.816 9 -44780965.638 9
  23327189.260    23327191.279    78358539.487 9 -97037547.144 9
  25185594.148    25185595.748   -12948862.075 9   5127811.040 9
 86  6 18  3 32  5.0800000  0  4G12G13G 9G 7
  20759774.555    20759779.048     8635931.374 9 -23075484.735 7
  21384275.343    21384277.119    37384928.199 9 -44774002.991 9
  23331763.979    23331767.632    78382588.673 9 -97018807.517 8
  25182872.511    25182873.684   -12963165.971 9   5116665.162 9
 86  6 18  3 32 11.0800000  0  4G12G13G 9G 7
  20760662.829    20760666.351     8640602.395 9 -23071844.984 8
  21385976.343    21385978.947    37393867.784 9 -44767037.085 9
  23336342.698    23336343.896    78406644.155 9 -97000062.988 8
  25180152.404    25180154.194   -12977455.032 9   5105530.826 9
 86  6 18  3 32 17.0800000  0  4G12G13G 9G 7
  20761557.415    20761561.191     8645299.236 9 -23068185.122 8
  21387678.386    21387681.092    37402811.495 9 -44760067.964 9
  23340920.822    23340923.679    78430705.860 9 -96981313.607 8
                  25177438.697                     5094411.937 8
 86  6 18  3 32 23.0800000  0  4G12G13G 9G 7
  20762456.486    20762459.673     8650021.991 9 -23064505.035 9
  21389381.473    21389383.322    37411759.297 9 -44753095.648 9
  23345499.993    23345502.809    78454773.809 9 -96962559.360 9
  25174678.225    25174729.552   -13028008.475 9   5083314.065 9
 86  6 18  3 32 29.0800000  0  4G12G13G 9G 7
  20763359.993    20763363.010     8654770.564 8 -23060804.862 9
  21391084.674    21391086.978    37420711.253 9 -44746120.095 9
  23350081.774    23350084.052    78478847.853 8 -96943800.357 8
  25172022.740    25172024.225   -13042219.544 9   5072240.578 8
 86  6 18  3 32 35.0800000  0  4G12G13G 9G 7
  20764267.907    20764271.357     8659544.989 8 -23057084.525 8
  21392789.242    21392791.483    37429667.264 9 -44739141.385 9
  23354664.054    23354668.212    78502928.044 9 -96925036.575 7
  25169323.412    25169326.115   -13056400.827 9   5061190.225 9
 86  6 18  3 32 41.0800000  0  4G12G13G 9G 7
  20765182.011    20765185.214     8664345.274 9 -23053344.051 8
  21394494.282    21394495.765    37438627.415 9 -44732159.452 9
  23359249.521    23359250.943    78527014.430 9 -96906267.953 9
  25166629.822    25166632.637   -13070556.705 9   5050159.679 9
 86  6 18  3 32 47.0800000  0  4G12G13G 9G 7
  20766101.185    20766103.467     8669171.346 8 -23049583.463 9
  21396199.988    21396201.722    37447591.624 9 -44725174.350 9
  23363833.665    23363835.540    78551106.852 9 -96887494.621 9
  25163940.280    25163943.112   -13084691.810 9   5039145.319 9
 86  6 18  3 32 53.0800000  0  4G12G13G 9G 7
  20767022.876    20767027.046     8674023.214 8 -23045802.792 8
  21397905.963    21397908.567    37456559.868 9 -44718186.101 9
  23368419.297    23368422.867    78575205.350 8 -96868716.581 8
  25161253.630    25161256.390   -13098809.246 9   5028144.727 9
 86  6 18  3 32 59.0800000  0  4G12G13G 9G 7
  20767951.277    20767956.046     8678900.837 8 -23042002.056 9
  21399613.413    21399615.775    37465532.144 9 -44711194.712 9
  23373006.025    23373009.610    78599309.819 9 -96849933.893 9
  25158570.568    25158572.129   -13112911.377 8   5017156.068 9
 86  6 18  3 33  5.0800000  0  4G12G13G 9G 7
  20768883.276    20768888.615     8683804.249 8 -23038181.220 8
  21401322.139    21401323.552    37474508.399 9 -44704200.232 9
  23377593.552    23377597.428    78623420.328 9 -96831146.502 9
  25155888.498    25155891.733   -13126999.473 9   5006178.334 9
 86  6 18  3 33 11.0800000  0  4G12G13G 9G 7
  20769822.482    20769825.930     8688733.397 8 -23034340.323 9
  21403030.617    21403032.471    37483488.701 9 -44697202.593 9
  23382182.866    23382185.791    78647536.863 8 -96812354.411 9
  25153210.347    25153213.765   -13141072.375 9   4995212.444 9
 86  6 18  3 33 17.0800000  0  4G12G13G 9G 7
  20770765.327    20770768.603     8693688.370 8 -23030479.305 8
  21404740.522    21404741.847    37492473.051 9 -44690201.796 9
  23386773.929    23386776.638    78671659.341 9 -96793557.680 9
                  25150539.365                     4984262.562 8
 86  6 18  3 33 23.0800000  0  4G12G13G 9G 7
  20771713.634    20771717.397     8698669.213 8 -23026598.135 8
  21406451.016    21406452.848    37501461.434 9 -44683197.862 9
  23391364.420    23391367.616    78695787.753 9 -96774756.323 9
  25147867.517    25147870.312   -13191405.160 9   4973334.457 9
 86  6 18  3 33 29.0800000  0  4G12G13G 9G 7
  20772666.896    20772669.804     8703675.799 8 -23022696.902 8
  21408161.284    21408163.297    37510453.750 9 -44676190.865 8
  23395956.920    23395959.619    78719922.004 8 -96755950.403 8
  25145205.499    25145207.975   -13205398.035 9   4962430.909 8
 86  6 18  3 33 35.0800000  0  4G12G13G 9G 7
  20773624.451    20773626.631     8708708.134 9 -23018775.603 9
  21409873.797    21409875.917    37519450.098 9 -44669180.733 9
  23400552.009    23400553.139    78744062.194 8 -96737139.851 8
  25142548.642    25142550.444   -13219361.351 9   4951550.404 9
 86  6 18  3 33 41.0800000  0  4G12G13G 9G 7
  20774587.831    20774589.861     8713766.137 8 -23014834.301 9
  21411586.156    21411589.009    37528450.443 9 -44662167.477 9
  23405146.729    23405147.723    78768208.250 9 -96718324.748 8
  25139896.062    25139898.724   -13233299.429 9   4940689.578 9
 86  6 18  3 33 47.0800000  0  4G12G13G 9G 7
  20775555.096    20775556.862     8718849.960 8 -23010872.874 8
  21413298.601    21413301.894    37537454.805 9 -44655151.085 9
  23409742.873    23409745.146    78792360.103 9 -96699505.113 9
  25137247.301    25137249.264   -13247216.687 9   4929844.960 9
 86  6 18  3 33 53.0800000  0  4G12G13G 9G 7
  20776528.080    20776529.012     8723959.574 9 -23006891.368 9
  21415014.101    21415015.769    37546463.176 9 -44648131.582 9
  23414340.137    23414341.642    78816517.751 8 -96680680.977 9
  25134602.491    25134605.153   -13261116.323 9   4919014.081 9
 86  6 18  3 33 59.0800000  0  4G12G13G 9G 7
  20777504.507    20777505.774     8729094.861 8 -23002889.845 9
  21416729.251    21416732.101    37555475.556 9 -44641108.944 9
  23418937.273    23418940.112    78840681.140 9 -96661852.356 9
  25131960.527    25131962.357   -13275000.557 9   4908195.203 8
 86  6 18  3 34  5.0800000  0  4G12G13G 9G 7
  20778485.463    20778487.813     8734255.831 8 -22998868.315 8
  21418445.496    21418446.951    37564491.924 9 -44634083.205 9
  23423535.936    23423539.206    78864850.376 9 -96643019.197 9
  25129321.656    25129323.777   -13288870.553 9   4897387.424 8
 86  6 18  3 34 11.0800000  0  4G12G13G 9G 7
  20779474.028    20779475.013     8739442.499 8 -22994826.744 8
  21420161.950    21420164.226    37573512.285 9 -44627054.344 9
  23428137.331    23428139.658    78889025.231 9 -96624181.642 8
  25126684.758    25126687.275   -13302724.931 9   4886591.806 8
 86  6 18  3 34 17.0800000  0  4G12G13G 9G 7
  20780464.694    20780466.094     8744654.897 9 -22990765.150 7
  21421879.244    21421880.619    37582536.559 9 -44620022.448 9
  23432738.474    23432742.061    78913205.824 9 -96605339.637 9
                  25124054.929                     4875812.962 9
 86  6 18  3 34 23.0800000  0  4G12G13G 9G 7
  20781460.752    20781463.786     8749893.006 9 -22986683.501 7
  21423597.873    21423598.996    37591564.733 9 -44612987.505 9
  23437341.378    23437343.743    78937392.083 8 -96586493.221 8
  25121425.522    25121428.452   -13352818.182 9   4865056.301 8
 86  6 18  3 34 29.0800000  0  4G12G13G 9G 7
  20782462.481    20782465.573     8755156.834 9 -22982581.824 8
  21425315.449    21425317.980    37600596.726 9 -44605949.581 8
  23441945.765    23441948.114    78961583.949 9 -96567642.407 9
  25118804.602    25118806.995   -13366590.712 9   4854324.460 9
 86  6 18  3 34 35.0800000  0  4G12G13G 9G 7
  20783469.106    20783471.969     8760446.379 8 -22978460.102 8
  21427035.522    21427036.263    37609632.596 9 -44598908.642 9
  23446549.578    23446551.622    78985781.373 9 -96548787.271 8
  25116189.278    25116191.026   -13380333.762 9   4843615.594 9
 86  6 18  3 34 41.0800000  0  4G12G13G 9G 7
  20784480.250    20784483.986     8765761.531 8 -22974318.425 8
  21428755.698    21428756.945    37618672.372 9 -44591864.660 9
  23451154.855    23451157.281    79009984.473 9 -96529927.713 8
  25113579.490    25113580.232   -13394051.692 9   4832926.301 8
 86  6 18  3 34 47.0800000  0  4G12G13G 9G 7
  20785496.807    20785500.284     8771102.382 8 -22970156.720 8
  21430476.896    21430478.642    37627716.051 9 -44584817.636 9
  23455761.375    23455764.670    79034193.145 9 -96511063.816 8
  25110972.310    25110974.704   -13407748.989 9   4822253.087 9
 86  6 18  3 34 53.0800000  0  4G12G13G 9G 7
  20786518.112    20786521.819     8776468.893 8 -22965975.026 9
  21432198.012    21432200.633    37636763.620 9 -44577767.580 9
  23460369.991    23460371.983    79058407.316 9 -96492195.628 8
  25108369.000    25108371.543   -13421428.491 9   4811593.731 9
 86  6 18  3 34 59.0800000  0  4G12G13G 9G 7
  20787544.567    20787547.057     8781861.014 9 -22961773.372 9
  21433921.733    21433922.815    37645815.112 9 -44570714.475 8
  23464978.034    23464980.190    79082626.917 9 -96473323.204 9
  25105769.800    25105771.853   -13435092.497 9   4800946.458 9
 86  6 18  3 35  5.0800000  0  4G12G13G 9G 7
  20788575.950    20788578.650     8787278.748 9 -22957551.752 9
  21435644.044    21435645.375    37654870.437 9 -44563658.378 8
  23469588.141    23469589.925    79106851.967 9 -96454446.532 9
  25103171.993    25103173.900   -13448742.105 9   4790310.410 8
 86  6 18  3 35 11.0800000  0  4G12G13G 9G 7
  20789610.615    20789615.221     8792722.203 9 -22953310.103 8
  21437367.622    21437369.850    37663929.580 9 -44556599.299 8
  23474199.033    23474200.758    79131082.550 8 -96435565.537 8
  25100577.156    25100579.648   -13462375.685 9   4779686.845 9
 86  6 18  3 35 17.0800000  0  4G12G13G 9G 7
  20790652.356    20790655.287     8798191.262 8 -22949048.496 8
  21439092.394    21439093.785    37672992.582 9 -44549537.227 9
  23478810.864    23478813.566    79155318.612 9 -96416680.300 9
                  25097989.737                     4769080.648 9
 86  6 18  3 35 23.0800000  0  4G12G13G 9G 7
  20791699.132    20791700.860     8803686.038 8 -22944766.863 8
  21440817.612    21440819.508    37682059.458 9 -44542472.127 8
  23483423.238    23483426.496    79179560.066 8 -96397790.864 9
  25095402.147    25095405.893   -13512270.085 9   4758497.187 9
 86  6 18  3 35 29.0800000  0  4G12G13G 9G 7
  20792747.821    20792752.173     8809206.398 9 -22940465.281 8
  21442543.860    21442545.849    37691130.056 9 -44535404.124 9
  23488038.598    23488040.758    79203806.959 8 -96378897.193 9
  25092824.524    25092825.709   -13525820.078 9   4747938.756 9
 86  6 18  3 35 35.0800000  0  4G12G13G 9G 7
  20793804.127    20793806.317     8814752.356 9 -22936143.758 9
  21444270.141    21444272.849    37700204.445 9 -44528333.172 9
  23492653.650    23492655.896    79228059.260 8 -96359999.314 9
  25090252.205    25090253.648   -13539340.684 9   4737403.224 9
 86  6 18  3 35 41.0800000  0  4G12G13G 9G 7
  20794863.723    20794867.370     8820323.941 8 -22931802.261 8
  21445997.824    21446000.388    37709282.656 9 -44521259.240 9
  23497268.733    23497271.566    79252316.861 9 -96341097.286 9
  25087683.726    25087685.819   -13552836.489 9   4726887.019 9
 86  6 18  3 35 47.0800000  0  4G12G13G 9G 7
  20795929.590    20795932.564     8825921.060 8 -22927440.862 8
  21447725.782    21447727.664    37718364.706 9 -44514182.325 9
  23501886.278    23501888.134    79276579.658 9 -96322191.204 8
  25085119.537    25085121.975   -13566311.496 9   4716387.008 9
 86  6 18  3 35 53.0800000  0  4G12G13G 9G 7
  20796999.518    20797001.879     8831543.748 9 -22923059.547 8
  21449454.949    21449458.084    37727450.552 9 -44507102.439 9
  23506504.452    23506506.804    79300847.743 9 -96303281.021 9
  25082558.316    25082561.214   -13579768.807 9   4705900.801 9
 86  6 18  3 35 59.0800000  0  4G12G13G 9G 7
  20798075.136    20798077.472     8837191.967 9 -22918658.337 9
  21451184.937    21451186.640    37736540.177 9 -44500019.620 9
  23511124.006    23511125.433    79325121.099 9 -96284366.699 9
  25080001.075    25080003.009   -13593210.505 9   4695426.755 9
 86  6 18  3 36  5.0800000  0  4G12G13G 9G 7
  20799154.423    20799157.098     8842865.785 9 -22914237.179 9
  21452915.598    21452916.602    37745633.519 9 -44492933.897 8
  23515744.486    23515745.379    79349399.644 9 -96265448.342 8
  25077446.222    25077448.712   -13606637.701 9   4684964.008 8
 86  6 18  3 36 11.0800000  0  4G12G13G 9G 7
  20800239.806    20800241.448     8848565.235 9 -22909796.063 8
  21454646.990    21454647.625    37754730.622 9 -44485845.236 8
  23520363.982    23520366.270    79373683.433 8 -96246525.906 8
  25074893.701    25074896.025   -13620048.051 9   4674514.390 9
 86  6 18  3 36 17.0800000  0  4G12G13G 9G 7
  20801327.103    20801331.540     8854290.195 8 -22905335.050 8
  21456378.079    21456379.724    37763831.479 9 -44478753.669 8
  23524986.424    23524988.573    79397972.418 8 -96227599.423 8
                  25072348.493                     4664082.728 9
 86  6 18  3 36 23.0800000  0  4G12G13G 9G 7
  20802422.671    20802424.821     8860040.696 8 -22900854.142 8
  21458110.229    21458113.249    37772936.005 9 -44471659.227 9
  23529610.125    23529611.559    79422266.529 8 -96208668.947 8
  25069805.681    25069805.516   -13669721.822 9   4653674.305 9
 86  6 18  3 36 29.0800000  0  4G12G13G 9G 7
  20803521.874    20803525.512     8865816.646 9 -22896353.402 9
  21459843.651    21459845.714    37782044.232 9 -44464561.911 9
  23534233.033    23534236.392    79446565.798 9 -96189734.466 8
  25067268.631    25067270.622   -13683047.081 9   4643290.994 9
 86  6 18  3 36 35.0800000  0  4G12G13G 9G 7
  20804625.200    20804628.405     8871618.141 9 -22891832.762 8
  21461577.612    21461580.072    37791156.192 9 -44457461.685 9
  23538857.672    23538861.455    79470870.094 8 -96170796.058 8
  25064738.983    25064741.493   -13696343.088 9   4632930.474 9
 86  6 18  3 36 41.0800000  0  4G12G13G 9G 7
  20805734.024    20805737.515     8877445.171 9 -22887292.220 8
  21463312.836    21463313.904    37800271.814 9 -44450358.606 9
  23543485.001    23543487.532    79495179.456 8 -96151853.701 9
  25062213.980    25062215.732   -13709614.311 9   4622589.270 9
 86  6 18  3 36 47.0800000  0  4G12G13G 9G 7
  20806848.479    20806849.895     8883297.716 8 -22882731.800 8
  21465046.931    21465050.162    37809391.161 9 -44443252.624 9
  23548111.869    23548115.084    79519493.825 9 -96132907.442 9
  25059691.595    25059694.575   -13722865.018 9   4612264.049 9
 86  6 18  3 36 53.0800000  0  4G12G13G 9G 7
  20807965.341    20807969.119     8889175.781 9 -22878151.491 8
  21466783.576    21466786.153    37818514.216 9 -44436143.749 9
  23552739.245    23552741.389    79543813.204 9 -96113957.271 9
  25057173.843    25057176.358   -13736097.979 9   4601952.652 9
 86  6 18  3 36 59.0800000  0  4G12G13G 9G 7
  20809089.929    20809091.548     8895079.290 9 -22873551.358 9
  21468520.159    21468521.942    37827640.972 9 -44429031.985 9
  23557367.513    23557369.779    79568137.535 9 -96095003.237 9
  25054658.230    25054660.679   -13749315.243 9   4591653.491 8
 86  6 18  3 37  5.0800000  0  4G12G13G 9G 7
  20810217.264    20810220.214     8901008.283 9 -22868931.367 9
  21470257.467    21470260.221    37836771.383 9 -44421917.379 9
  23561997.843    23561999.362    79592466.839 9 -96076045.343 8
  25052145.716    25052148.108   -13762517.664 9   4581365.895 9
 86  6 18  3 37 11.0800000  0  4G12G13G 9G 7
  20811350.897    20811354.629     8906962.703 9 -22864291.559 8
  21471996.027    21471998.940    37845905.407 9 -44414799.966 9
  23566628.545    23566630.549    79616801.062 9 -96057083.607 8
  25049636.883    25049639.718   -13775702.752 9   4571091.814 8
 86  6 18  3 37 17.0800000  0  4G12G13G 9G 7
  20812487.736    20812491.940     8912942.596 9 -22859631.898 8
  21473735.439    21473737.171    37855043.074 9 -44407679.700 8
  23571260.788    23571263.282    79641140.221 9 -96038118.034 7
                  25047135.248                     4560836.258 8
 86  6 18  3 37 23.0800000  0  4G12G13G 9G 7
  20813631.671    20813634.258     8918947.931 9 -22854952.416 7
  21475474.454    21475476.418    37864184.395 9 -44400556.598 8
  23575892.285    23575894.297    79665484.236 8 -96019148.676 9
  25044632.499    25044636.389   -13825148.943 9   4550604.414 9
 86  6 18  3 37 29.0800000  0  4G12G13G 9G 7
  20814777.922    20814781.313     8924978.721 8 -22850253.096 8
  21477215.270    21477217.066    37873329.378 9 -44393430.636 9
  23580525.760    23580528.678    79689833.081 9 -96000175.558 8
  25042141.667    25042142.979   -13838247.477 9   4540397.757 9
 86  6 18  3 37 35.0800000  0  4G12G13G 9G 7
  20815930.467    20815934.975     8931034.936 8 -22845533.977 8
  21478956.846    21478958.533    37882478.023 9 -44386301.820 9
  23585159.796    23585163.500    79714186.794 8 -95981198.643 9
  25039654.304    25039656.806   -13851316.690 9   4530213.948 9
 86  6 18  3 37 41.0800000  0  4G12G13G 9G 7
  20817088.231    20817091.518     8937116.529 9 -22840795.064 8
  21480697.467    21480699.481    37891630.205 9 -44379170.255 9
  23589795.013    23589798.796    79738545.279 8 -95962218.005 9
  25037171.753    25037173.830   -13864361.374 9   4520049.266 9
 86  6 18  3 37 47.0800000  0  4G12G13G 9G 7
  20818250.192    20818254.040     8943223.516 9 -22836036.377 8
  21482440.364    21482442.426    37900785.941 9 -44372035.904 9
  23594430.324    23594434.094    79762908.468 9 -95943233.704 8
  25034693.716    25034695.037   -13877385.556 9   4509900.562 9
 86  6 18  3 37 53.0800000  0  4G12G13G 9G 7
  20819417.165    20819420.753     8949355.924 8 -22831257.880 9
  21484183.324    21484183.954    37909945.278 9 -44364898.762 9
  23599068.626    23599070.546    79787276.418 8 -95924245.691 8
  25032218.226    25032220.879   -13890391.791 9   4499765.837 9
 86  6 18  3 37 59.0800000  0  4G12G13G 9G 7
  20820589.404    20820591.879     8955513.779 9 -22826459.554 8
  21485925.982    21485927.838    37919108.152 9 -44357758.854 9
  23603706.344    23603709.088    79811649.157 8 -95905253.948 8
  25029746.397    25029747.139   -13903382.330 9   4489643.340 9
 86  6 18  3 38  5.0800000  0  4G12G13G 9G 7
  20821765.704    20821768.337     8961696.977 9 -22821641.475 8
  21487670.532    21487671.957    37928274.590 9 -44350616.184 9
  23608344.785    23608347.534    79836026.544 8 -95886258.577 8
  25027277.049    25027279.105   -13916357.709 9   4479532.661 9
 86  6 18  3 38 11.0800000  0  4G12G13G 9G 7
  20822947.073    20822951.721     8967905.514 9 -22816803.660 9
  21489416.018    21489417.736    37937444.648 9 -44343470.682 9
  23612985.663    23612987.873    79860408.659 9 -95867259.511 8
  25024810.451    25024813.296   -13929315.326 9   4469435.825 9
 86  6 18  3 38 17.0800000  0  4G12G13G 9G 7
  20824132.961    20824137.395     8974139.445 9 -22811946.061 8
  21491161.924    21491163.406    37946618.227 9 -44336322.436 9
  23617625.002    23617628.710    79884795.460 8 -95848256.823 8
                  25022351.647                     4459358.158 9
 86  6 18  3 38 23.0800000  0  4G12G13G 9G 7
  20825324.746    20825328.237     8980398.753 9 -22807068.677 8
  21492907.738    21492909.757    37955795.285 9 -44329171.478 8
  23622266.542    23622269.122    79909186.847 8 -95829250.552 8
  25019893.023    25019896.733   -13978533.358 9   4449304.635 9
 86  6 18  3 38 29.0800000  0  4G12G13G 9G 7
  20826520.508    20826523.771     8986683.428 9 -22802171.532 9
  21494654.769    21494656.546    37964975.866 9 -44322017.779 9
  23626909.620    23626912.341    79933582.688 9 -95810240.815 8
  25017445.759    25017447.736   -13991402.887 9   4439276.445 9
 86  6 18  3 38 35.0800000  0  4G12G13G 9G 7
  20827722.166    20827725.200     8992993.421 8 -22797254.656 8
  21496402.406    21496403.359    37974160.012 9 -44314861.304 9
  23631553.096    23631555.069    79957983.135 9 -95791227.490 8
  25015002.176    25015005.402   -14004243.199 9   4429271.005 9
 86  6 18  3 38 41.0800000  0  4G12G13G 9G 7
  20828926.429    20828931.550     8999328.752 8 -22792318.032 9
  21498150.690    21498152.761    37983347.714 9 -44307702.046 9
  23636198.131    23636200.393    79982388.121 9 -95772210.619 8
  25012563.193    25012565.701   -14017059.004 9   4419284.676 9
 86  6 18  3 38 47.0800000  0  4G12G13G 9G 7
  20830136.902    20830140.750     9005689.445 9 -22787361.641 9
  21499899.469    21499902.043    37992538.966 9 -44300540.034 8
  23640841.642    23640844.922    80006797.696 8 -95753190.169 8
  25010128.318    25010131.323   -14029854.394 9   4409314.240 9
 86  6 18  3 38 53.0800000  0  4G12G13G 9G 7
  20831352.266    20831356.287     9012075.505 9 -22782385.507 9
  21501648.752    21501652.139    38001733.717 9 -44293375.301 9
  23645488.078    23645490.527    80031211.799 9 -95734166.186 8
  25007696.387    25007699.587   -14042631.847 9   4399357.786 9
 86  6 18  3 38 59.0800000  0  4G12G13G 9G 7
  20832571.410    20832576.720     9018486.892 8 -22777389.618 8
  21503399.396    21503401.470    38010931.925 9 -44286207.863 9
  23650134.918    23650136.680    80055630.291 9 -95715138.787 9
  25005268.653    25005271.598   -14055393.555 9   4389413.601 8
 86  6 18  3 39  5.0800000  0  4G12G13G 9G 7
  20833797.452    20833801.387     9024923.562 9 -22772374.027 8
  21505150.892    21505152.396    38020133.572 9 -44279037.755 9
  23654781.771    23654784.021    80080053.156 9 -95696107.981 8
  25002842.631    25002845.336   -14068139.754 9   4379481.500 9
 86  6 18  3 39 11.0800000  0  4G12G13G 9G 7
  20835027.300    20835031.762     9031385.530 9 -22767338.740 8
  21506902.313    21506904.986    38029338.677 9 -44271864.950 9
  23659430.653    23659431.910    80104480.519 9 -95677073.660 9
  25000421.038    25000423.460   -14080867.671 9   4369563.652 9
 86  6 18  3 39 17.0800000  0  4G12G13G 9G 7
  20836261.468    20836264.511     9037872.708 9 -22762283.791 8
  21508654.782    21508656.860    38038547.265 9 -44264689.418 9
  23664080.632    23664082.054    80128912.178 9 -95658036.001 8
                  24998005.985                     4359665.578 9
 86  6 18  3 39 23.0800000  0  4G12G13G 9G 7
  20837501.133    20837504.218     9044385.136 9 -22757209.167 8
  21510407.853    21510409.198    38047759.383 9 -44257511.144 9
  23668730.172    23668731.076    80153348.168 9 -95638994.972 9
  24995592.423    24995593.169   -14129853.717 9   4349792.076 9
 86  6 18  3 39 29.0800000  0  4G12G13G 9G 7
  20838744.682    20838748.018     9050922.837 8 -22752114.862 8
  21512161.000    21512163.029    38056974.951 9 -44250330.184 9
  23673381.699    23673382.651    80177788.530 9 -95619950.531 8
  24993187.428    24993190.370   -14142492.142 9   4339943.963 9
 86  6 18  3 39 35.0800000  0  4G12G13G 9G 7
  20839993.762    20839996.881     9057485.741 8 -22747000.908 9
  21513915.523    21513916.626    38066193.857 9 -44243146.622 9
  23678032.059    23678034.747    80202233.121 9 -95600902.801 9
  24990787.977    24990789.447   -14155102.057 9   4330118.453 9
 86  6 18  3 39 41.0800000  0  4G12G13G 9G 7
  20841246.850    20841251.457     9064073.844 8 -22741867.326 8
  21515670.581    21515672.473    38075416.221 9 -44235960.365 8
  23682684.460    23682687.530    80226682.101 9 -95581851.651 8
  24988393.307    24988396.149   -14167687.150 9   4320311.889 9
 86  6 18  3 39 47.0800000  0  4G12G13G 9G 7
  20842506.087    20842508.920     9070687.106 9 -22736714.126 9
  21517425.445    21517427.428    38084641.978 9 -44228771.460 9
  23687338.033    23687340.947    80251135.305 8 -95562797.216 9
  24986002.687    24986004.392   -14180251.756 9   4310521.301 8
 86  6 18  3 39 53.0800000  0  4G12G13G 9G 7
  20843769.331    20843771.908     9077325.579 8 -22731541.292 8
  21519181.214    21519184.475    38093871.091 9 -44221579.939 9
  23691991.757    23691995.224    80275592.673 9 -95543739.526 8
  24983615.071    24983616.539   -14192798.470 9   4300744.641 9
 86  6 18  3 39 59.0800000  0  4G12G13G 9G 7
  20845037.381    20845040.376     9083989.337 8 -22726348.763 8
  21520938.917    21520941.367    38103103.603 9 -44214385.779 8
  23696647.431    23696649.838    80300054.288 9 -95524678.553 8
  24981230.311    24981231.969   -14205329.269 9   4290980.393 9
 86  6 18  3 40  5.0800000  0  4G12G13G 9G 7
  20846310.876    20846312.533     9090678.279 9 -22721136.594 9
  21522696.301    21522698.299    38112339.486 9 -44207188.987 9
  23701303.238    23701305.098    80324520.096 9 -95505614.290 8
  24978848.786    24978850.977   -14217844.395 9   4281228.355 9
 86  6 18  3 40 11.0800000  0  4G12G13G 9G 7
  20847588.429    20847591.376     9097392.401 9 -22715904.814 8
  21524454.049    21524457.206    38121578.720 9 -44199989.581 9
  23705958.725    23705961.591    80348989.965 9 -95486546.857 9
  24976471.092    24976473.198   -14230340.344 9   4271491.260 8
 86  6 18  3 40 17.0800000  0  4G12G13G 9G 7
  20848870.934    20848873.939     9104131.746 8 -22710653.372 9
  21526214.159    21526215.743    38130821.366 9 -44192787.515 9
  23710616.825    23710618.008    80373464.020 8 -95467476.168 9
                  24974099.710                     4261774.439 8
 86  6 18  3 40 23.0800000  0  4G12G13G 9G 7
  20850157.330    20850159.919     9110896.177 9 -22705382.394 8
  21527973.122    21527974.692    38140067.334 9 -44185582.871 9
  23715274.912    23715276.119    80397942.155 9 -95448402.292 8
  24971731.459    24971733.530   -14279106.670 9   4252082.567 8
 86  6 18  3 40 29.0800000  0  4G12G13G 9G 7
  20851449.680    20851452.371     9117685.692 9 -22700091.858 8
  21529733.450    21529735.417    38149316.718 9 -44178375.557 8
  23719933.495    23719935.393    80422424.302 9 -95429325.289 8
  24969370.912    24969371.295   -14291512.027 9   4242416.068 9
 86  6 18  3 40 35.0800000  0  4G12G13G 9G 7
  20852746.952    20852749.956     9124500.316 9 -22694781.773 8
  21531493.621    21531496.379    38158569.494 9 -44171165.612 8
  23724593.560    23724594.998    80446910.534 9 -95410245.098 9
  24967015.638    24967017.261   -14303887.949 9   4232772.108 9
 86  6 18  3 40 41.0800000  0  4G12G13G 9G 7
  20854047.888    20854051.190     9131340.068 8 -22689452.094 9
  21533255.475    21533257.960    38167825.592 9 -44163953.060 9
  23729253.736    23729254.825    80471400.706 9 -95391161.843 9
  24964664.979    24964666.448   -14316240.168 9   4223147.007 9
 86  6 18  3 40 47.0800000  0  4G12G13G 9G 7
  20855354.431    20855358.278     9138204.994 9 -22684102.807 8
  21535016.923    21535018.290    38177085.048 9 -44156737.901 9
  23733914.838    23733916.949    80495894.948 9 -95372075.417 9
  24962317.691    24962320.207   -14328572.005 9   4213537.785 8
 86  6 18  3 40 53.0800000  0  4G12G13G 9G 7
  20856665.666    20856669.961     9145095.029 8 -22678733.947 9
  21536780.188    21536782.431    38186347.835 9 -44149520.142 9
  23738576.598    23738578.162    80520393.110 9 -95352985.940 8
  24959975.372    24959977.265   -14340885.924 9   4203942.523 9
 86  6 18  3 40 59.0800000  0  4G12G13G 9G 7
  20857981.167    20857985.592     9152010.182 8 -22673345.524 8
  21538542.882    21538545.337    38195614.023 9 -44142299.738 9
  23743239.195    23743241.970    80544895.233 9 -95333893.392 9
  24957634.693    24957637.245   -14353183.927 9   4194359.680 8
 86  6 18  3 41  5.0800000  0  4G12G13G 9G 7
  20859302.682    20859305.285     9158950.412 9 -22667937.555 9
  21540307.626    21540309.009    38204883.447 9 -44135076.805 9
  23747902.605    23747904.671    80569401.241 9 -95314797.800 9
  24955297.609    24955299.561   -14365465.874 9   4184789.329 9
 86  6 18  3 41 11.0800000  0  4G12G13G 9G 7
  20860627.886    20860629.946     9165915.707 8 -22662510.050 8
  21542071.657    21542074.249    38214156.137 9 -44127851.336 9
  23752566.905    23752568.534    80593911.102 8 -95295699.215 8
                  24952966.229                     4175234.368 8
 86  6 18  3 41 17.0800000  0  4G12G13G 9G 7
  20861958.782    20861961.619     9172906.102 9 -22657062.991 9
  21543837.074    21543838.923    38223432.135 9 -44120623.286 9
  23757231.591    23757233.383    80618424.909 9 -95276597.563 9
  24950615.733    24950637.792   -14414040.575 9   4165700.321 9
 86  6 18  3 41 23.0800000  0  4G12G13G 9G 7
  20863292.172    20863297.193     9179921.500 8 -22651596.460 9
  21545602.952    21545605.292    38232711.350 9 -44113392.718 9
  23761895.710    23761899.936    80642942.490 9 -95257492.964 9
  24948313.983    24948315.807   -14426243.622 9   4156191.755 8
 86  6 18  3 41 29.0800000  0  4G12G13G 9G 7
  20864632.747    20864636.233     9186961.970 9 -22646110.383 8
  21547369.336    21547371.262    38241993.836 9 -44106159.610 9
  23766562.466    23766565.111    80667463.767 8 -95238385.488 9
  24945997.728    24945999.721   -14438414.217 9   4146708.566 8
 86  6 18  3 41 35.0800000  0  4G12G13G 9G 7
  20865977.234    20865980.200     9194027.493 8 -22640604.782 8
  21549136.651    21549138.439    38251279.512 9 -44098924.021 9
  23771229.882    23771231.122    80691988.924 9 -95219274.974 9
  24943687.488    24943690.336   -14450555.667 9   4137247.705 9
 86  6 18  3 41 41.0800000  0  4G12G13G 9G 7
  20867327.339    20867330.157     9201117.997 9 -22635079.714 8
  21550903.614    21550906.467    38260568.484 9 -44091685.863 9
  23775896.959    23775899.771    80716517.846 9 -95200161.541 9
  24941381.991    24941383.759   -14462672.997 9   4127805.635 9
 86  6 18  3 41 47.0800000  0  4G12G13G 9G 7
  20868680.615    20868683.976     9208233.486 9 -22629535.188 9
  21552672.452    21552674.763    38269860.729 9 -44084445.149 9
  23780566.163    23780567.680    80741050.445 8 -95181045.224 9
  24939079.583    24939082.461   -14474769.965 9   4118379.440 9
 86  6 18  3 41 53.0800000  0  4G12G13G 9G 7
  20870039.187    20870043.623     9215373.986 9 -22623971.169 9
  21554440.324    21554442.349    38279156.147 9 -44077201.965 9
  23785234.680    23785237.073    80765586.745 8 -95161926.036 9
  24936781.277    24936784.020   -14486848.910 9   4108967.268 9
 86  6 18  3 41 59.0800000  0  4G12G13G 9G 7
  20871402.655    20871406.473     9222539.474 8 -22618387.666 8
  21556210.178    21556212.497    38288454.772 9 -44069956.282 9
  23789905.124    23789906.695    80790126.782 9 -95142803.927 9
  24934485.555    24934488.241   -14498911.805 9   4099567.614 9
 86  6 18  3 42  5.0800000  0  4G12G13G 9G 7
  20872771.530    20872774.304     9229729.915 9 -22612784.734 8
  21557979.342    21557983.021    38297756.643 9 -44062708.067 8
  23794575.898    23794577.129    80814670.417 8 -95123679.015 7
  24932192.767    24932196.035   -14510958.274 9   4090180.764 9
 86  6 18  3 42 11.0800000  0  4G12G13G 9G 7
  20874143.980    20874147.829     9236945.296 9 -22607162.358 8
  21559751.093    21559754.309    38307061.796 9 -44055457.309 9
  23799246.247    23799248.891    80839217.682 9 -95104551.266 8
  24929904.163    24929906.810   -14522984.313 9   4080809.824 9
 86  6 18  3 42 17.0800000  0  4G12G13G 9G 7
  20875522.442    20875525.091     9244185.671 9 -22601520.500 9
  21561522.107    21561525.564    38316370.061 9 -44048204.109 9
  23803919.217    23803919.961    80863768.597 7 -95085420.686 8
                  24927623.613                     4071460.380 8
 86  6 18  3 42 23.0800000  0  4G12G13G 9G 7
  20876904.617    20876908.958     9251451.000 9 -22595859.204 8
  21563293.793    21563297.057    38325681.519 9 -44040948.428 9
  23808591.504    23808592.847    80888323.078 8 -95066287.341 9
  24925344.156    24925346.524   -14571271.385 9   4062136.538 9
 86  6 18  3 42 29.0800000  0  4G12G13G 9G 7
  20878291.704    20878295.644     9258741.241 9 -22590178.503 9
  21565066.458    21565068.863    38334996.042 9 -44033690.359 9
  23813263.687    23813267.063    80912881.021 7 -95047151.291 8
  24923074.222    24923076.247   -14583204.424 9   4052838.064 9
 86  6 18  3 42 35.0800000  0  4G12G13G 9G 7
  20879683.593    20879687.234     9266056.408 8 -22584478.380 8
  21566839.030    21566841.730    38344313.697 9 -44026429.849 9
  23817938.045    23817939.843    80937442.512 8 -95028012.479 9
  24920807.934    24920810.579   -14595108.826 9   4043561.902 8
 86  6 18  3 42 41.0800000  0  4G12G13G 9G 7
  20881081.271    20881084.105     9273396.529 8 -22578758.806 8
  21568612.899    21568616.291    38353634.539 9 -44019166.855 9
  23822613.888    23822616.116    80962007.540 8 -95008870.899 8
  24918547.145    24918550.422   -14606989.315 9   4034304.391 9
 86  6 18  3 42 47.0800000  0  4G12G13G 9G 7
  20882482.968    20882485.197     9280761.582 9 -22573019.799 9
  21570387.791    21570390.497    38362958.601 9 -44011901.349 9
  23827288.354    23827289.745    80986575.993 8 -94989726.660 8
  24916290.452    24916293.674   -14618849.426 9   4025062.748 9
 86  6 18  3 42 53.0800000  0  4G12G13G 9G 7
  20883888.868    20883892.019     9288151.468 9 -22567261.457 9
  21572162.595    21572165.663    38372285.771 9 -44004633.434 9
  23831963.799    23831966.026    81011147.859 8 -94970579.728 8
  24914036.242    24914039.027   -14630691.559 9   4015835.109 9
 86  6 18  3 42 59.0800000  0  4G12G13G 9G 7
  20885299.386    20885301.440     9295566.201 9 -22561483.750 9
  21573938.967    21573941.300    38381616.138 9 -43997363.017 9
  23836640.842    23836642.642    81035723.215 9 -94951430.115 7
  24911786.564    24911789.025   -14642517.513 9   4006620.082 9
 86  6 18  3 43  5.0800000  0  4G12G13G 9G 7
  20886715.236    20886717.923     9303005.723 9 -22555686.716 8
  21575713.970    21575716.913    38390949.650 9 -43990090.140 9
  23841315.915    23841319.803    81060301.854 8 -94932277.938 8
  24909539.525    24909541.538   -14654326.758 9   3997418.083 8
 86  6 18  3 43 11.0800000  0  4G12G13G 9G 7
  20888135.379    20888138.632     9310470.160 9 -22549870.277 8
  21577491.103    21577493.599    38400286.361 9 -43982814.789 9
  23845995.824    23845997.234    81084883.889 8 -94913123.103 8
                  24907299.077                     3988232.423 8
 86  6 18  3 43 17.0800000  0  4G12G13G 9G 7
  20889560.657    20889564.377     9317959.459 9 -22544034.457 8
  21579267.931    21579270.793    38409626.184 9 -43975536.996 9
  23850674.582    23850675.254    81109469.200 7 -94893965.722 8
  24905016.097    24905059.942   -14702432.407 9   3979068.833 9
 86  6 18  3 43 23.0800000  0  4G12G13G 9G 7
  20890991.523    20890993.247     9325473.557 9 -22538179.325 8
  21581046.550    21581048.461    38418969.085 9 -43968256.808 9
  23855352.514    23855354.875    81134057.861 8 -94874805.744 8
  24902826.343    24902828.383   -14714159.090 9   3969931.211 9
 86  6 18  3 43 29.0800000  0  4G12G13G 9G 7
  20892425.383    20892427.846     9333012.400 9 -22532304.906 9
  21582824.674    21582827.023    38428315.094 9 -43960974.216 9
  23860030.764    23860034.653    81158649.871 7 -94855643.158 7
  24900600.959    24900603.319   -14725852.573 9   3960819.022 9
 86  6 18  3 43 35.0800000  0  4G12G13G 9G 7
  20893865.445    20893868.112     9340575.984 9 -22526411.204 9
  21584604.044    21584606.098    38437664.156 9 -43953689.233 9
  23864711.873    23864715.091    81183245.136 7 -94836478.027 9
  24898381.617    24898383.212   -14737518.113 9   3951728.994 9
 86  6 18  3 43 41.0800000  0  4G12G13G 9G 7
  20895308.463    20895311.782     9348164.374 8 -22520498.177 8
  21586383.643    21586385.970    38447016.297 9 -43946401.848 9
  23869393.786    23869395.444    81207843.651 7 -94817310.362 8
  24896166.143    24896167.891   -14749159.710 9   3942657.617 9
 86  6 18  3 43 47.0800000  0  4G12G13G 9G 7
  20896758.261    20896760.285     9355777.584 9 -22514565.808 9
  21588163.363    21588165.652    38456371.516 9 -43939112.066 9
  23874073.861    23874077.893    81232445.354 8 -94798140.199 7
  24893955.238    24893956.160   -14760780.998 9   3933602.078 8
 86  6 18  3 43 53.0800000  0  4G12G13G 9G 7
  20898211.102    20898214.064     9363415.610 9 -22508614.109 9
  21589944.362    21589946.983    38465729.832 9 -43931819.871 9
  23878755.774    23878759.304    81257050.185 8 -94778967.607 9
  24891746.398    24891747.978   -14772384.201 9   3924560.621 9
 86  6 18  3 43 59.0800000  0  4G12G13G 9G 7
  20899669.604    20899672.394     9371078.451 9 -22502643.068 9
  21591726.207    21591727.912    38475091.178 9 -43924525.317 9
  23883439.198    23883441.902    81281658.210 8 -94759792.520 8
  24889541.523    24889543.054   -14783970.942 9   3915531.984 8
 86  6 18  3 44  5.0800000  0  4G12G13G 9G 7
  20901132.390    20901136.063     9378766.043 9 -22496652.735 8
  21593507.924    21593510.353    38484455.528 9 -43917228.422 9
  23888122.796    23888126.058    81306269.376 8 -94740614.978 6
  24887339.557    24887341.703   -14795540.624 9   3906516.659 9
 86  6 18  3 44 11.0800000  0  4G12G13G 9G 7
  20902599.257    20902602.138     9386478.343 9 -22490643.149 8
  21595290.549    21595292.389    38493822.961 9 -43909929.127 9
  23892806.395    23892808.856    81330883.675 9 -94721434.993 8
                  24885144.523                     3897518.234 8
 86  6 18  3 44 17.0800000  0  4G12G13G 9G 7
  20904072.183    20904074.880     9394215.357 9 -22484614.302 9
  21597073.748    21597075.908    38503193.449 9 -43902627.441 8
  23897490.823    23897493.156    81355501.053 8 -94702252.617 8
  24882900.676    24882952.197   -14843408.650 9   3888542.312 8
 86  6 18  3 44 23.0800000  0  4G12G13G 9G 7
  20905549.461    20905551.290     9401977.058 9 -22478566.236 9
  21598857.639    21598859.894    38512566.948 9 -43895323.417 9
  23902176.171    23902179.403    81380121.456 8 -94683067.893 8
  24880764.446    24880766.059   -14854893.910 9   3879592.802 9
 86  6 18  3 44 29.0800000  0  4G12G13G 9G 7
  20907030.499    20907033.997     9409763.444 9 -22472498.931 8
  21600641.965    21600644.407    38521943.430 9 -43888017.063 9
  23906862.690    23906865.851    81404744.918 8 -94663880.786 8
  24878585.078    24878586.446   -14866346.774 9   3870668.504 9
 86  6 18  3 44 35.0800000  0  4G12G13G 9G 7
  20908517.388    20908519.303     9417574.489 9 -22466412.408 8
  21602425.672    21602427.855    38531322.954 9 -43880708.341 9
  23911549.036    23911551.412    81429371.330 7 -94644691.365 8
  24876411.089    24876413.354   -14877771.154 9   3861766.393 9
 86  6 18  3 44 41.0800000  0  4G12G13G 9G 7
  20910008.612    20910010.367     9425410.214 9 -22460306.643 8
  21604212.610    21604213.082    38540705.481 9 -43873397.275 9
  23916235.526    23916237.370    81454000.659 9 -94625499.699 8
  24874241.744    24874245.025   -14889171.893 9   3852882.704 9
 86  6 18  3 44 47.0800000  0  4G12G13G 9G 7
  20911504.492    20911506.271     9433270.656 9 -22454181.629 8
  21605998.034    21605999.931    38550091.046 9 -43866083.846 8
  23920923.559    23920925.634    81478633.007 9 -94606305.670 8
  24872077.198    24872078.858   -14900552.210 9   3844014.932 9
 86  6 18  3 44 53.0800000  0  4G12G13G 9G 7
  20913004.302    20913007.105     9441155.727 9 -22448037.416 9
  21607784.477    21607786.775    38559479.550 9 -43858768.132 8
  23925612.025    23925612.838    81503268.302 8 -94587109.331 9
  24869915.088    24869915.304   -14911914.658 9   3835161.088 9
 86  6 18  3 44 59.0800000  0  4G12G13G 9G 7
  20914509.725    20914512.208     9449065.363 8 -22441874.068 9
  21609572.054    21609574.022    38568870.994 9 -43851450.129 9
  23930298.945    23930302.000    81527906.455 8 -94567910.798 8
  24867755.620    24867757.433   -14923260.406 9   3826320.233 9
 86  6 18  3 45  5.0800000  0  4G12G13G 9G 7
  20916019.182    20916021.908     9456999.619 9 -22435691.524 9
  21611359.079    21611361.305    38578265.368 9 -43844129.840 9
  23934988.438    23934990.726    81552547.429 9 -94548710.041 8
  24865600.024    24865601.688   -14934588.797 9   3817492.921 9
 86  6 18  3 45 11.0800000  0  4G12G13G 9G 7
  20917533.909    20917536.788     9464958.486 9 -22429489.820 9
  21613147.600    21613149.828    38587662.669 9 -43836807.262 9
  23939678.366    23939679.417    81577191.254 9 -94529507.065 8
                  24863450.131                     3808683.066 8
 86  6 18  3 45 17.0800000  0  4G12G13G 9G 7
  20919053.666    20919056.310     9472941.942 9 -22423268.954 9
  21614936.172    21614938.819    38597062.966 9 -43829482.354 9
  23944367.539    23944370.329    81601837.878 8 -94510301.899 8
  24861223.402    24861304.177   -14982216.371 9   3799896.139 8
 86  6 18  3 45 23.0800000  0  4G12G13G 9G 7
  20920577.175    20920580.914     9480949.880 9 -22417028.989 8
  21616726.780    21616726.729    38606466.179 9 -43822155.176 9
  23949058.694    23949061.413    81626487.383 8 -94491094.480 8
  24859163.553    24859165.084   -14993458.717 9   3791135.852 8
 86  6 18  3 45 29.0800000  0  4G12G13G 9G 7
  20922106.390    20922108.380     9488982.407 9 -22410769.889 8
  21618515.793    21618517.468    38615872.300 9 -43814825.725 9
  23953750.708    23953752.565    81651139.596 9 -94471884.962 8
  24857030.050    24857032.046   -15004668.741 9   3782400.775 9
 86  6 18  3 45 35.0800000  0  4G12G13G 9G 7
  20923639.085    20923641.849     9497039.527 8 -22404491.624 8
  21620306.482    21620308.257    38625281.343 9 -43807494.011 9
  23958441.606    23958443.992    81675794.539 8 -94452673.311 8
  24854902.482    24854904.448   -15015850.488 9   3773687.730 9
 86  6 18  3 45 41.0800000  0  4G12G13G 9G 7
  20925177.343    20925179.527     9505121.214 9 -22398194.210 9
  21622097.698    21622099.266    38634693.314 9 -43800160.011 8
  23963134.562    23963136.864    81700452.215 9 -94433459.550 8
  24852779.000    24852781.868   -15027008.580 9   3764993.110 8
 86  6 18  3 45 47.0800000  0  4G12G13G 9G 7
  20926720.535    20926722.538     9513227.403 9 -22391877.692 9
  21623889.059    21623890.991    38644108.199 9 -43792823.731 9
  23967827.204    23967828.563    81725112.547 8 -94414243.694 7
  24850659.635    24850662.337   -15038146.217 9   3756314.439 9
 86  6 18  3 45 53.0800000  0  4G12G13G 9G 7
  20928267.130    20928269.493     9521358.101 9 -22385542.088 8
  21625681.392    21625682.853    38653526.026 9 -43785485.171 9
  23972519.817    23972521.505    81749775.531 8 -94395025.790 8
  24848544.622    24848545.615   -15049265.699 9   3747649.913 9
 86  6 18  3 45 59.0800000  0  4G12G13G 9G 7
  20929818.987    20929820.971     9529513.292 9 -22379187.387 8
  21627473.569    21627475.583    38662946.689 9 -43778144.393 9
  23977214.178    23977215.406    81774441.175 9 -94375805.809 8
  24846431.571    24846432.712   -15060368.534 9   3738998.361 9
 86  6 18  3 46  5.0800000  0  4G12G13G 9G 7
  20931375.443    20931377.507     9537692.940 9 -22372813.635 8
  21629267.541    21629268.265    38672370.259 9 -43770801.348 9
  23981907.767    23981910.854    81799109.448 8 -94356583.784 8
  24844321.272    24844322.781   -15071453.618 9   3730360.633 9
 86  6 18  3 46 11.0800000  0  4G12G13G 9G 7
  20932934.394    20932938.662     9545897.068 9 -22366420.815 8
  21631060.618    21631062.481    38681796.819 9 -43763455.980 8
  23986601.924    23986604.612    81823780.404 8 -94337359.664 8
                  24842219.736                     3721740.874 8
 86  6 18  3 46 17.0800000  0  4G12G13G 9G 7
  20934501.747    20934504.265     9554125.670 9 -22360008.906 8
  21632855.728    21632857.276    38691226.186 9 -43756108.409 9
  23991298.144    23991299.496    81848453.842 9 -94318133.614 8
  24840118.995    24840120.162   -15118836.294 9   3713144.786 9
 86  6 18  3 46 23.0800000  0  4G12G13G 9G 7
  20936072.461    20936075.116     9562378.713 8 -22353577.980 8
  21634650.347    21634651.901    38700658.417 9 -43748758.632 9
  23995993.449    23995996.135    81873129.876 8 -94298905.553 8
  24838023.995    24838026.679   -15129833.803 9   3704575.311 9
 86  6 18  3 46 29.0800000  0  4G12G13G 9G 7
  20937646.965    20937651.186     9570656.176 8 -22347128.009 9
  21636446.049    21636447.414    38710093.447 9 -43741406.651 9
  24000689.695    24000691.625    81897808.279 9 -94279675.634 9
  24835937.704    24835939.916   -15140798.861 9   3696031.109 9
 86  6 18  3 46 35.0800000  0  4G12G13G 9G 7
  20939227.014    20939229.760     9578958.114 9 -22340658.967 8
  21638241.824    21638243.126    38719531.351 9 -43734052.437 9
  24005385.917    24005388.946    81922489.175 9 -94260443.778 9
  24833857.336    24833858.754   -15151735.691 9   3687508.909 9
 86  6 18  3 46 41.0800000  0  4G12G13G 9G 7
  20940811.487    20940814.800     9587284.493 9 -22334170.894 9
  21640038.180    21640039.603    38728972.078 9 -43726696.026 9
  24010083.365    24010085.385    81947172.630 9 -94241209.927 8
  24831780.211    24831782.307   -15162649.047 9   3679004.994 9
 86  6 18  3 46 47.0800000  0  4G12G13G 9G 7
  20942400.355    20942404.547     9595635.292 8 -22327663.784 8
  21641834.891    21641836.967    38738415.669 9 -43719337.385 9
  24014781.187    24014783.317    81971858.441 8 -94221974.235 9
  24829706.856    24829708.999   -15173542.022 9   3670516.973 8
 86  6 18  3 46 53.0800000  0  4G12G13G 9G 7
  20943995.311    20943998.154     9604010.415 9 -22321137.713 9
  21643632.576    21643635.097    38747862.062 9 -43711976.562 9
  24019479.239    24019480.654    81996546.655 8 -94202736.667 9
  24827636.586    24827640.065   -15184416.898 9   3662043.041 9
 86  6 18  3 46 59.0800000  0  4G12G13G 9G 7
  20945593.601    20945596.515     9612409.970 9 -22314592.617 9
  21645430.626    21645432.704    38757311.251 9 -43704613.564 9
  24024177.377    24024180.006    82021237.348 8 -94183497.174 9
  24825570.386    24825573.299   -15195274.935 9   3653582.239 9
 86  6 18  3 47  5.0800000  0  4G12G13G 9G 7
  20947196.345    20947199.841     9620833.852 9 -22308028.555 8
  21647228.826    21647231.304    38766763.232 9 -43697248.386 9
  24028876.373    24028878.618    82045930.421 9 -94164255.830 9
  24823507.438    24823510.943   -15206114.674 9   3645135.687 8
 86  6 18  3 47 11.0800000  0  4G12G13G 9G 7
  20948802.819    20948807.308     9629282.052 9 -22301445.549 9
  21649028.185    21649031.028    38776217.954 9 -43689881.067 9
  24033575.655    24033578.271    82070625.801 8 -94145012.672 8
                  24821452.535                     3636707.701 8
 86  6 18  3 47 17.0800000  0  4G12G13G 9G 7
  20950416.165    20950418.854     9637754.653 8 -22294843.521 9
  21650828.218    21650830.667    38785675.531 9 -43682511.537 9
  24038275.422    24038278.524    82095323.536 8 -94125767.692 9
  24819326.068    24819399.393   -15253258.851 9   3628303.721 9
 86  6 18  3 47 23.0800000  0  4G12G13G 9G 7
  20952032.413    20952036.148     9646251.560 9 -22288222.548 8
  21652628.486    21652630.693    38795135.946 9 -43675139.778 9
  24042975.908    24042978.479    82120023.364 9 -94106521.063 8
  24817350.983    24817353.514   -15264009.720 9   3619926.702 9
 86  6 18  3 47 29.0800000  0  4G12G13G 9G 7
  20953654.526    20953657.740     9654772.819 9 -22281582.612 9
  21654428.552    21654431.086    38804599.158 9 -43667765.849 9
  24047676.589    24047678.764    82144725.534 7 -94087272.618 8
  24815311.557    24815314.826   -15274728.554 9   3611574.767 9
 86  6 18  3 47 35.0800000  0  4G12G13G 9G 7
  20955280.588    20955283.630     9663318.346 8 -22274923.761 8
  21656231.314    21656232.944    38814065.235 9 -43660389.693 9
  24052378.506    24052379.348    82169429.869 7 -94068022.499 9
  24813277.097    24813279.658   -15285418.897 9   3603244.630 9
 86  6 18  3 47 41.0800000  0  4G12G13G 9G 7
  20956910.557    20956914.191     9671888.079 9 -22268246.040 8
  21658031.866    21658034.792    38823533.982 9 -43653011.448 9
  24057078.273    24057081.877    82194136.407 7 -94048770.676 9
  24811246.850    24811249.212   -15296085.794 9   3594932.765 9
 86  6 18  3 47 47.0800000  0  4G12G13G 9G 7
  20958546.057    20958549.823     9680482.099 9 -22261549.409 8
  21659834.221    21659838.105    38833005.473 9 -43645631.069 9
  24061779.131    24061782.805    82218845.192 7 -94029517.087 8
  24809221.727    24809224.298   -15306732.274 9   3586636.827 9
 86  6 18  3 47 53.0800000  0  4G12G13G 9G 7
  20960185.728    20960189.330     9689100.332 9 -22254833.892 9
  21661637.082    21661639.474    38842479.679 9 -43638248.571 9
  24066482.245    24066485.049    82243556.063 7 -94010261.875 9
  24807198.699    24807201.849   -15317360.696 9   3578354.941 9
 86  6 18  3 47 59.0800000  0  4G12G13G 9G 7
  20961831.416    20961834.681     9697742.796 9 -22248099.518 8
  21663440.619    21663443.439    38851956.556 9 -43630863.993 9
  24071184.761    24071189.067    82268269.085 8 -93991004.992 8
  24805179.396    24805181.886   -15327972.050 9   3570086.355 9
 86  6 18  3 48  5.0800000  0  4G12G13G 9G 7
  20963480.929    20963483.712     9706409.457 8 -22241346.287 8
  21665245.231    21665247.844    38861436.162 9 -43623477.285 9
  24075887.447    24075891.382    82292984.252 7 -93971746.439 9
  24803164.891    24803165.938   -15338564.808 9   3561832.254 8
 86  6 18  3 48 11.0800000  0  4G12G13G 9G 7
  20965134.251    20965137.023     9715100.360 9 -22234574.153 9
  21667048.852    21667051.577    38870918.542 9 -43616088.422 8
  24080591.453    24080594.726    82317701.484 8 -93952486.270 9
                  24801154.905                     3553597.266 9
 86  6 18  3 48 17.0800000  0  4G12G13G 9G 7
  20966793.481    20966795.866     9723815.458 9 -22227783.160 9
  21668854.304    21668857.473    38880403.589 9 -43608697.477 9
  24085295.682    24085299.474    82342420.625 7 -93933224.605 9
  24799149.318    24799149.504   -15385452.864 8   3545386.790 9
 86  6 18  3 48 23.0800000  0  4G12G13G 9G 7
  20968455.904    20968458.713     9732554.736 8 -22220973.346 9
  21670660.056    21670661.820    38889891.336 9 -43601304.427 9
  24090000.806    24090002.763    82367141.763 7 -93913961.381 9
  24797149.817    24797151.324   -15395955.061 9   3537203.252 9
 86  6 18  3 48 29.0800000  0  4G12G13G 9G 7
  20970122.505    20970126.216     9741318.167 9 -22214144.702 9
  21672465.832    21672467.461    38899381.746 9 -43593909.299 9
  24094705.467    24094708.488    82391864.952 8 -93894696.568 8
  24795157.941    24795159.623   -15406425.008 9   3529044.872 9
 86  6 18  3 48 35.0800000  0  4G12G13G 9G 7
  20971795.282    20971797.832     9750105.752 9 -22207297.234 9
  21674272.370    21674273.903    38908874.826 9 -43586512.098 8
  24099409.643    24099412.160    82416590.139 8 -93875430.195 9
  24793170.975    24793172.497   -15416867.153 9   3520908.139 9
 86  6 18  3 48 41.0800000  0  4G12G13G 9G 7
  20973472.059    20973475.785     9758917.428 8 -22200430.995 8
  21676079.557    21676080.490    38918370.575 9 -43579112.798 9
  24104116.167    24104118.155    82441317.370 8 -93856162.223 8
  24791189.587    24791190.016   -15427285.840 9   3512789.691 8
 86  6 18  3 48 47.0800000  0  4G12G13G 9G 7
  20975153.604    20975155.890     9767753.195 9 -22193545.982 8
  21677887.081    21677888.642    38927869.052 9 -43571711.396 9
  24108821.572    24108824.690    82466046.394 9 -93836892.860 8
  24789210.074    24789211.341   -15437684.023 9   3504687.217 9
 86  6 18  3 48 53.0800000  0  4G12G13G 9G 7
  20976839.638    20976843.619     9776613.080 8 -22186642.183 8
  21679695.127    21679696.350    38937370.127 9 -43564307.958 9
  24113527.778    24113530.727    82490777.317 8 -93817622.017 9
  24787234.481    24787235.516   -15448063.973 9   3496598.953 9
 86  6 18  3 48 59.0800000  0  4G12G13G 9G 7
  20978529.490    20978533.609     9785497.088 8 -22179719.578 8
  21681503.307    21681506.173    38946873.887 9 -43556902.432 9
  24118234.446    24118236.918    82515510.153 8 -93798349.708 8
  24785263.310    24785264.011   -15458426.905 9   3488523.947 9
 86  6 18  3 49  5.0800000  0  4G12G13G 9G 7
  20980225.314    20980228.573     9794405.165 9 -22172778.221 8
  21683311.803    21683314.191    38956380.358 9 -43549494.787 9
  24122939.309    24122944.458    82540244.826 8 -93779075.929 9
  24783294.368    24783295.095   -15468770.670 9   3480463.887 9
 86  6 18  3 49 11.0800000  0  4G12G13G 9G 7
  20981925.590    20981928.893     9803337.341 9 -22165818.096 8
  21685121.357    21685124.094    38965889.506 9 -43542085.066 9
  24127648.205    24127651.149    82564981.290 7 -93759800.778 8
                  24781332.317                     3472423.327 9
 86  6 18  3 49 17.0800000  0  4G12G13G 9G 7
  20983629.388    20983632.140     9812293.554 9 -22158839.219 8
  21686931.598    21686933.398    38975401.271 9 -43534673.300 9
  24132354.556    24132358.661    82589719.596 8 -93740524.194 8
  24779373.029    24779375.654   -15515416.509 9   3464407.794 9
 86  6 18  3 49 23.0800000  0  4G12G13G 9G 7
  20985338.510    20985342.763     9821273.786 9 -22151841.629 8
  21688741.312    21688743.829    38984915.689 9 -43527259.469 9
  24137062.885    24137066.255    82614459.592 7 -93721246.277 8
  24777422.157    24777423.022   -15525668.288 9   3456419.399 9
 86  6 18  3 49 29.0800000  0  4G12G13G 9G 7
  20987051.750    20987055.166     9830278.048 9 -22144825.324 9
  21690553.219    21690556.434    38994432.694 9 -43519843.618 8
  24141771.949    24141774.766    82639201.416 9 -93701966.943 8
  24775476.955    24775478.292   -15535887.520 9   3448455.986 9
 86  6 18  3 49 35.0800000  0  4G12G13G 9G 7
  20988769.781    20988772.533     9839306.361 9 -22137790.284 9
  21692364.018    21692366.963    39003952.269 9 -43512425.763 9
  24146479.674    24146482.504    82663944.919 8 -93682686.310 8
  24773537.563    24773539.466   -15546079.490 9   3440514.193 9
 86  6 18  3 49 41.0800000  0  4G12G13G 9G 7
  20990491.896    20990496.424     9848358.586 9 -22130736.602 8
  21694176.465    21694179.571    39013474.449 9 -43505005.891 9
  24151189.777    24151192.577    82688690.127 8 -93663404.328 9
  24771602.171    24771603.743   -15556248.196 9   3432590.529 9
 86  6 18  3 49 47.0800000  0  4G12G13G 9G 7
  20992220.221    20992222.513     9857434.844 9 -22123664.199 9
  21695989.402    21695992.561    39022999.244 9 -43497583.967 9
  24155897.639    24155901.602    82713436.986 8 -93644121.055 9
  24769671.191    24769673.302   -15566396.442 9   3424682.823 9
 86  6 18  3 49 53.0800000  0  4G12G13G 9G 7
  20993952.121    20993954.898     9866535.097 9 -22116573.089 8
  21697802.493    21697804.814    39032526.662 9 -43490160.007 9
  24160608.228    24160610.357    82738185.535 9 -93624836.479 8
  24767743.652    24767745.343   -15576526.362 9   3416789.376 9
 86  6 18  3 49 59.0800000  0  4G12G13G 9G 7
  20995688.270    20995690.074     9875659.328 9 -22109463.296 8
  21699615.891    21699617.674    39042056.617 9 -43482734.067 9
  24165317.583    24165320.099    82762935.626 8 -93605550.693 8
  24765819.544    24765821.161   -15586638.940 9   3408909.457 9
 86  6 18  3 50  5.0800000  0  4G12G13G 9G 7
  20997429.130    20997432.105     9884807.466 9 -22102334.885 8
  21701429.356    21701433.099    39051589.181 9 -43475306.099 9
  24170028.083    24170030.614    82787687.385 9 -93586263.610 9
  24763898.650    24763900.520   -15596731.903 9   3401044.818 9
 86  6 18  3 50 11.0800000  0  4G12G13G 9G 7
  20999174.043    20999176.962     9893979.529 9 -22095187.828 9
  21703244.008    21703246.900    39061124.396 9 -43467876.056 9
  24174737.810    24174740.999    82812440.690 8 -93566975.303 8
                  24761984.840                     3393200.269 8
 86  6 18  3 50 17.0800000  0  4G12G13G 9G 7
  21000924.795    21000926.564     9903175.523 9 -22088022.120 9
  21705059.451    21705062.104    39070662.159 9 -43460444.033 8
  24179449.172    24179451.227    82837195.482 9 -93547685.870 8
  24760073.232    24760074.700   -15643125.117 9   3385381.157 9
 86  6 18  3 50 23.0800000  0  4G12G13G 9G 7
  21002679.182    21002682.193     9912395.398 9 -22080837.802 9
  21706874.435    21706876.510    39080202.493 9 -43453010.006 9
  24184159.553    24184162.100    82861951.863 9 -93528395.176 9
  24758170.361    24758172.796   -15653124.816 9   3377589.188 9
 86  6 18  3 50 29.0800000  0  4G12G13G 9G 7
  21004437.241    21004440.374     9921639.127 9 -22073634.893 9
  21708690.457    21708693.465    39089745.452 9 -43445573.940 9
  24188871.055    24188873.875    82886709.639 8 -93509103.400 9
  24756273.324    24756276.308   -15663092.823 9   3369822.301 9
 86  6 18  3 50 35.0800000  0  4G12G13G 9G 7
  21006200.992    21006204.178     9930906.650 9 -22066413.458 8
  21710506.960    21710509.045    39099291.010 9 -43438135.837 9
  24193582.101    24193585.489    82911468.868 8 -93489810.508 8
  24754381.741    24754384.020   -15673032.918 9   3362076.780 9
 86  6 18  3 50 41.0800000  0  4G12G13G 9G 7
  21007969.857    21007971.671     9940198.065 9 -22059173.393 9
  21712323.605    21712327.040    39108839.123 9 -43430695.748 8
  24198294.204    24198297.293    82936229.575 8 -93470516.450 8
  24752494.405    24752497.582   -15682949.760 9   3354349.376 9
 86  6 18  3 50 47.0800000  0  4G12G13G 9G 7
  21009742.737    21009744.677     9949513.290 9 -22051914.778 8
  21714141.280    21714143.199    39118389.740 9 -43423253.709 8
  24203005.018    24203009.482    82960991.701 7 -93451221.295 8
  24750610.345    24750613.916   -15692846.173 9   3346637.889 9
 86  6 18  3 50 53.0800000  0  4G12G13G 9G 7
  21011519.112    21011522.422     9958852.328 9 -22044637.602 9
  21715959.183    21715961.143    39127942.913 9 -43415809.677 9
  24207718.440    24207722.717    82985755.225 7 -93431925.065 8
  24748730.660    24748734.076   -15702724.288 9   3338940.663 9
 86  6 18  3 50 59.0800000  0  4G12G13G 9G 7
  21013301.220    21013303.195     9968215.141 9 -22037341.914 8
  21717777.727    21717779.479    39137498.650 9 -43408363.657 9
  24212430.369    24212433.815    83010520.039 8 -93412627.824 8
  24746855.279    24746857.140   -15712584.787 9   3331257.166 9
 86  6 18  3 51  5.0800000  0  4G12G13G 9G 7
  21015087.845    21015090.060     9977601.718 9 -22030027.701 9
  21719596.274    21719597.699    39147056.870 9 -43400915.682 8
  24217143.018    24217147.675    83035286.258 8 -93393329.489 9
  24744982.907    24744984.912   -15722425.223 9   3323589.297 8
 86  6 18  3 51 11.0800000  0  4G12G13G 9G 7
  21016877.708    21016881.152     9987012.053 8 -22022694.983 8
  21721414.633    21721418.034    39156617.581 9 -43393465.777 9
  24221857.952    24221860.170    83060053.832 8 -93374030.094 9
                  24743117.362                     3315942.090 8
 86  6 18  3 51 17.0800000  0  4G12G13G 9G 7
  21018673.251    21018675.729     9996446.138 8 -22015343.744 8
  21723235.911    21723237.763    39166180.784 9 -43386013.933 9
  24226570.257    24226573.687    83084822.585 8 -93354729.780 8
  24741254.911    24741256.321   -15768563.482 9   3308320.674 9
 86  6 18  3 51 23.0800000  0  4G12G13G 9G 7
  21020472.619    21020476.730    10005903.919 9 -22007974.037 9
  21725055.794    21725057.842    39175746.441 9 -43378560.171 9
  24231284.132    24231287.679    83109592.614 8 -93335428.482 9
  24739399.700    24739402.341   -15778309.301 9   3300726.525 9
 86  6 18  3 51 29.0800000  0  4G12G13G 9G 7
  21022277.527    21022280.432    10015385.518 9 -22000585.784 8
  21726877.021    21726878.723    39185314.560 9 -43371104.497 9
  24235998.411    24236001.111    83134363.856 7 -93316126.216 8
  24737551.504    24737553.143   -15788022.865 9   3293157.135 9
 86  6 18  3 51 35.0800000  0  4G12G13G 9G 7
  21024085.983    21024087.917    10024890.833 9 -21993179.048 8
  21728697.477    21728699.115    39194885.146 9 -43363646.898 9
  24240712.574    24240714.820    83159136.393 8 -93296822.951 9
  24735707.908    24735710.491   -15797709.493 9   3285609.119 8
 86  6 18  3 51 41.0800000  0  4G12G13G 9G 7
  21025898.519    21025901.488    10034419.844 9 -21985753.843 9
  21730519.273    21730522.286    39204458.233 9 -43356187.353 9
  24245426.507    24245429.098    83183909.992 7 -93277518.846 9
  24733869.536    24733871.666   -15807372.954 9   3278079.151 8
 86  6 18  3 51 47.0800000  0  4G12G13G 9G 7
  21027716.708    21027719.538    10043972.607 9 -21978310.133 9
  21732341.271    21732343.955    39214033.757 9 -43348725.896 9
  24250141.015    24250143.775    83208684.851 8 -93258213.766 8
  24732034.564    24732036.508   -15817016.073 9   3270565.041 9
 86  6 18  3 51 53.0800000  0  4G12G13G 9G 7
  21029538.536    21029542.118    10053548.975 9 -21970848.027 9
  21734164.062    21734166.668    39223611.745 9 -43341262.528 8
  24254855.780    24254858.654    83233460.731 7 -93238907.875 8
  24730203.511    24730204.604   -15826640.885 9   3263065.186 9
 86  6 18  3 51 59.0800000  0  4G12G13G 9G 7
  21031365.893    21031369.257    10063148.958 9 -21963367.514 8
  21735987.409    21735989.457    39233192.202 9 -43333797.236 9
  24259571.202    24259572.988    83258237.791 8 -93219601.091 8
  24728375.254    24728376.180   -15836247.780 9   3255579.304 9
 86  6 18  3 52  5.0800000  0  4G12G13G 9G 7
  21033196.623    21033200.582    10072772.557 9 -21955868.608 9
  21737811.303    21737813.173    39242775.049 9 -43326330.086 8
  24264285.825    24264288.557    83283015.881 8 -93200293.487 8
  24726550.834    24726551.537   -15845834.201 9   3248109.375 9
 86  6 18  3 52 11.0800000  0  4G12G13G 9G 7
  21035032.405    21035035.982    10082419.744 9 -21948351.322 9
  21739634.860    21739637.959    39252360.297 9 -43318861.060 9
  24269001.987    24269003.590    83307795.116 8 -93180984.996 8
                  24724732.900                     3240660.684 9
 86  6 18  3 52 17.0800000  0  4G12G13G 9G 7
  21036873.568    21036876.351    10092090.492 9 -21940815.687 8
  21741459.955    21741462.137    39261947.982 9 -43311390.131 9
  24273718.017    24273719.657    83332575.360 8 -93161675.718 8
  24722919.463    24722921.369   -15891713.838 9   3233238.245 8
 86  6 18  3 52 23.0800000  0  4G12G13G 9G 7
  21038718.255    21038721.400    10101784.787 9 -21933261.696 8
  21743283.561    21743287.169    39271538.049 9 -43303917.355 9
  24278432.553    24278434.751    83357356.646 8 -93142365.638 9
  24721113.188    24721114.768   -15901204.223 9   3225843.142 8
 86  6 18  3 52 29.0800000  0  4G12G13G 9G 7
  21040567.137    21040571.446    10111502.681 8 -21925689.317 8
  21745109.077    21745113.087    39281130.573 9 -43296442.655 9
  24283147.370    24283150.130    83382138.858 7 -93123054.853 8
  24719312.594    24719314.876   -15910662.854 9   3218472.775 9
 86  6 18  3 52 35.0800000  0  4G12G13G 9G 7
  21042420.921    21042424.417    10121244.156 9 -21918098.551 9
  21746935.031    21746938.070    39290725.569 9 -43288966.033 9
  24287863.480    24287867.197    83406921.999 8 -93103743.311 9
  24717517.925    24717520.127   -15920094.244 9   3211123.649 9
 86  6 18  3 52 41.0800000  0  4G12G13G 9G 7
  21044279.625    21044281.722    10131009.202 9 -21910489.423 8
  21748762.429    21748765.258    39300322.960 9 -43281487.554 9
  24292581.108    24292583.507    83431706.079 7 -93084431.061 9
  24715728.103    24715730.243   -15929502.531 9   3203792.524 9
 86  6 18  3 52 47.0800000  0  4G12G13G 9G 7
  21046142.618    21046145.494    10140797.712 9 -21902862.015 8
  21750588.632    21750591.417    39309922.703 9 -43274007.234 9
  24297296.500    24297300.018    83456491.050 8 -93065118.111 9
  24713941.150    24713942.653   -15938890.317 9   3196477.366 9
 86  6 18  3 52 53.0800000  0  4G12G13G 9G 7
  21048009.504    21048012.459    10150609.690 9 -21895216.315 8
  21752416.145    21752419.473    39319524.802 9 -43266525.076 8
  24302013.814    24302016.628    83481276.889 7 -93045804.491 8
  24712158.278    24712159.315   -15948259.840 9   3189176.446 9
 86  6 18  3 52 59.0800000  0  4G12G13G 9G 7
  21049879.976    21049884.136    10160445.243 9 -21887552.264 9
  21754243.988    21754245.834    39329129.343 9 -43259041.013 9
  24306729.891    24306733.828    83506063.633 7 -93026490.157 9
  24710379.458    24710379.713   -15957611.230 9   3181889.658 9
 86  6 18  3 53  5.0800000  0  4G12G13G 9G 7
  21051756.807    21051759.819    10170304.197 9 -21879869.957 8
  21756071.410    21756073.797    39338736.155 9 -43251555.187 9
  24311446.258    24311449.978    83530851.220 7 -93007175.176 9
  24708602.548    24708604.784   -15966941.666 9   3174619.191 9
 86  6 18  3 53 11.0800000  0  4G12G13G 9G 7
  21053637.697    21053640.820    10180186.585 9 -21872169.401 8
  21757900.717    21757902.448    39348345.418 9 -43244067.434 9
  24316163.458    24316168.136    83555639.570 8 -92987859.584 8
                  24706835.385                     3167370.462 8
 86  6 18  3 53 17.0800000  0  4G12G13G 9G 7
  21055523.099    21055525.901    10190092.345 9 -21864450.627 8
  21759729.859    21759732.079    39357957.085 9 -43236577.830 9
  24320881.712    24320885.102    83580428.718 8 -92968543.386 8
  24705068.171    24705071.430   -16012568.215 9   3160148.256 9
 86  6 18  3 53 23.0800000  0  4G12G13G 9G 7
  21057410.983    21057415.247    10200021.523 9 -21856713.615 8
  21761559.641    21761561.566    39367571.173 9 -43229086.322 9
  24325598.477    24325602.069    83605218.598 7 -92949226.613 9
  24703311.416    24703313.832   -16021801.551 9   3152953.461 9
 86  6 18  3 53 29.0800000  0  4G12G13G 9G 7
  21059305.432    21059309.183    10209974.105 9 -21848958.346 8
  21763389.006    21763391.754    39377187.612 9 -43221592.993 9
  24330317.194    24330319.855    83630009.163 8 -92929909.297 8
  24701560.387    24701563.188   -16031003.721 9   3145783.336 8
 86  6 18  3 53 35.0800000  0  4G12G13G 9G 7
  21061204.141    21061207.131    10219950.108 8 -21841184.842 9
  21765220.250    21765221.629    39386806.359 9 -43214097.863 9
  24335034.419    24335037.080    83654800.480 9 -92910591.390 9
  24699814.895    24699817.287   -16040178.474 9   3138634.174 8
 86  6 18  3 53 41.0800000  0  4G12G13G 9G 7
  21063106.697    21063109.589    10229949.490 9 -21833393.113 8
  21767050.429    21767052.500    39396427.413 9 -43206600.936 8
  24339751.932    24339755.090    83679592.432 8 -92891272.988 8
  24698073.258    24698076.009   -16049330.086 9   3131503.053 9
 86  6 18  3 53 47.0800000  0  4G12G13G 9G 7
  21065014.491    21065016.375    10239972.252 9 -21825583.176 8
  21768881.611    21768884.982    39406050.783 9 -43199102.209 9
  24344470.359    24344472.276    83704385.100 9 -92871954.046 8
  24696336.155    24696338.554   -16058461.220 9   3124387.893 9
 86  6 18  3 53 53.0800000  0  4G12G13G 9G 7
  21066926.059    21066929.130    10250018.394 9 -21817755.005 8
  21770713.351    21770716.101    39415676.444 9 -43191601.695 9
  24349188.586    24349190.860    83729178.337 9 -92852634.635 8
  24694600.597    24694603.262   -16067573.797 9   3117287.187 9
 86  6 18  3 53 59.0800000  0  4G12G13G 9G 7
  21068841.876    21068844.609    10260087.901 8 -21809908.632 8
  21772545.616    21772547.685    39425304.436 9 -43184099.358 9
  24353906.129    24353908.770    83753972.241 9 -92833314.720 9
  24692871.233    24692873.158   -16076668.132 9   3110200.698 8
 86  6 18  3 54  5.0800000  0  4G12G13G 9G 7
  21070762.557    21070765.973    10270180.724 9 -21802044.101 8
  21774377.811    21774380.433    39434934.760 9 -43176595.217 9
  24358624.065    24358626.772    83778766.695 9 -92813994.368 8
  24691144.634    24691146.913   -16085740.971 9   3103130.960 9
 86  6 18  3 54 11.0800000  0  4G12G13G 9G 7
  21072687.106    21072690.897    10280296.863 9 -21794161.386 9
  21776210.758    21776213.687    39444567.419 9 -43169089.232 9
  24363343.149    24363345.095    83803561.642 8 -92794673.637 9
                  24689426.049                     3096083.330 9
 86  6 18  3 54 17.0800000  0  4G12G13G 9G 7
  21074617.566    21074620.228    10290436.268 8 -21786260.564 9
  21778044.210    21778047.265    39454202.355 9 -43161581.484 8
  24368061.295    24368063.996    83828357.202 9 -92775352.423 8
  24687708.840    24687711.647   -16131113.894 9   3089062.586 9
 86  6 18  3 54 23.0800000  0  4G12G13G 9G 7
  21076550.884    21076554.642    10300598.840 9 -21778341.681 9
  21779878.826    21779880.702    39463839.595 9 -43154071.960 9
  24372779.150    24372782.827    83853153.242 8 -92756030.845 9
  24686001.522    24686003.309   -16140088.736 9   3082069.215 8
 86  6 18  3 54 29.0800000  0  4G12G13G 9G 7
  21078488.736    21078492.439    10310784.658 8 -21770404.678 8
  21781713.318    21781715.259    39473479.195 9 -43146560.582 9
  24377498.266    24377500.891    83877949.789 9 -92736708.867 8
  24684299.548    24684301.095   -16149031.609 9   3075100.363 9
 86  6 18  3 54 35.0800000  0  4G12G13G 9G 7
  21080432.183    21080434.923    10320993.701 9 -21762449.575 8
  21783547.912    21783550.796    39483120.997 9 -43139047.486 9
  24382217.321    24382220.282    83902746.753 9 -92717386.569 9
  24682602.613    24682605.207   -16157948.100 9   3068152.457 9
 86  6 18  3 54 41.0800000  0  4G12G13G 9G 7
  21082378.932    21082382.798    10331225.954 8 -21754476.392 9
  21785383.337    21785386.189    39492765.054 9 -43131532.638 9
  24386936.120    24386938.650    83927544.123 9 -92698063.941 9
  24680909.852    24680911.563   -16166841.428 9   3061222.588 9
 86  6 18  3 54 47.0800000  0  4G12G13G 9G 7
  21084330.630    21084333.518    10341481.371 9 -21746485.160 8
  21787218.977    21787220.108    39502411.313 9 -43124016.067 9
  24391654.690    24391657.939    83952341.880 9 -92678741.016 9
  24679221.479    24679224.350   -16175714.336 9   3054308.655 9
 86  6 18  3 54 53.0800000  0  4G12G13G 9G 7
  21086287.275    21086289.448    10351760.053 9 -21738475.801 8
  21789054.604    21789056.916    39512059.769 9 -43116497.789 9
  24396373.603    24396377.480    83977139.947 8 -92659417.855 9
  24677536.296    24677539.258   -16184568.670 9   3047409.173 9
 86  6 18  3 54 59.0800000  0  4G12G13G 9G 7
  21088247.927    21088250.785    10362061.935 9 -21730448.367 8
  21790891.847    21790894.005    39521710.432 9 -43108977.789 9
  24401092.461    24401095.062    84001938.486 9 -92640094.334 9
  24675854.557    24675858.279   -16193404.513 9   3040524.107 9
 86  6 18  3 55  5.0800000  0  4G12G13G 9G 7
  21090212.169    21090215.597    10372386.923 9 -21722402.918 9
  21792728.303    21792730.021    39531363.354 9 -43101456.026 9
  24405810.860    24405813.922    84026737.329 9 -92620770.555 8
                  24674180.435                     3033656.059 9
 86  6 18  3 55 11.0800000  0  4G12G13G 9G 7
  21092181.947    21092183.603    10382735.066 9 -21714339.438 8
  21794565.906    21794567.741    39541018.622 9 -43093932.434 8
  24410530.377    24410533.350    84051536.476 9 -92601446.552 8
                  24672509.066                     3026810.726 8
 86  6 18  3 55 17.0800000  0  4G12G13G 9G 7
  21094155.376    21094158.157    10393106.303 9 -21706257.953 9
  21796403.203    21796405.490    39550676.040 9 -43086407.163 9
  24415249.892    24415252.707    84076335.891 9 -92582122.334 9
  24670840.099    24670843.443   -16247694.865 9   3019992.540 9
 86  6 18  3 55 23.0800000  0  4G12G13G 9G 7
  21096131.933    21096136.009    10403500.653 9 -21698158.456 9
  21798241.341    21798243.101    39560335.722 9 -43078880.145 9
  24419969.122    24419972.838    84101135.547 9 -92562797.927 9
  24669183.550    24669184.857   -16256409.835 9   3013201.679 9
 86  6 18  3 55 29.0800000  0  4G12G13G 9G 7
  21098114.984    21098118.500    10413918.034 7 -21690041.028 8
  21800080.123    21800081.419    39569997.603 9 -43071351.404 9
  24424689.667    24424691.078    84125935.497 9 -92543473.299 8
  24667529.655    24667532.255   -16265093.831 9   3006435.324 9
 86  6 18  3 55 35.0800000  0  4G12G13G 9G 7
  21100101.799    21100105.481    10424358.459 9 -21681905.636 9
  21801918.639    21801920.325    39579661.786 9 -43063820.867 9
  24429408.580    24429410.851    84150735.583 8 -92524148.565 9
  24665883.679    24665885.455   -16273750.623 9   2999689.784 9
 86  6 18  3 55 41.0800000  0  4G12G13G 9G 7
  21102092.986    21102095.878    10434821.921 9 -21673752.293 8
  21803758.195    21803759.782    39589328.117 9 -43056288.660 9
  24434127.321    24434129.898    84175535.821 9 -92504823.713 8
  24664240.693    24664242.302   -16282384.476 9   2992962.111 9
 86  6 18  3 55 47.0800000  0  4G12G13G 9G 7
  21104087.927    21104091.740    10445308.373 9 -21665581.034 9
  21805598.091    21805599.289    39598996.691 9 -43048754.700 9
  24438846.577    24438849.438    84200336.319 9 -92485498.655 8
  24662601.565    24662603.016   -16290997.788 9   2986250.449 9
 86  6 18  3 55 53.0800000  0  4G12G13G 9G 7
  21106088.113    21106091.896    10455817.770 9 -21657391.909 8
  21807438.947    21807439.771    39608667.447 9 -43041219.045 9
  24443566.125    24443569.066    84225136.838 9 -92466173.587 9
  24660965.491    24660967.566   -16299592.525 9   2979553.261 9
 86  6 18  3 55 59.0800000  0  4G12G13G 9G 7
  21108092.164    21108095.195    10466350.133 8 -21649184.853 9
  21809279.426    21809281.284    39618340.405 9 -43033681.666 9
  24448284.434    24448288.727    84249937.493 8 -92446848.407 8
  24659334.335    24659335.856   -16308168.449 9   2972870.718 9
 86  6 18  3 56  5.0800000  0  4G12G13G 9G 7
  21110101.343    21110105.047    10476905.465 8 -21640959.934 9
  21811120.530    21811122.137    39628015.533 9 -43026142.610 9
  24453005.095    24453008.241    84274738.243 8 -92427523.163 9
                  24657707.864                     2966205.713 9
 86  6 18  3 56 11.0800000  0  4G12G13G 9G 7
  21112114.226    21112117.111    10487483.788 8 -21632717.089 9
  21812961.778    21812963.054    39637692.876 9 -43018601.816 9
  24457723.979    24457727.470    84299539.109 8 -92408197.818 8
  24656093.178    24656085.737   -16353085.138 9   2959563.766 8
 86  6 18  3 56 17.0800000  0  4G12G13G 9G 7
  21114131.705    21114134.839    10498085.078 9 -21624456.334 9
  21814803.782    21814806.364    39647372.315 9 -43011059.396 9
  24462443.354    24462446.314    84324339.820 9 -92388872.600 7
  24654468.521    24654471.043   -16361573.654 9   2952949.416 9
 86  6 18  3 56 23.0800000  0  4G12G13G 9G 7
  21116152.859    21116155.979    10508709.300 9 -21616177.728 8
  21816646.183    21816647.593    39657053.910 9 -43003515.294 9
  24467163.382    24467167.157    84349140.503 8 -92369547.399 8
  24652860.699    24652862.228   -16370027.133 9   2946362.298 9
 86  6 18  3 56 29.0800000  0  4G12G13G 9G 7
  21118179.283    21118182.836    10519356.428 8 -21607881.275 8
  21818488.564    21818491.174    39666737.774 9 -42995969.429 9
  24471884.130    24471883.953    84373941.268 9 -92350222.128 8
  24651257.097    24651258.908   -16378448.892 9   2939799.507 9
 86  6 18  3 56 35.0800000  0  4G12G13G 9G 7
  21120209.916    21120212.268    10530026.445 8 -21599566.969 9
  21820332.174    21820333.771    39676423.807 9 -42988421.869 9
  24476601.725    24476605.288    84398742.071 9 -92330896.839 8
  24649659.876    24649660.939   -16386844.466 9   2933257.517 9
 86  6 18  3 56 41.0800000  0  4G12G13G 9G 7
  21122245.606    21122247.510    10540719.301 9 -21591234.878 8
  21822175.570    21822178.088    39686111.907 9 -42980872.696 8
  24481322.128    24481323.798    84423542.645 8 -92311571.717 8
  24648067.859    24648067.643   -16395217.106 9   2926733.388 8
 86  6 18  3 56 47.0800000  0  4G12G13G 9G 7
  21124283.769    21124286.336    10551435.075 9 -21582884.927 8
  21824020.346    21824021.232    39695802.158 9 -42973321.857 9
  24486041.556    24486043.570    84448343.232 9 -92292246.604 7
  24646477.307    24646478.607   -16403569.332 9   2920225.164 9
 86  6 18  3 56 53.0800000  0  4G12G13G 9G 7
  21126327.058    21126329.700    10562173.699 9 -21574517.164 9
  21825864.216    21825865.596    39705494.486 9 -42965769.392 9
  24490760.270    24490762.834    84473143.661 7 -92272921.581 8
  24644891.047    24644892.168   -16411902.775 9   2913731.584 9
 86  6 18  3 56 59.0800000  0  4G12G13G 9G 7
  21128375.823    21128377.236    10572935.097 8 -21566131.673 8
  21827709.062    21827711.026    39715189.030 9 -42958215.194 9
  24495479.302    24495480.986    84497943.861 7 -92253596.745 8
  24643308.593    24643311.234   -16420217.274 9   2907252.748 8
 86  6 18  3 57  5.0800000  0  4G12G13G 9G 7
  21130427.631    21130429.196    10583719.293 9 -21557728.395 8
  21829553.803    21829556.167    39724885.642 9 -42950659.393 8
  24500197.583    24500201.017    84522744.046 8 -92234271.939 7
                  24641733.098                     2900792.065 9
 86  6 18  3 57 11.0800000  0  4G12G13G 9G 7
  21132483.652    21132486.056    10594526.324 8 -21549307.341 9
  21831399.561    21831400.500    39734584.427 9 -42943101.889 9
  24504917.414    24504920.518    84547543.880 8 -92214947.403 8
  24640175.616    24640160.964   -16464875.655 9   2894354.870 8
 86  6 18  3 57 17.0800000  0  4G12G13G 9G 7
  21134545.149    21134548.206    10605356.016 8 -21540868.617 8
  21833244.875    21833247.809    39744285.317 9 -42935542.757 9
  24509637.188    24509639.617    84572343.482 7 -92195623.038 7
  24638593.214    24638595.239   -16473101.150 9   2887945.336 8
 86  6 18  3 57 23.0800000  0  4G12G13G 9G 7
  21136609.533    21136612.884    10616208.462 9 -21532412.170 8
  21835091.676    21835093.668    39753988.345 9 -42927981.956 9
  24514356.014    24514358.629    84597143.039 7 -92176298.720 8
  24637035.069    24637036.609   -16481291.595 9   2881563.173 9
 86  6 18  3 57 29.0800000  0  4G12G13G 9G 7
  21138678.540    21138681.794    10627083.719 8 -21523937.953 9
  21836938.515    21836940.332    39763693.439 9 -42920419.538 9
  24519073.926    24519077.717    84621942.215 8 -92156974.705 8
  24635483.244    24635484.548   -16489450.963 9   2875205.231 9
 86  6 18  3 57 35.0800000  0  4G12G13G 9G 7
  21140751.058    21140755.545    10637981.721 8 -21515446.018 8
  21838785.522    21838788.309    39773400.658 9 -42912855.473 8
  24523793.727    24523797.720    84646741.110 7 -92137650.893 7
  24633935.048    24633937.250   -16497583.941 9   2868867.852 9
 86  6 18  3 57 41.0800000  0  4G12G13G 9G 7
  21142830.906    21142833.942    10648902.364 9 -21506936.414 8
  21840632.920    21840635.336    39783110.016 9 -42905289.746 9
  24528513.645    24528515.618    84671539.683 8 -92118327.336 7
  24632391.146    24632393.112   -16505694.049 8   2862548.284 9
 86  6 18  3 57 47.0800000  0  4G12G13G 9G 7
  21144913.262    21144916.318    10659845.699 8 -21498409.155 9
  21842480.822    21842483.435    39792821.401 9 -42897722.428 9
  24533232.589    24533236.354    84696337.944 6 -92099004.017 7
  24630852.456    24630854.813   -16513783.544 9   2856244.791 9
 86  6 18  3 57 53.0800000  0  4G12G13G 9G 7
  21146999.680    21147003.062    10670811.640 9 -21489864.283 8
  21844329.154    21844331.866    39802534.773 9 -42890153.565 9
  24537951.329    24537954.921    84721135.796 7 -92079681.033 7
  24629316.125    24629318.840   -16521854.173 9   2849955.995 9
 86  6 18  3 57 59.0800000  0  4G12G13G 9G 7
  21149089.712    21149093.824    10681800.195 9 -21481301.762 8
  21846178.066    21846180.988    39812250.245 9 -42882583.062 9
  24542669.412    24542673.889    84745933.271 8 -92060358.347 8
  24627783.696    24627787.061   -16529905.516 9   2843682.225 9
 86  6 18  3 58  5.0800000  0  4G12G13G 9G 7
  21151185.977    21151189.366    10692811.418 9 -21472721.601 8
  21848027.107    21848030.494    39821967.791 9 -42875010.947 9
  24547386.981    24547391.831    84770730.400 7 -92041035.914 8
                  24626259.479                     2837426.925 8
 86  6 18  3 58 11.0800000  0  4G12G13G 9G 7
  21153285.464    21153289.143    10703845.216 9 -21464123.835 8
  21849876.605    21849879.857    39831687.387 9 -42867437.236 9
  24552107.241    24552110.499    84795527.016 7 -92021713.878 8
  24624664.304    24624737.668   -16574298.482 9   2831195.614 8
 86  6 18  3 58 17.0800000  0  4G12G13G 9G 7
  21155388.765    21155392.924    10714901.578 9 -21455508.476 8
  21851727.033    21851730.838    39841408.990 9 -42859861.959 9
  24556825.583    24556827.772    84820323.235 7 -92002392.154 8
  24623219.849    24623221.744   -16582259.531 9   2824992.225 8
 86  6 18  3 58 23.0800000  0  4G12G13G 9G 7
  21157498.525    21157501.769    10725980.517 9 -21446875.553 8
  21853576.733    21853579.977    39851132.646 9 -42852285.083 9
  24561543.095    24561546.624    84845118.943 7 -91983070.828 7
  24621711.343    24621713.849   -16590186.030 9   2818816.136 9
 86  6 18  3 58 29.0800000  0  4G12G13G 9G 7
  21159610.250    21159614.633    10737082.015 9 -21438225.034 8
  21855428.644    21855430.701    39860858.431 9 -42844706.550 9
  24566261.920    24566265.411    84869914.098 7 -91963749.940 8
  24620209.031    24620212.811   -16598081.078 9   2812664.154 9
 86  6 18  3 58 35.0800000  0  4G12G13G 9G 7
  21161727.645    21161730.255    10748206.033 9 -21429556.972 8
  21857279.488    21857282.425    39870586.231 9 -42837126.437 9
  24570979.721    24570983.382    84894708.729 7 -91944429.463 7
  24618712.138    24618714.328   -16605949.897 9   2806532.612 9
 86  6 18  3 58 41.0800000  0  4G12G13G 9G 7
  21163848.706    21163852.662    10759352.599 9 -21420871.334 9
  21859130.958    21859132.729    39880316.104 9 -42829544.725 9
  24575700.033    24575701.776    84919502.771 6 -91925109.452 9
  24617218.553    24617221.891   -16613795.954 9   2800418.811 9
 86  6 18  3 58 47.0800000  0  4G12G13G 9G 7
  21165974.525    21165977.907    10770521.685 8 -21412168.153 9
  21860983.002    21860985.865    39890047.994 9 -42821961.425 8
  24580415.658    24580420.595    84944296.202 6 -91905789.895 7
  24615730.272    24615731.818   -16621621.524 9   2794320.964 9
 86  6 18  3 58 53.0800000  0  4G12G13G 9G 7
  21168104.820    21168107.163    10781713.225 8 -21403447.471 8
  21862835.276    21862836.942    39899781.898 9 -42814376.567 9
  24585134.771    24585137.964    84969089.042 8 -91886470.807 8
  24614243.355    24614245.481   -16629428.147 9   2788237.883 9
 86  6 18  3 58 59.0800000  0  4G12G13G 9G 7
  21170237.116    21170241.285    10792927.252 9 -21394709.268 9
  21864687.528    21864690.258    39909517.740 9 -42806790.190 9
  24589851.883    24589856.133    84993881.239 7 -91867152.237 9
  24612761.207    24612764.533   -16637215.247 9   2782170.025 9
 86  6 18  3 59  5.0800000  0  4G12G13G 9G 7
  21172375.357    21172379.891    10804163.773 9 -21385953.543 9
  21866540.835    21866542.890    39919255.614 9 -42799202.240 9
  24594570.740    24594574.474    85018672.819 7 -91847834.130 8
                  24611286.878                     2776121.109 8
 86  6 18  3 59 11.0800000  0  4G12G13G 9G 7
  21174518.534    21174522.424    10815422.673 9 -21377180.375 8
  21868393.838    21868397.498    39928995.519 9 -42791612.693 8
  24599287.024    24599292.000    85043463.660 8 -91828516.597 9
  24609721.151    24609816.393   -16681345.498 9   2770096.541 8
 86  6 18  3 59 17.0800000  0  4G12G13G 9G 7
  21176665.314    21176669.390    10826703.951 9 -21368389.774 8
  21870248.162    21870250.058    39938737.369 9 -42784021.648 9
  24604006.337    24604009.311    85068253.777 7 -91809199.647 8
  24608349.678    24608350.670   -16689040.802 9   2764100.254 8
 86  6 18  3 59 23.0800000  0  4G12G13G 9G 7
  21178814.834    21178819.600    10838007.640 9 -21359581.704 9
  21872102.303    21872105.045    39948481.199 9 -42776429.051 9
  24608722.474    24608725.892    85093043.038 8 -91789883.355 8
  24606891.631    24606893.667   -16696701.243 9   2758131.082 9
 86  6 18  3 59 29.0800000  0  4G12G13G 9G 7
  21180971.487    21180974.667    10849333.676 9 -21350756.225 9
  21873956.724    21873959.338    39958226.985 9 -42768834.926 9
  24613439.039    24613443.317    85117831.654 7 -91770567.552 9
  24605439.829    24605440.720   -16704330.895 9   2752185.904 9
 86  6 18  3 59 35.0800000  0  4G12G13G 9G 7
  21183131.005    21183134.033    10860682.030 8 -21341913.354 9
  21875811.261    21875814.124    39967974.746 9 -42761239.279 9
  24618156.698    24618160.828    85142619.429 8 -91751252.419 9
  24603993.319    24603994.392   -16711934.331 9   2746261.147 8
 86  6 18  3 59 41.0800000  0  4G12G13G 9G 7
  21185294.161    21185299.047    10872052.678 8 -21333053.128 9
  21877666.967    21877668.956    39977724.464 9 -42753642.091 9
  24622873.437    24622877.325    85167406.351 8 -91731937.955 9
  24602550.924    24602552.344   -16719515.072 9   2740354.082 9
 86  6 18  3 59 47.0800000  0  4G12G13G 9G 7
  21187463.009    21187464.898    10883445.630 8 -21324175.492 8
  21879523.250    21879524.611    39987476.099 9 -42746043.411 9
  24627590.291    24627593.964    85192192.535 8 -91712624.063 9
  24601112.545    24601114.340   -16727075.301 9   2734462.996 8
 86  6 18  3 59 53.0800000  0  4G12G13G 9G 7
  21189635.194    21189638.882    10894860.902 9 -21315280.490 8
  21881379.732    21881381.558    39997229.676 9 -42738443.221 8
  24632306.742    24632309.104    85216977.841 8 -91693310.831 9
  24599677.578    24599678.658   -16734616.522 9   2728586.733 8
 86  6 18  3 59 59.0800000  0  4G12G13G 9G 7
  21191811.181    21191815.028    10906298.379 8 -21306368.175 8
  21883235.176    21883238.796    40006985.277 9 -42730841.456 9
  24637022.677    24637027.314    85241762.185 8 -91673998.362 8
  24598246.240    24598247.792   -16742137.807 9   2722725.988 9
 86  6 18  4  0  5.0800000  0  4G12G13G 9G 7
  21193992.274    21193996.133    10917758.060 9 -21297438.550 8
  21885092.934    21885094.887    40016742.836 9 -42723238.154 9
  24641737.900    24641743.010    85266545.763 8 -91654686.500 8
                  24596821.960                     2716884.491 9
 86  6 18  4  0 11.0800000  0  4G12G13G 9G 7
  21196178.461    21196181.302    10929239.977 8 -21288491.606 9
  21886949.800    21886952.442    40026502.346 9 -42715633.348 9
  24646456.246    24646459.047    85291328.378 8 -91635375.395 9
  24595319.681    24595400.270   -16786006.144 9   2711067.849 9
 86  6 18  4  0 17.0800000  0  4G12G13G 9G 7
  21198366.690    21198369.834    10940744.138 9 -21279527.327 8
  21888808.362    21888808.924    40036263.824 9 -42708027.003 9
  24651169.632    24651173.971    85316109.982 7 -91616065.045 8
  24593986.557    24593987.364   -16793434.316 9   2705279.629 9
 86  6 18  4  0 23.0800000  0  4G12G13G 9G 7
  21200559.345    21200563.279    10952270.475 9 -21270545.766 8
  21890665.627    21890666.871    40046027.242 9 -42700419.137 9
  24655885.657    24655891.266    85340890.676 7 -91596755.433 9
  24592578.745    24592580.076   -16800827.770 9   2699518.478 9
 86  6 18  4  0 29.0800000  0  4G12G13G 9G 7
  21202757.714    21202760.701    10963818.997 9 -21261546.920 8
  21892523.308    21892526.151    40055792.643 9 -42692809.734 9
  24660602.939    24660605.617    85365670.232 8 -91577446.683 8
  24591177.738    24591178.650   -16808190.745 9   2693781.112 9
 86  6 18  4  0 35.0800000  0  4G12G13G 9G 7
  21204959.478    21204963.016    10975389.681 9 -21252530.811 9
  21894381.687    21894383.591    40065559.907 9 -42685198.882 9
  24665316.791    24665320.836    85390448.862 8 -91558138.680 7
  24589781.398    24589783.749   -16815527.598 9   2688064.083 9
 86  6 18  4  0 41.0800000  0  4G12G13G 9G 7
  21207165.167    21207169.072    10986982.408 9 -21243497.510 9
  21896240.782    21896243.908    40075329.107 9 -42677586.520 9
  24670032.872    24670036.229    85415226.411 8 -91538831.505 9
  24588389.780    24588391.227   -16822841.819 9   2682364.696 8
 86  6 18  4  0 47.0800000  0  4G12G13G 9G 7
  21209375.524    21209380.070    10998597.327 8 -21234446.930 8
  21898100.183    21898103.217    40085100.198 9 -42669972.690 9
  24674746.950    24674750.911    85440002.863 7 -91519525.193 7
  24587001.182    24587003.125   -16830135.526 9   2676681.275 9
 86  6 18  4  0 53.0800000  0  4G12G13G 9G 7
  21211590.337    21211593.450    11010234.350 9 -21225379.121 9
  21899960.105    21899962.237    40094873.179 9 -42662357.369 9
  24679463.175    24679465.159    85464778.158 7 -91500219.780 8
  24585616.544    24585619.762   -16837410.211 9   2671012.691 9
 86  6 18  4  0 59.0800000  0  4G12G13G 9G 7
  21213809.068    21213811.381    11021893.402 9 -21216294.148 9
  21901820.106    21901822.798    40104648.134 9 -42654740.524 9
  24684176.589    24684179.048    85489552.264 7 -91480915.284 8
  24584236.134    24584238.463   -16844664.893 9   2665359.692 9
 86  6 18  4  1  5.0800000  0  4G12G13G 9G 7
  21216031.993    21216034.731    11033574.547 9 -21207191.953 8
  21903680.680    21903683.529    40114425.050 9 -42647122.149 9
  24688890.014    24688893.799    85514325.409 7 -91461611.538 8
                  24582862.343                     2659726.466 8
 86  6 18  4  1 11.0800000  0  4G12G13G 9G 7
  21218258.363    21218261.929    11045277.812 9 -21198072.529 8
  21905542.064    21905544.388    40124203.880 9 -42639502.286 9
  24693604.403    24693607.434    85539097.239 8 -91442308.811 8
  24581491.879    24581492.375   -16888263.989 9   2654118.608 9
 86  6 18  4  1 17.0800000  0  4G12G13G 9G 7
  21220490.104    21220492.262    11057003.150 9 -21188935.901 9
  21907403.690    21907405.818    40133984.552 9 -42631880.974 8
  24698317.478    24698321.795    85563867.944 8 -91423006.973 8
  24580127.863    24580130.132   -16895424.261 9   2648539.159 9
 86  6 18  4  1 23.0800000  0  4G12G13G 9G 7
  21222725.597    21222728.409    11068750.468 9 -21179782.141 8
  21909265.080    21909266.940    40143767.057 9 -42624258.254 9
  24703030.152    24703035.260    85588637.344 8 -91403706.157 8
  24578771.581    24578773.788   -16902549.729 9   2642986.833 9
 86  6 18  4  1 29.0800000  0  4G12G13G 9G 7
  21224965.158    21224967.319    11080519.737 8 -21170611.289 9
  21911126.484    21911128.417    40153551.477 9 -42616634.024 9
  24707745.032    24707747.950    85613405.486 7 -91384406.312 8
  24577422.136    24577423.765   -16909644.827 9   2637458.193 9
 86  6 18  4  1 35.0800000  0  4G12G13G 9G 7
  21227207.618    21227211.766    11092310.964 9 -21161423.321 8
  21912989.611    21912989.948    40163337.711 9 -42609008.389 9
  24712457.365    24712461.327    85638172.409 7 -91365107.421 8
  24576075.955    24576079.322   -16916714.053 9   2631949.703 8
 86  6 18  4  1 41.0800000  0  4G12G13G 9G 7
  21229456.743    21229458.498    11104124.103 9 -21152218.284 8
  21914851.910    21914853.111    40173125.861 9 -42601381.256 8
  24717170.585    24717173.814    85662937.984 6 -91345809.591 9
  24574735.671    24574737.934   -16923760.422 9   2626459.035 9
 86  6 18  4  1 47.0800000  0  4G12G13G 9G 7
  21231708.670    21231712.996    11115959.152 9 -21142996.170 8
  21916714.903    21916715.798    40182915.837 9 -42593752.703 9
  24721881.828    24721885.372    85687702.303 8 -91326512.720 8
  24573399.102    24573400.167   -16930786.207 9   2620984.390 9
 86  6 18  4  1 53.0800000  0  4G12G13G 9G 7
  21233965.446    21233968.228    11127816.190 9 -21133756.923 8
  21918577.808    21918578.771    40192707.670 9 -42586122.703 8
  24726594.816    24726598.191    85712465.227 7 -91307216.934 9
  24572065.183    24572067.712   -16937792.822 9   2615524.693 8
 86  6 18  4  1 59.0800000  0  4G12G13G 9G 7
  21236225.990    21236229.412    11139695.143 9 -21124500.603 9
  21920441.481    21920442.906    40202501.359 9 -42578491.252 9
  24731305.719    24731310.437    85737226.736 8 -91287922.265 9
  24570736.525    24570738.788   -16944778.969 9   2610080.944 9
 86  6 18  4  2  5.0800000  0  4G12G13G 9G 7
  21238490.200    21238493.618    11151595.977 9 -21115227.232 8
  21922306.313    21922307.945    40212296.910 9 -42570858.350 9
  24736018.906    24736021.967    85761986.864 8 -91268628.663 8
                  24569412.962                     2604657.402 8
 86  6 18  4  2 11.0800000  0  4G12G13G 9G 7
  21240759.928    21240762.690    11163518.668 9 -21105936.821 9
  21924170.356    21924171.379    40222094.282 9 -42563224.033 8
  24740730.808    24740732.568    85786745.570 7 -91249336.185 9
  24568051.458    24568095.345   -16988120.133 9   2599259.555 9
 86  6 18  4  2 17.0800000  0  4G12G13G 9G 7
  21243032.205    21243036.546    11175463.079 9 -21096629.501 9
  21926034.716    21926036.226    40231893.523 9 -42555588.269 9
  24745440.219    24745444.697    85811502.785 8 -91230044.863 8
  24566782.297    24566783.601   -16995010.908 9   2593890.348 8
 86  6 18  4  2 23.0800000  0  4G12G13G 9G 7
  21245309.199    21245313.035    11187429.327 9 -21087305.142 9
  21927899.116    21927901.128    40241694.521 9 -42547951.122 9
  24750152.868    24750156.157    85836258.593 6 -91210754.639 9
  24565477.652    24565478.954   -17001866.880 9   2588548.039 9
 86  6 18  4  2 29.0800000  0  4G12G13G 9G 7
  21247590.856    21247593.732    11199417.385 9 -21077963.801 8
  21929764.735    21929767.181    40251497.336 9 -42540312.564 8
  24754862.429    24754866.246    85861012.833 7 -91191465.616 9
  24564178.500    24564179.892   -17008692.485 9   2583229.387 9
 86  6 18  4  2 35.0800000  0  4G12G13G 9G 7
  21249875.917    21249878.789    11211427.184 9 -21068605.517 8
  21931631.364    21931632.902    40261301.930 9 -42532672.621 9
  24759573.129    24759575.654    85885765.615 7 -91172177.746 8
  24562885.129    24562886.611   -17015492.433 9   2577930.727 9
 86  6 18  4  2 41.0800000  0  4G12G13G 9G 7
  21252166.594    21252168.576    11223458.772 8 -21059230.251 8
  21933496.902    21933498.363    40271108.313 9 -42525031.276 9
  24764282.396    24764286.171    85910516.792 7 -91152891.137 8
  24561595.905    24561596.428   -17022269.621 9   2572649.809 9
 86  6 18  4  2 47.0800000  0  4G12G13G 9G 7
  21254459.342    21254462.526    11235512.120 9 -21049838.038 9
  21935363.780    21935364.838    40280916.518 9 -42517388.521 9
  24768992.040    24768995.612    85935266.347 7 -91133605.768 8
  24560309.550    24560310.600   -17029026.454 9   2567384.746 9
 86  6 18  4  2 53.0800000  0  4G12G13G 9G 7
  21256756.871    21256759.650    11247587.221 9 -21040428.864 8
  21937229.920    21937232.045    40290726.519 9 -42509744.360 9
  24773702.191    24773705.210    85960014.443 6 -91114321.574 9
  24559028.017    24559028.231   -17035763.930 9   2562134.755 9
 86  6 18  4  2 59.0800000  0  4G12G13G 9G 7
  21259058.606    21259062.308    11259684.045 9 -21031002.769 8
  21939098.101    21939098.629    40300538.338 9 -42502098.784 9
  24778410.916    24778414.164    85984760.853 7 -91095038.660 8
  24557750.594    24557750.375   -17042480.631 9   2556900.979 9
 86  6 18  4  3  5.0800000  0  4G12G13G 9G 7
  21261365.150    21261367.948    11271802.486 9 -21021559.826 8
  21940965.119    21940966.750    40310351.877 9 -42494451.874 8
  24783118.471    24783122.849    86009505.576 6 -91075757.075 8
                  24556477.558                     2551687.859 8
 86  6 18  4  3 11.0800000  0  4G12G13G 9G 7
  21263675.792    21263679.540    11283942.643 9 -21012099.968 8
  21942832.606    21942834.817    40320167.250 9 -42486803.530 9
  24787828.113    24787831.188    86034248.752 7 -91056476.700 9
  24555160.115    24555211.413   -17085554.808 9   2546500.818 9
 86  6 18  4  3 17.0800000  0  4G12G13G 9G 7
  21265989.445    21265993.187    11296104.389 9 -21002623.287 9
  21944700.304    21944702.294    40329984.458 9 -42479153.758 9
  24792535.323    24792539.655    86058990.176 7 -91037197.678 9
  24553950.692    24553951.518   -17092174.787 9   2541342.545 8
 86  6 18  4  3 23.0800000  0  4G12G13G 9G 7
  21268309.204    21268311.184    11308287.753 9 -20993129.758 8
  21946568.728    21946570.798    40339803.372 9 -42471502.647 9
  24797243.735    24797248.141    86083730.003 6 -91017919.904 9
  24552697.233    24552698.502   -17098759.640 9   2536211.103 9
 86  6 18  4  3 29.0800000  0  4G12G13G 9G 7
  21270629.802    21270633.830    11320492.667 9 -20983619.432 9
  21948438.424    21948439.693    40349624.096 9 -42463850.138 9
  24801949.658    24801955.962    86108468.072 7 -90998643.497 8
  24551449.177    24551451.129   -17105314.867 9   2531103.137 9
 86  6 18  4  3 35.0800000  0  4G12G13G 9G 7
  21272956.788    21272960.716    11332719.157 9 -20974092.301 8
  21950307.242    21950309.404    40359446.629 9 -42456196.211 9
  24806658.154    24806663.074    86133204.245 7 -90979368.562 8
  24550206.211    24550208.025   -17111844.416 9   2526015.181 9
 86  6 18  4  3 41.0800000  0  4G12G13G 9G 7
  21275287.056    21275291.998    11344967.211 9 -20964548.362 8
  21952176.487    21952178.920    40369270.936 9 -42448540.904 8
  24811364.847    24811369.093    86157938.791 8 -90960094.915 9
  24548968.912    24548970.152   -17118351.345 9   2520944.849 9
 86  6 18  4  3 47.0800000  0  4G12G13G 9G 7
  21277621.782    21277626.737    11357236.859 9 -20954987.595 9
  21954047.073    21954047.507    40379096.989 9 -42440884.239 9
  24816073.057    24816075.746    86182671.419 7 -90940822.763 8
  24547734.278    24547735.940   -17124837.908 9   2515890.384 9
 86  6 18  4  3 53.0800000  0  4G12G13G 9G 7
  21279961.145    21279964.687    11369527.931 8 -20945410.147 8
  21955915.596    21955918.701    40388924.768 9 -42433226.226 9
  24820779.093    24820781.422    86207402.185 7 -90921552.027 9
  24546503.219    24546505.999   -17131305.121 9   2510850.992 9
 86  6 18  4  3 59.0800000  0  4G12G13G 9G 7
  21282304.373    21282308.006    11381840.492 9 -20935815.947 9
  21957787.150    21957787.961    40398754.348 9 -42425566.811 9
  24825484.445    24825488.031    86232131.030 7 -90902282.799 8
  24545276.615    24545279.207   -17137751.292 9   2505828.006 8
 86  6 18  4  4  5.0800000  0  4G12G13G 9G 7
  21284652.146    21284654.719    11394174.538 9 -20926205.017 8
  21959657.355    21959660.114    40408585.719 9 -42417906.009 9
  24830189.300    24830191.620    86256858.085 7 -90883014.946 7
                  24544059.103                     2500826.175 7
 86  6 18  4  4 11.0800000  0  4G12G13G 9G 7
  21287002.949    21287005.880    11406530.098 9 -20916577.305 8
  21961528.596    21961529.132    40418418.811 9 -42410243.854 9
  24834895.883    24834898.888    86281583.186 8 -90863748.674 8
  24542839.827    24542842.826   -17180545.723 9   2495850.926 8
 86  6 18  4  4 17.0800000  0  4G12G13G 9G 7
  21289357.816    21289361.459    11418907.126 9 -20906932.873 9
  21963400.131    21963402.573    40428253.645 9 -42402580.349 8
  24839599.658    24839602.808    86306306.431 8 -90844483.799 7
  24541632.209    24541634.275   -17186893.748 9   2490904.410 9
 86  6 18  4  4 23.0800000  0  4G12G13G 9G 7
  21291717.343    21291721.714    11431305.569 9 -20897271.749 9
  21965271.514    21965273.559    40438090.221 9 -42394915.470 9
  24844304.092    24844305.991    86331027.677 8 -90825220.490 9
  24540430.647    24540434.086   -17193208.043 9   2485984.568 9
 86  6 18  4  4 29.0800000  0  4G12G13G 9G 7
  21294080.820    21294083.876    11443725.381 9 -20887593.980 8
  21967143.028    21967145.957    40447928.473 9 -42387249.309 9
  24849007.350    24849010.496    86355746.915 8 -90805958.752 8
  24539233.894    24539238.176   -17199491.826 9   2481088.112 8
 86  6 18  4  4 35.0800000  0  4G12G13G 9G 7
  21296448.568    21296451.238    11456166.523 9 -20877899.568 9
  21969016.617    21969019.572    40457768.474 9 -42379581.774 9
  24853710.750    24853714.445    86380464.239 7 -90786698.504 6
  24538044.150    24538046.560   -17205750.161 9   2476211.486 9
 86  6 18  4  4 41.0800000  0  4G12G13G 9G 7
  21298819.585    21298823.017    11468629.017 9 -20868188.543 8
  21970888.882    21970891.823    40467610.113 9 -42371912.965 9
  24858414.988    24858418.132    86405179.532 8 -90767439.859 7
  24536858.010    24536859.793   -17211985.976 9   2471352.411 9
 86  6 18  4  4 47.0800000  0  3G12G13G 7
  21301195.751    21301198.736    11481112.869 9 -20858460.872 9
  21972762.952    21972765.850    40477453.507 3 -42364242.777 2
  24535674.862    24535676.958   -17218201.244 9   2466509.338 9
 86  6 18  4  4 53.0800000  0  3G12G13G 7
  21303575.179    21303578.557    11493617.812 9 -20848716.753 9
  21974636.022    21974638.175    40487298.506 3 -42356571.352 4
  24534495.100    24534498.180   -17224397.101 9   2461681.406 8
 86  6 18  4  4 59.0800000  0  3G12G13G 7
  21305959.657    21305962.097    11506144.163 9 -20838955.957 8
  21976508.878    21976512.328    40497145.404 3 -42348898.442 5
  24533320.514    24533322.113   -17230571.403 9   2456870.265 8
 86  6 18  4  5  5.0800000  0  3G12G13G 7
  21308347.419    21308349.121    11518691.653 9 -20829178.689 8
  21978383.172    21978385.409    40506993.860 3 -42341224.323 5
                  24532153.126                     2452080.522 8
 86  6 18  4  5 11.0800000  0  3G12G13G 7
  21310739.184    21310741.901    11531260.597 9 -20819384.727 9
  21980257.656    21980261.561    40516844.170 3 -42333548.768 2
  24530986.470    24530990.159   -17273097.566 8   2447317.698 9
 86  6 18  4  5 17.0800000  0  3G12G13G 7
  21313135.090    21313138.412    11543850.624 9 -20809574.309 9
  21982133.880    21982135.685    40526695.999 3 -42325872.017 2
  24529831.210    24529834.383   -17279173.019 9   2442583.549 8
 86  6 18  4  5 23.0800000  0  3G12G13G 7
  21315533.934    21315537.806    11556461.913 9 -20799747.326 8
  21984007.894    21984009.429    40536549.547 3 -42318193.921 2
  24528682.492    24528683.489   -17285214.357 9   2437876.025 8
 86  6 18  4  5 29.0800000  0  3G12G13G 7
  21317937.770    21317940.656    11569094.339 9 -20789903.895 8
  21985883.758    21985886.582    40546404.797 3 -42310514.496 2
  24527538.809    24527540.097   -17291225.861 9   2433191.742 8
 86  6 18  4  5 35.0800000  0  3G12G13G 7
  21320346.163    21320347.874    11581747.907 9 -20780043.967 8
  21987758.070    21987760.708    40556261.777 9 -42302833.734 8
  24526398.802    24526400.742   -17297212.122 9   2428527.121 8
 86  6 18  4  5 41.0800000  0  3G12G13G 7
  21322758.000    21322760.953    11594422.749 9 -20770167.465 7
  21989634.559    21989637.617    40566120.643 9 -42295151.506 8
  24525264.644    24525265.851   -17303175.581 9   2423880.267 8
 86  6 18  4  5 47.0800000  0  3G12G13G 7
  21325173.993    21325176.608    11607118.621 9 -20760274.596 8
  21991510.267    21991513.353    40575980.980 9 -42287468.120 9
  24524133.667    24524134.345   -17309118.792 9   2419249.206 8
 86  6 18  4  5 53.0800000  0  3G12G13G 7
  21327593.728    21327596.658    11619835.780 9 -20750365.114 8
  21993388.235    21993390.801    40585843.142 9 -42279783.310 9
  24523006.108    24523005.764   -17315042.204 9   2414633.570 8
 86  6 18  4  5 59.0800000  0  3G12G13G 7
  21330017.737    21330019.943    11632573.846 9 -20740439.346 9
  21995264.397    21995267.629    40595706.706 9 -42272097.422 8
  24521883.560    24521883.652   -17320943.917 9   2410034.840 9
 86  6 18  4  6  5.0800000  0  3G12G13G 7
  21332446.147    21332449.568    11645333.120 9 -20730497.070 8
  21997142.522    21997144.766    40605571.994 9 -42264410.186 8
                  24520765.941                     2405458.071 8
 86  6 18  4  6 11.0800000  0  3G12G13G 7
  21334877.928    21334881.312    11658113.307 9 -20720538.481 8
  21999021.005    21999022.187    40615438.864 9 -42256721.707 9
  24519654.659    24519655.589   -17363193.719 9   2400908.395 8
 86  6 18  4  6 17.0800000  0  3G12G13G 7
  21337313.994    21337316.010    11670914.461 9 -20710563.551 8
  22000897.654    22000901.042    40625307.396 9 -42249031.946 9
  24518551.127    24518551.390   -17368995.277 9   2396387.694 9
 86  6 18  4  6 23.0800000  0  3G12G13G 7
  21339754.497    21339756.306    11683736.734 9 -20700572.182 9
  22002775.882    22002778.808    40635177.616 9 -42241340.862 9
  24517453.664    24517452.849   -17374762.321 9   2391893.510 9
 86  6 18  4  6 29.0800000  0  3G12G13G 7
  21342198.333    21342199.645    11696579.845 9 -20690564.565 9
  22004655.235    22004657.404    40645049.394 9 -42233648.569 8
  24516360.870    24516361.355   -17380500.385 9   2387422.293 9
 86  6 18  4  6 35.0800000  0  3G12G13G 7
  21344645.586    21344649.020    11709444.045 9 -20680540.517 8
  22006533.646    22006536.342    40654922.905 9 -42225954.923 8
  24515274.524    24515274.572   -17386213.006 9   2382970.906 9
 86  6 18  4  6 41.0800000  0  3G12G13G 7
  21347096.945    21347100.583    11722329.057 9 -20670500.262 8
  22008413.545    22008416.086    40664797.818 9 -42218260.176 9
  24514191.248    24514191.952   -17391903.281 9   2378536.928 8
 86  6 18  4  6 47.0800000  0  3G12G13G 7
  21349553.350    21349556.391    11735235.156 8 -20660443.561 8
  22010292.198    22010295.169    40674674.560 9 -42210564.014 9
  24513112.449    24513114.651   -17397572.825 9   2374119.105 8
 86  6 18  4  6 53.0800000  0  3G12G13G 7
  21352012.842    21352016.467    11748162.022 9 -20650370.687 8
  22012173.117    22012174.508    40684552.756 9 -42202866.718 8
  24512036.184    24512038.233   -17403222.680 9   2369716.611 9
 86  6 18  4  6 59.0800000  0  3G12G13G 7
  21354477.330    21354480.308    11761109.823 9 -20640281.501 9
  22014052.514    22014053.278    40694432.594 9 -42195168.137 9
  24510965.135    24510968.229   -17408850.325 9   2365331.436 9
 86  6 18  4  7  5.0800000  0  3G12G13G 7
  21356944.900    21356948.735    11774078.446 9 -20630176.080 8
  22015933.458    22015934.849    40704313.997 8 -42187468.341 9
                  24509902.659                     2360968.602 8
 86  6 18  4  7 11.0800000  0  3G12G13G 7
  21359416.832    21359419.937    11787067.887 9 -20620054.452 8
  22017813.740    22017815.423    40714197.004 8 -42179767.286 9
  24508840.714    24508844.071   -17450832.183 9   2356633.106 8
 86  6 18  4  7 17.0800000  0  3G12G13G 7
  21361893.429    21361895.652    11800078.207 9 -20609916.542 9
  22019693.753    22019696.824    40724081.711 9 -42172064.923 9
  24507789.057    24507791.754   -17456358.922 9   2352326.563 9
 86  6 18  4  7 23.0800000  0  3G12G13G 7
  21364373.161    21364374.972    11813109.212 9 -20599762.511 7
  22021575.526    22021578.482    40733967.906 9 -42164361.392 8
  24506743.772    24506747.614   -17461851.929 9   2348046.306 9
 86  6 18  4  7 29.0800000  0  3G12G13G 7
  21366856.048    21366859.796    11826161.156 9 -20589592.161 8
  22023457.230    22023459.628    40743855.887 9 -42156656.471 9
  24505703.649    24505707.468   -17467315.408 9   2343789.055 9
 86  6 18  4  7 35.0800000  0  3G12G13G 7
  21369343.453    21369347.633    11839233.784 9 -20579405.705 9
  22025338.713    22025341.370    40753745.298 9 -42148950.437 8
  24504670.093    24504672.440   -17472753.923 9   2339551.251 9
 86  6 18  4  7 41.0800000  0  3G12G13G 7
  21371836.242    21371838.857    11852327.240 9 -20569203.018 9
  22027221.722    22027223.914    40763636.378 9 -42141243.103 8
  24503639.294    24503642.243   -17478169.598 9   2335331.247 9
 86  6 18  4  7 47.0800000  0  3G12G13G 7
  21374331.796    21374333.779    11865441.311 9 -20558984.267 9
  22029102.922    22029106.636    40773528.946 9 -42133534.607 8
  24502612.361    24502616.096   -17483564.984 9   2331127.052 8
 86  6 18  4  7 53.0800000  0  3G12G13G 7
  21376830.324    21376834.259    11878576.124 9 -20548749.340 9
  22030985.554    22030988.379    40783423.073 9 -42125824.893 9
  24501590.922    24501593.539   -17488940.443 9   2326938.388 9
 86  6 18  4  7 59.0800000  0  3G12G13G 7
  21379334.249    21379336.088    11891731.563 9 -20538498.346 8
  22032870.460    22032872.012    40793318.709 9 -42118114.007 8
  24500571.089    24500574.373   -17494293.452 9   2322767.219 9
 86  6 18  4  8  5.0800000  0  3G12G13G 7
  21381841.531    21381844.283    11904907.549 9 -20528231.349 8
  22034753.891    22034755.821    40803215.865 9 -42110401.935 9
                  24499560.325                     2318618.801 8
 86  6 18  4  8 11.0800000  0  3G12G13G 7
  21384352.210    21384355.032    11918104.251 9 -20517948.201 8
  22036636.579    22036639.136    40813114.712 9 -42102688.543 8
  24498551.957    24498553.752   -17536001.916 9   2314498.169 9
 86  6 18  4  8 17.0800000  0  3G12G13G 7
  21386867.543    21386870.398    11931321.444 9 -20507649.087 8
  22038521.528    22038522.886    40823015.041 8 -42094973.998 8
  24497554.201    24497554.341   -17541253.101 9   2310406.340 9
 86  6 18  4  8 23.0800000  0  3G12G13G 7
  21389385.967    21389389.617    11944559.384 9 -20497333.810 9
  22040406.108    22040408.123    40832917.148 9 -42087258.077 9
  24496560.900    24496561.394   -17546470.875 9   2306340.931 8
 86  6 18  4  8 29.0800000  0  3G12G13G 7
  21391909.518    21391912.425    11957817.761 9 -20487002.597 8
  22042290.141    22042292.013    40842820.626 9 -42079541.072 9
  24495573.108    24495573.529   -17551659.313 9   2302297.996 8
 86  6 18  4  8 35.0800000  0  3G12G13G 7
  21394436.559    21394439.611    11971096.730 9 -20476655.352 8
  22044174.462    22044178.222    40852725.765 9 -42071822.778 9
  24494590.846    24494591.684   -17556822.533 9   2298274.699 8
 86  6 18  4  8 41.0800000  0  3G12G13G 7
  21396966.436    21396970.707    11984396.170 9 -20466292.159 8
  22046059.339    22046061.710    40862632.422 9 -42064103.298 8
  24493612.091    24493614.105   -17561963.329 9   2294268.890 8
 86  6 18  4  8 47.0800000  0  3G12G13G 7
  21399502.064    21399505.164    11997716.044 9 -20455913.034 8
  22047945.509    22047947.089    40872540.596 9 -42056382.647 9
  24492638.132    24492639.116   -17567083.707 9   2290278.991 9
 86  6 18  4  8 53.0800000  0  3G12G13G 7
  21402040.238    21402044.088    12011056.441 9 -20445517.930 8
  22049831.187    22049833.214    40882450.417 9 -42048660.701 9
  24491666.771    24491668.177   -17572184.041 9   2286304.706 9
 86  6 18  4  8 59.0800000  0  3G12G13G 7
  21404583.258    21404586.140    12024417.188 9 -20435106.968 8
  22051715.967    22051718.562    40892361.624 9 -42040937.689 9
  24490700.823    24490701.810   -17577261.582 9   2282348.177 9
 86  6 18  4  9  5.0800000  0  3G12G13G 7
  21407129.369    21407133.049    12037798.499 9 -20424679.967 8
  22053604.123    22053605.431    40902274.492 9 -42033213.380 9
                  24489741.486                     2278414.956 9
 86  6 18  4  9 11.0800000  0  3G12G13G 7
  21409679.719    21409682.649    12051200.006 9 -20414237.231 8
  22055489.571    22055491.783    40912188.737 9 -42025487.993 9
  24488785.368    24488787.597   -17618481.156 9   2274509.574 9
 86  6 18  4  9 17.0800000  0  3G12G13G 7
  21412233.818    21412236.022    12064621.980 9 -20403778.557 8
  22057377.784    22057378.822    40922104.629 9 -42017761.315 9
  24487839.107    24487841.601   -17623455.908 9   2270633.139 8
 86  6 18  4  9 23.0800000  0  3G12G13G 7
  21414792.221    21414794.980    12078064.202 9 -20393304.088 8
  22059262.991    22059267.954    40932021.927 9 -42010033.558 9
  24486898.810    24486899.291   -17628397.200 9   2266782.787 8
 86  6 18  4  9 29.0800000  0  3G12G13G 7
  21417354.133    21417356.886    12091526.924 9 -20382813.665 8
  22061152.222    22061153.846    40941940.751 9 -42002304.600 9
  24485963.940    24485966.208   -17633309.559 9   2262954.986 9
 86  6 18  4  9 35.0800000  0  3G12G13G 7
  21419919.988    21419922.455    12105009.888 9 -20372307.456 9
  22063039.991    22063041.172    40951861.065 9 -41994574.477 9
  24485034.437    24485035.393   -17638196.837 9   2259146.710 8
 86  6 18  4  9 41.0800000  0  3G12G13G 7
  21422488.208    21422491.580    12118513.143 9 -20361785.451 9
  22064927.900    22064929.986    40961782.905 9 -41986843.177 9
  24484108.962    24484110.286   -17643061.780 9   2255355.854 9
 86  6 18  4  9 47.0800000  0  3G12G13G 7
  21425062.581    21425065.641    12132036.806 9 -20351247.526 9
  22066816.186    22066817.450    40971706.357 9 -41979110.607 9
  24483186.349    24483187.687   -17647906.117 9   2251581.053 9
 86  6 18  4  9 53.0800000  0  3G12G13G 7
  21427639.635    21427643.884    12145580.562 9 -20340693.944 9
  22068705.228    22068705.893    40981631.129 9 -41971377.015 9
  24482268.505    24482269.487   -17652730.403 9   2247821.869 9
 86  6 18  4  9 59.0800000  0  3G12G13G 7
  21430220.861    21430224.610    12159144.720 9 -20330124.489 8
  22070594.313    22070596.198    40991557.531 9 -41963642.157 8
  24481355.090    24481357.190   -17657531.233 9   2244080.967 8
 86  6 18  4 10  5.0800000  0  3G12G13G 7
  21432805.304    21432808.386    12172728.915 9 -20319539.399 9
  22072482.981    22072485.296    41001485.186 8 -41955906.322 8
                  24480448.721                     2240363.488 9
 86  6 18  4 10 11.0800000  0  3G12G13G 7
  21435395.424    21435398.972    12186333.461 8 -20308938.458 8
  22074372.112    22074374.597    41011414.427 9 -41948169.252 9
  24479546.387    24479549.027   -17698482.426 9   2236674.327 9
 86  6 18  4 10 17.0800000  0  3G12G13G 7
  21437988.183    21437991.264    12199958.056 9 -20298321.879 9
  22076261.107    22076263.953    41021345.055 9 -41940431.094 9
  24478652.476    24478654.409   -17703179.989 9   2233013.901 9
 86  6 18  4 10 23.0800000  0  3G12G13G 7
  21440584.303    21440587.680    12213602.823 9 -20287689.595 9
  22078150.883    22078154.827    41031277.171 9 -41932691.779 9
  24477764.835    24477766.284   -17707844.102 9   2229379.517 9
 86  6 18  4 10 29.0800000  0  3G12G13G 7
  21443184.292    21443188.639    12227267.718 9 -20277041.638 9
  22080042.299    22080045.243    41041210.748 9 -41924951.330 9
  24476882.482    24476884.879   -17712479.399 9   2225767.598 9
 86  6 18  4 10 35.0800000  0  3G12G13G 7
  21445788.417    21445791.984    12240952.589 9 -20266378.103 8
  22081932.531    22081935.744    41051145.708 9 -41917209.800 8
  24476005.549    24476007.239   -17717089.906 9   2222174.990 9
 86  6 18  4 10 41.0800000  0  3G12G13G 7
  21448397.313    21448400.790    12254657.719 9 -20255698.780 8
  22083823.463    22083825.760    41061082.325 9 -41909466.980 9
  24475132.712    24475134.514   -17721677.855 9   2218599.975 9
 86  6 18  4 10 47.0800000  0  3G12G13G 7
  21451008.366    21451011.853    12268382.766 9 -20245003.943 8
  22085714.320    22085716.633    41071020.292 9 -41901723.107 9
  24474263.118    24474264.904   -17726245.512 9   2215040.757 8
 86  6 18  4 10 53.0800000  0  3G12G13G 7
  21453623.863    21453627.103    12282127.963 9 -20234293.407 8
  22087605.538    22087607.822    41080959.960 9 -41893977.922 8
  24473397.722    24473400.564   -17730792.734 9   2211497.468 8
 86  6 18  4 10 59.0800000  0  3G12G13G 7
  21456243.269    21456246.623    12295892.980 9 -20223567.411 8
  22089497.987    22089499.612    41090900.946 9 -41886231.688 9
  24472536.883    24472539.544   -17735316.513 9   2207972.446 9
 86  6 18  4 11  5.0800000  0  3G12G13G 7
  21458866.914    21458869.847    12309678.142 9 -20212825.737 8
  22091389.832    22091392.058    41100843.492 9 -41878484.244 8
                  24471684.635                     2204471.459 8
 86  6 18  4 11 11.0800000  0  3G12G13G 7
  21461493.890    21461496.780    12323483.152 9 -20202068.593 9
  22093281.666    22093284.250    41110787.464 9 -41870735.695 9
  24470834.590    24470836.696   -17775985.811 9   2200998.971 9
 86  6 18  4 11 17.0800000  0  3G12G13G 7
  21464124.557    21464127.158    12337308.117 9 -20191295.890 8
  22095175.431    22095176.755    41120732.777 9 -41862986.103 8
  24469992.254    24469995.682   -17780405.253 9   2197555.248 9
 86  6 18  4 11 23.0800000  0  3G12G13G 7
  21466760.539    21466762.481    12351153.086 9 -20180507.599 8
  22097067.879    22097069.719    41130679.662 9 -41855235.284 9
  24469157.619    24469161.448   -17784791.351 9   2194137.517 8
 86  6 18  4 11 29.0800000  0  3G12G13G 7
  21469398.155    21469400.530    12365017.846 9 -20169703.887 9
  22098961.028    22098962.308    41140627.845 9 -41847483.443 8
  24468328.473    24468332.459   -17789149.126 9   2190741.843 9
 86  6 18  4 11 35.0800000  0  3G12G13G 7
  21472041.222    21472042.207    12378902.583 9 -20158884.614 8
  22100854.622    22100856.218    41150577.590 9 -41839730.394 8
  24467503.899    24467507.300   -17793481.876 9   2187365.670 9
 86  6 18  4 11 41.0800000  0  3G12G13G 7
  21474686.722    21474688.119    12392806.988 9 -20148050.019 8
  22102747.357    22102750.039    41160528.542 9 -41831976.407 9
  24466684.290    24466687.011   -17797792.423 9   2184006.804 9
 86  6 18  4 11 47.0800000  0  3G12G13G 7
  21477335.581    21477337.544    12406731.343 9 -20137199.864 8
  22104642.562    22104642.941    41170481.011 9 -41824221.233 8
  24465867.667    24465869.826   -17802082.550 9   2180663.846 8
 86  6 18  4 11 53.0800000  0  3G12G13G 7
  21479988.726    21479990.488    12420675.383 9 -20126334.389 8
  22106535.126    22106538.281    41180434.827 8 -41816465.006 9
  24465055.605    24465058.074   -17806352.309 9   2177336.760 9
 86  6 18  4 11 59.0800000  0  3G12G13G 7
  21482646.544    21482649.341    12434639.254 9 -20115453.443 9
  22108430.566    22108431.906    41190390.154 9 -41808707.621 9
                  24464249.147                     2174028.630 9
 86  6 18  4 12  5.0800000  0  3G12G13G 7
  21485308.139    21485309.317    12448622.878 9 -20104557.114 8
  22110324.327    22110327.074    41200346.910 9 -41800949.104 8
  24463389.386    24463448.034   -17847014.384 9   2170744.670 9
 86  6 18  4 12 11.0800000  0  3G12G13G 7
  21487972.429    21487974.250    12462626.228 9 -20093645.423 8
  22112220.052    22112222.755    41210304.934 9 -41793189.600 9
  24462651.027    24462653.723   -17851192.035 9   2167489.576 8
 86  6 18  4 12 17.0800000  0  3G12G13G 7
  21490639.783    21490643.021    12476649.389 9 -20082718.288 9
  22114115.622    22114117.660    41220264.419 9 -41785428.959 9
  24461863.766    24461865.428   -17855331.993 9   2164263.242 9
 86  6 18  4 12 23.0800000  0  3G12G13G 7
  21493312.129    21493314.341    12490692.084 9 -20071775.927 8
  22116011.073    22116012.713    41230225.198 9 -41777667.314 8
  24461081.702    24461083.966   -17859439.679 9   2161062.442 9
 86  6 18  4 12 29.0800000  0  3G12G13G 7
  21495988.372    21495990.584    12504754.650 9 -20060818.078 9
  22117907.070    22117908.422    41240187.548 9 -41769904.444 9
  24460305.902    24460306.273   -17863518.834 9   2157883.888 9
 86  6 18  4 12 35.0800000  0  3G12G13G 7
  21498668.137    21498670.861    12518836.694 9 -20049845.064 8
  22119803.097    22119804.823    41250151.172 9 -41762140.567 8
  24459534.445    24459535.361   -17867573.444 9   2154724.444 8
 86  6 18  4 12 41.0800000  0  3G12G13G 7
  21501351.524    21501355.232    12532938.453 9 -20038856.683 8
  22121699.394    22121701.591    41260116.350 9 -41754375.504 9
  24458766.198    24458768.075   -17871605.647 9   2151582.477 9
 86  6 18  4 12 47.0800000  0  3G12G13G 7
  21504038.452    21504041.274    12547059.751 9 -20027853.068 9
  22123595.201    22123597.384    41270082.859 9 -41746609.390 9
  24458002.739    24458004.621   -17875617.661 9   2148456.237 7
 86  6 18  4 12 53.0800000  0  3G12G13G 7
  21506729.631    21506731.653    12561200.628 9 -20016834.207 8
  22125492.530    22125494.442    41280050.745 9 -41738842.201 9
  24457243.873    24457244.682   -17879609.035 9   2145346.074 8
 86  6 18  4 12 59.0800000  0  3G12G13G 7
  21509423.390    21509427.247    12575361.115 9 -20005800.075 8
  22127390.001    22127390.468    41290020.050 9 -41731073.910 9
  24456487.947    24456489.649   -17883575.692 9   2142255.167 8
 86  6 18  4 13  5.0800000  0  3G12G13G 7
  21512122.400    21512126.560    12589541.048 9 -19994750.770 9
  22129286.329    22129287.552    41299990.721 9 -41723304.552 9
                  24455740.343                     2139188.856 8
 86  6 18  4 13 11.0800000  0  3G12G13G 7
  21514824.039    21514828.022    12603740.648 9 -19983686.155 8
  22131183.784    22131186.754    41309962.927 9 -41715534.006 9
  24454998.143    24454997.775   -17923910.860 9   2136151.398 9
 86  6 18  4 13 17.0800000  0  3G12G13G 7
  21517530.428    21517534.228    12617959.566 9 -19972606.482 9
  22133082.243    22133083.578    41319936.364 9 -41707762.496 8
  24454261.841    24454263.047   -17927772.297 8   2133142.491 9
 86  6 18  4 13 23.0800000  0  3G12G13G 7
  21520240.329    21520242.284    12632198.109 9 -19961511.518 9
  22134979.668    22134982.498    41329911.280 9 -41699989.821 8
  24453533.767    24453534.610   -17931600.799 9   2130159.252 9
 86  6 18  4 13 29.0800000  0  3G12G13G 7
  21522952.633    21522955.917    12646455.965 9 -19950401.507 8
  22136878.440    22136879.664    41339887.369 9 -41692216.256 9
  24452810.848    24452811.597   -17935401.134 9   2127197.962 9
 86  6 18  4 13 35.0800000  0  3G12G13G 7
  21525669.996    21525672.786    12660733.349 9 -19939276.272 7
  22138778.460    22138777.779    41349864.837 8 -41684441.605 9
  24452092.067    24452094.165   -17939176.785 9   2124255.894 9
 86  6 18  4 13 41.0800000  0  3G12G13G 7
  21528391.052    21528393.004    12675030.139 9 -19928135.924 8
  22140676.086    22140678.156    41359843.693 9 -41676665.871 8
  24451378.864    24451379.768   -17942930.297 9   2121331.077 9
 86  6 18  4 13 47.0800000  0  3G12G13G 7
  21531114.529    21531117.789    12689346.311 9 -19916980.474 9
  22142574.687    22142577.700    41369823.812 9 -41668889.148 9
  24450668.012    24450669.620   -17946663.379 9   2118422.179 8
 86  6 18  4 13 53.0800000  0  3G12G13G 7
  21533843.693    21533844.851    12703681.855 9 -19905809.922 8
  22144474.962    22144475.956    41379805.354 9 -41661111.324 8
  24449962.133    24449963.105   -17950375.684 9   2115529.478 8
 86  6 18  4 13 59.0800000  0  3G12G13G 7
  21536575.315    21536577.284    12718036.560 8 -19894624.430 8
  22146374.451    22146376.305    41389788.157 9 -41653332.515 8
                  24449261.418                     2112656.145 9
 86  6 18  4 14  5.0800000  0  3G12G13G 7
  21539310.946    21539312.028    12732410.671 9 -19883423.829 8
  22148273.695    22148275.707    41399772.479 9 -41645552.521 9
  24448485.575    24448566.128   -17990485.641 9   2109807.719 9
 86  6 18  4 14 11.0800000  0  3G12G13G 7
  21542048.807    21542051.316    12746803.874 9 -19872208.355 7
  22150174.357    22150175.797    41409757.992 9 -41637771.606 9
  24447876.269    24447878.438   -17994103.641 9   2106988.477 9
 86  6 18  4 14 17.0800000  0  3G12G13G 7
  21544791.358    21544794.314    12761216.493 9 -19860977.747 8
  22152074.374    22152075.684    41419745.006 9 -41629989.504 8
  24447195.361    24447196.298   -17997685.023 9   2104197.792 9
 86  6 18  4 14 23.0800000  0  3G12G13G 7
  21547538.634    21547540.292    12775648.265 9 -19849732.213 8
  22153973.117    22153977.578    41429733.204 9 -41622206.505 9
  24446519.659    24446521.793   -18001233.863 9   2101432.464 8
 86  6 18  4 14 29.0800000  0  3G12G13G 7
  21550288.886    21550290.657    12790099.234 9 -19838471.696 9
  22155876.128    22155878.866    41439722.742 9 -41614422.442 9
  24445849.452    24445850.329   -18004754.650 8   2098688.991 9
 86  6 18  4 14 35.0800000  0  3G12G13G 7
  21553040.766    21553044.191    12804569.394 8 -19827196.256 8
  22157777.574    22157779.441    41449713.641 9 -41606637.321 9
  24445183.167    24445186.574   -18008250.904 9   2095964.631 9
 86  6 18  4 14 41.0800000  0  3G12G13G 7
  21555799.026    21555800.794    12819058.662 9 -19815905.917 7
  22159678.752    22159681.251    41459705.814 9 -41598851.217 9
  24444523.443    24444524.657   -18011725.175 9   2093257.412 9
 86  6 18  4 14 47.0800000  0  3G12G13G 7
  21558560.989    21558563.052    12833567.190 9 -19804600.574 8
  22161580.702    22161583.228    41469699.433 9 -41591063.979 8
  24443865.656    24443867.378   -18015178.904 9   2090566.196 8
 86  6 18  4 14 53.0800000  0  3G12G13G 7
  21561323.757    21561327.044    12848094.739 9 -19793280.404 9
  22163482.259    22163484.831    41479694.199 9 -41583275.851 9
  24443212.177    24443213.870   -18018611.963 9   2087891.080 9
 86  6 18  4 14 59.0800000  0  3G12G13G 7
  21564092.751    21564095.575    12862641.542 9 -19781945.231 8
  22165385.245    22165386.438    41489690.377 9 -41575486.615 8
                  24442565.831                     2085235.945 9
 86  6 18  4 15  5.0800000  0  3G12G13G 7
  21566863.653    21566866.578    12877207.248 9 -19770595.328 8
  22167287.346    22167289.991    41499687.818 9 -41567696.404 9
  24441916.661    24441924.016   -18058558.620 9   2082606.053 8
 86  6 18  4 15 11.0800000  0  3G12G13G 7
  21569640.171    21569642.693    12891792.041 9 -19759230.562 9
  22169190.645    22169191.655    41509686.654 9 -41559905.101 9
  24441286.120    24441287.593   -18061896.221 9   2080005.557 9
 86  6 18  4 15 17.0800000  0  3G12G13G 7
  21572417.178    21572420.783    12906395.806 9 -19747851.006 8
  22171091.506    22171095.039    41519686.818 9 -41552112.756 9
  24440658.225    24440661.040   -18065197.581 9   2077433.458 8
 86  6 18  4 15 23.0800000  0  3G12G13G 7
  21575200.405    21575204.177    12921018.542 9 -19736456.663 8
  22172996.188    22172997.496    41529688.267 9 -41544319.416 9
  24440035.761    24440038.817   -18068466.014 9   2074886.630 8
 86  6 18  4 15 29.0800000  0  3G12G13G 7
  21577986.681    21577989.834    12935660.311 9 -19725047.505 9
  22174899.955    22174901.450    41539691.143 9 -41536524.962 8
  24439419.394    24439422.716   -18071706.639 9   2072361.467 9
 86  6 18  4 15 35.0800000  0  3G12G13G 7
  21580775.746    21580779.295    12950320.839 9 -19713623.716 8
  22176803.693    22176803.826    41549695.225 9 -41528729.568 8
  24438807.262    24438809.706   -18074922.954 9   2069855.245 9
 86  6 18  4 15 41.0800000  0  3G12G13G 7
  21583569.950    21583573.652    12965000.464 9 -19702185.046 8
  22178707.804    22178709.271    41559700.767 9 -41520933.039 9
  24438199.314    24438203.229   -18078117.113 9   2067366.291 8
 86  6 18  4 15 47.0800000  0  3G12G13G 7
  21586367.105    21586369.267    12979698.831 9 -19690731.783 8
  22180611.168    22180613.395    41569707.421 9 -41513135.652 9
  24437595.271    24437598.344   -18081291.004 9   2064893.122 9
 86  6 18  4 15 53.0800000  0  3G12G13G 7
  21589167.382    21589170.750    12994416.226 9 -19679263.684 8
  22182516.206    22182518.005    41579715.546 9 -41505337.105 9
  24436995.684    24436997.343   -18084443.673 9   2062436.503 8
 86  6 18  4 15 59.0800000  0  3G12G13G 7
  21591972.301    21591975.054    13009152.347 9 -19667780.996 9
  22184419.773    22184422.187    41589724.841 9 -41497537.659 9
                  24436401.804                     2059999.912 8
 86  6 18  4 16  5.0800000  0  3G12G13G 7
  21594780.796    21594782.838    13023907.484 9 -19656283.495 8
  22186326.215    22186327.313    41599735.532 9 -41489737.104 8
  24435731.747    24435812.337   -18124000.223 9   2057589.050 9
 86  6 18  4 16 11.0800000  0  3G12G13G 7
  21597591.528    21597593.900    13038681.370 8 -19644771.363 8
  22188231.227    22188233.098    41609747.450 9 -41481935.616 9
  24435230.223    24435231.319   -18127056.854 9   2055207.540 9
 86  6 18  4 16 17.0800000  0  3G12G13G 7
  21600406.247    21600409.267    13053473.935 9 -19633244.690 8
  22190137.026    22190138.968    41619760.521 9 -41474133.226 9
  24434655.904    24434657.213   -18130076.942 9   2052854.236 9
 86  6 18  4 16 23.0800000  0  3G12G13G 7
  21603226.018    21603227.520    13068285.302 9 -19621703.360 8
  22192041.393    22192043.693    41629774.913 9 -41466329.800 8
  24434087.009    24434087.266   -18133064.829 9   2050526.015 8
 86  6 18  4 16 29.0800000  0  3G12G13G 7
  21606047.129    21606049.019    13083115.311 9 -19610147.524 8
  22193948.452    22193950.276    41639790.484 9 -41458525.459 9
  24433523.425    24433524.935   -18136025.221 9   2048219.218 8
 86  6 18  4 16 35.0800000  0  3G12G13G 7
  21608872.628    21608875.375    13097964.235 9 -19598576.924 8
  22195853.792    22195856.318    41649807.416 9 -41450720.052 9
  24432965.395    24432966.392   -18138961.135 9   2045931.488 8
 86  6 18  4 16 41.0800000  0  3G12G13G 7
  21611702.189    21611705.591    13112831.574 9 -19586991.982 8
  22197760.651    22197762.132    41659825.559 9 -41442913.703 8
  24432411.288    24432412.010   -18141875.191 9   2043660.800 8
 86  6 18  4 16 47.0800000  0  3G12G13G 7
  21614534.283    21614537.752    13127717.691 9 -19575392.415 8
  22199667.850    22199669.002    41669845.087 9 -41435106.278 9
  24431859.777    24431860.985   -18144768.751 9   2041406.085 9
 86  6 18  4 16 53.0800000  0  3G12G13G 7
  21617371.026    21617374.114    13142622.389 9 -19563778.364 8
  22201573.276    22201575.788    41679865.764 9 -41427297.952 9
  24431313.853    24431314.052   -18147641.013 9   2039167.962 9
 86  6 18  4 16 59.0800000  0  3G12G13G 7
  21620211.624    21620213.801    13157545.776 9 -19552149.759 8
  22203480.934    22203482.059    41689887.760 9 -41419488.606 9
                  24430772.042   -18150487.165 9
